[[{"header":{"parameterUnit":"m.s-1","parameterCategory":1,"la1":31.0,"la2":29.5877,"lo1":-88.7671,"lo2":-86.6584,"dy":0.0162,"dx":0.0185,"nx":115,"ny":88,"refTime":"2023-04-18T06:00:00:Z","depth":0,"parameterNumber":2,"parameterNumberName":"U-component_of_WINDS"},"data":[0.0,0.0,0.0,0.0,0.0,0.0,0.0,0.0,0.0,0.0,0.0,0.0,0.0,0.0,0.0,0.0,0.0,0.0,0.0,0.0,0.0,0.0,0.0,0.0,0.0,0.0,0.0,0.0,0.0,0.0,0.0,0.0,0.0,0.0,0.0,0.0,0.0,0.0,0.0,0.0,0.0,0.0,0.0,0.0,0.0,0.0,0.0,0.0,0.0,0.0,0.0,0.0,0.0,0.0,0.0,0.0,0.0,0.0,0.0,0.0,0.0,0.0,0.0,0.0,0.0,0.0,0.0,0.0,0.0,0.0,0.0,0.0,0.0,0.0,0.0,0.0,0.0,0.0,0.0,0.0,0.0,0.0,0.0,0.0,0.0,0.0,0.0,0.0,0.0,0.0,0.0,0.0,0.0,0.0,0.0,0.0,0.0,0.0,0.0,0.0,0.0,0.0,0.0,0.0,0.0,0.0,0.0,0.0,0.0,0.0,0.0,0.0,0.0,0.0,0.0,0.0,0.0,0.0,0.0,0.0,0.0,0.0,0.0,0.0,0.0,0.0,0.0,0.0,0.0,0.0,0.0,0.0,0.0,0.0,0.0,0.0,0.0,0.0,0.0,0.0,0.0,0.0,0.0,0.0,0.0,0.0,0.0,0.0,0.0,0.0,0.0,0.0,0.0,0.0,0.0,0.0,0.0,0.0,0.0,0.0,0.0,0.0,0.0,0.0,0.0,0.0,0.0,0.0,0.0,0.0,0.0,0.0,0.0,0.0,0.0,0.0,0.0,0.0,0.0,0.0,0.0,0.0,0.0,0.0,0.0,0.0,0.0,0.0,0.0,0.0,0.0,0.0,0.0,0.0,0.0,0.0,0.0,0.0,0.0,0.0,0.0,0.0,0.0,0.0,0.0,0.0,0.0,0.0,0.0,0.0,0.0,0.0,0.0,0.0,0.0,0.0,0.0,0.0,0.0,0.0,0.0,0.0,0.0,0.0,0.0,0.0,0.0,0.0,0.0,0.0,0.0,0.0,0.0,0.0,0.0,0.0,0.0,0.0,0.0,0.0,0.0,0.0,0.0,0.0,0.0,0.0,0.0,0.0,0.0,0.0,0.0,0.0,0.0,0.0,0.0,0.0,0.0,0.0,0.0,0.0,0.0,0.0,0.0,0.0,0.0,0.0,0.0,0.0,0.0,0.0,0.0,0.0,0.0,0.0,0.0,0.0,0.0,0.0,0.0,0.0,0.0,0.0,0.0,0.0,0.0,0.0,0.0,0.0,0.0,0.0,0.0,0.0,0.0,0.0,0.0,0.0,0.0,0.0,0.0,0.0,0.0,0.0,0.0,0.0,0.0,0.0,0.0,0.0,0.0,0.0,0.0,0.0,0.0,0.0,0.0,0.0,0.0,0.0,0.0,0.0,0.0,0.0,0.0,0.0,0.0,0.0,0.0,0.0,0.0,0.0,0.0,0.0,0.0,0.0,0.0,0.0,0.0,0.0,0.0,0.0,0.0,0.0,0.0,0.0,0.0,0.0,0.0,0.0,0.0,0.0,0.0,0.0,0.0,0.0,0.0,0.0,0.0,0.0,0.0,0.0,0.0,0.0,0.0,0.0,0.0,0.0,0.0,0.0,0.0,0.0,0.0,0.0,0.0,0.0,0.0,0.0,0.0,0.0,0.0,0.0,0.0,0.0,0.0,0.0,0.0,0.0,0.0,0.0,0.0,0.0,0.0,0.0,0.0,0.0,0.0,0.0,0.0,0.0,0.0,0.0,0.0,0.0,0.0,0.0,0.0,0.0,0.0,0.0,0.0,0.0,0.0,0.0,0.0,0.0,0.0,0.0,0.0,0.0,0.0,0.0,0.0,0.0,0.0,0.0,0.0,0.0,0.0,0.0,0.0,0.0,0.0,0.0,0.0,0.0,0.0,0.0,0.0,0.0,0.0,0.0,0.0,0.0,0.0,0.0,0.0,0.0,0.0,0.0,0.0,0.0,0.0,0.0,0.0,0.0,0.0,0.0,0.0,0.0,0.0,0.0,0.0,0.0,0.0,0.0,0.0,0.0,0.0,0.0,0.0,0.0,0.0,0.0,0.0,0.0,0.0,0.0,0.0,0.0,0.0,0.0,0.0,0.0,0.0,0.0,0.0,0.0,0.0,0.0,0.0,0.0,0.0,0.0,0.0,0.0,0.0,0.0,0.0,0.0,0.0,0.0,0.0,0.0,0.0,0.0,0.0,0.0,0.0,0.0,0.0,0.0,0.0,0.0,0.0,0.0,0.0,0.0,0.0,0.0,0.0,0.0,0.0,0.0,0.0,0.0,0.0,0.0,0.0,0.0,0.0,0.0,0.0,0.0,0.0,0.0,0.0,0.0,0.0,0.0,0.0,0.0,0.0,0.0,0.0,0.0,0.0,0.0,0.0,0.0,0.0,0.0,0.0,0.0,0.0,0.0,0.0,0.0,0.0,0.0,0.0,0.0,0.0,0.0,0.0,0.0,0.0,0.0,0.0,0.0,0.0,0.0,0.0,0.0,0.0,0.0,0.0,0.0,0.0,0.0,0.0,0.0,0.0,0.0,0.0,0.0,0.0,0.0,0.0,0.0,0.0,0.0,0.0,0.0,0.0,0.0,0.0,0.0,0.0,0.0,0.0,0.0,0.0,0.0,0.0,0.0,0.0,0.0,0.0,0.0,0.0,0.0,0.0,0.0,0.0,0.0,0.0,0.0,0.0,0.0,0.0,0.0,0.0,0.0,0.0,0.0,0.0,0.0,0.0,0.0,0.0,0.0,0.0,0.0,0.0,0.0,0.0,0.0,0.0,0.0,0.0,0.0,0.0,0.0,0.0,0.0,0.0,0.0,0.0,0.0,0.0,0.0,0.0,0.0,0.0,0.0,0.0,0.0,0.0,0.0,0.0,0.0,0.0,0.0,0.0,0.0,0.0,0.0,0.0,0.0,0.0,0.0,0.0,0.0,0.0,0.0,0.0,0.0,0.0,0.0,0.0,0.0,0.0,0.0,0.0,0.0,0.0,0.0,0.0,0.0,0.0,0.0,0.0,0.0,0.0,0.0,0.0,0.0,0.0,0.0,0.0,0.0,0.0,0.0,0.0,0.0,0.0,0.0,0.0,0.0,0.0,0.0,0.0,0.0,0.0,0.0,0.0,0.0,0.0,0.0,0.0,0.0,0.0,0.0,0.0,0.0,0.0,0.0,0.0,0.0,0.0,0.0,0.0,0.0,0.0,0.0,0.0,0.0,0.0,0.0,0.0,0.0,0.0,0.0,0.0,0.0,0.0,0.0,0.0,0.0,0.0,0.0,0.0,0.0,0.0,0.0,0.0,0.0,0.0,0.0,0.0,0.0,0.0,0.0,0.0,0.0,0.0,0.0,0.0,0.0,0.0,0.0,0.0,0.0,0.0,0.0,0.0,0.0,0.0,0.0,0.0,0.0,0.0,0.0,0.0,0.0,0.0,0.0,0.0,0.0,0.0,0.0,0.0,0.0,0.0,0.0,0.0,0.0,0.0,0.0,0.0,0.0,0.0,0.0,0.0,0.0,0.0,0.0,0.0,0.0,0.0,0.0,0.0,0.0,0.0,0.0,0.0,0.0,0.0,0.0,0.0,0.0,0.0,0.0,0.0,0.0,0.0,0.0,0.0,0.0,0.0,0.0,0.0,0.0,0.0,0.0,0.0,0.0,0.0,0.0,0.0,0.0,0.0,0.0,0.0,0.0,0.0,0.0,0.0,0.0,0.0,0.0,0.0,0.0,0.0,0.0,0.0,0.0,0.0,0.0,0.0,0.0,0.0,0.0,0.0,0.0,0.0,0.0,0.0,0.0,0.0,0.0,0.0,0.0,0.0,0.0,0.0,0.0,0.0,0.0,0.0,0.0,0.0,0.0,0.0,0.0,0.0,0.0,0.0,0.0,0.0,0.0,0.0,0.0,0.0,0.0,0.0,0.0,0.0,0.0,0.0,0.0,0.0,0.0,0.0,0.0,0.0,0.0,0.0,0.0,0.0,0.0,0.0,0.0,0.0,0.0,0.0,0.0,0.0,0.0,0.0,0.0,0.0,0.0,0.0,0.0,0.0,0.0,0.0,0.0,0.0,0.0,0.0,0.0,0.0,0.0,0.0,0.0,0.0,0.0,0.0,0.0,0.0,0.0,0.0,0.0,0.0,0.0,0.0,0.0,0.0,0.0,0.0,0.0,0.0,0.0,0.0,0.0,0.0,0.0,0.0,0.0,0.0,0.0,0.0,0.0,0.0,0.0,4.8306,0.0,0.0,0.0,0.0,0.0,0.0,0.0,0.0,0.0,0.0,0.0,0.0,0.0,0.0,0.0,0.0,0.0,0.0,0.0,0.0,0.0,0.0,0.0,0.0,0.0,0.0,0.0,0.0,0.0,0.0,0.0,0.0,0.0,0.0,0.0,0.0,0.0,0.0,0.0,0.0,0.0,0.0,0.0,0.0,0.0,0.0,0.0,0.0,0.0,0.0,0.0,0.0,0.0,0.0,0.0,0.0,0.0,0.0,0.0,0.0,0.0,0.0,0.0,0.0,0.0,0.0,0.0,0.0,0.0,0.0,0.0,0.0,0.0,0.0,0.0,0.0,0.0,0.0,0.0,0.0,0.0,0.0,0.0,0.0,0.0,0.0,0.0,0.0,0.0,0.0,0.0,0.0,0.0,0.0,0.0,0.0,0.0,0.0,0.0,0.0,0.0,0.0,0.0,0.0,0.0,0.0,0.0,0.0,0.0,0.0,4.842,4.8458,4.842,4.8419,4.8419,0.0,0.0,0.0,0.0,0.0,0.0,0.0,0.0,0.0,0.0,0.0,0.0,0.0,0.0,0.0,0.0,0.0,0.0,0.0,0.0,0.0,0.0,0.0,0.0,0.0,0.0,0.0,0.0,0.0,0.0,0.0,0.0,0.0,0.0,0.0,0.0,0.0,0.0,0.0,0.0,0.0,0.0,0.0,0.0,0.0,0.0,0.0,0.0,0.0,0.0,0.0,0.0,0.0,0.0,0.0,0.0,0.0,0.0,0.0,0.0,0.0,0.0,0.0,0.0,0.0,0.0,0.0,0.0,0.0,0.0,0.0,0.0,0.0,0.0,0.0,0.0,0.0,0.0,0.0,0.0,0.0,0.0,0.0,0.0,0.0,0.0,0.0,0.0,0.0,0.0,0.0,0.0,0.0,0.0,0.0,0.0,0.0,0.0,0.0,0.0,0.0,0.0,0.0,0.0,0.0,0.0,0.0,0.0,0.0,0.0,0.0,0.0,4.8569,4.8494,4.8494,0.0,0.0,0.0,0.0,0.0,0.0,0.0,0.0,0.0,0.0,0.0,0.0,0.0,0.0,0.0,0.0,0.0,0.0,0.0,0.0,0.0,0.0,0.0,0.0,0.0,0.0,0.0,0.0,0.0,0.0,0.0,0.0,0.0,0.0,0.0,0.0,0.0,0.0,0.0,0.0,0.0,0.0,0.0,0.0,0.0,0.0,0.0,0.0,0.0,0.0,0.0,0.0,0.0,0.0,0.0,0.0,0.0,0.0,0.0,0.0,0.0,0.0,0.0,0.0,0.0,0.0,0.0,0.0,0.0,0.0,0.0,0.0,0.0,0.0,0.0,0.0,0.0,0.0,0.0,0.0,0.0,0.0,0.0,0.0,0.0,0.0,0.0,0.0,0.0,0.0,0.0,0.0,0.0,0.0,0.0,0.0,0.0,0.0,0.0,0.0,0.0,0.0,0.0,0.0,0.0,0.0,0.0,0.0,0.0,0.0,4.8569,4.8569,4.8605,0.0,4.8494,0.0,0.0,0.0,0.0,0.0,0.0,0.0,0.0,0.0,0.0,0.0,0.0,0.0,0.0,0.0,0.0,0.0,0.0,0.0,0.0,0.0,0.0,0.0,0.0,0.0,0.0,0.0,0.0,0.0,0.0,0.0,0.0,0.0,0.0,0.0,0.0,0.0,0.0,0.0,0.0,0.0,0.0,0.0,0.0,0.0,0.0,0.0,0.0,0.0,0.0,0.0,0.0,0.0,0.0,0.0,0.0,0.0,0.0,0.0,0.0,0.0,0.0,0.0,0.0,0.0,0.0,0.0,0.0,0.0,0.0,0.0,0.0,0.0,0.0,0.0,0.0,0.0,0.0,0.0,0.0,0.0,0.0,0.0,0.0,0.0,0.0,0.0,0.0,0.0,0.0,0.0,0.0,0.0,0.0,0.0,0.0,0.0,0.0,0.0,0.0,0.0,0.0,0.0,0.0,0.0,0.0,0.0,0.0,0.0,0.0,4.8714,4.8785,4.8714,4.8642,0.0,0.0,0.0,0.0,0.0,0.0,0.0,0.0,0.0,0.0,0.0,0.0,0.0,0.0,0.0,0.0,0.0,0.0,0.0,0.0,0.0,0.0,0.0,0.0,0.0,0.0,0.0,0.0,0.0,0.0,0.0,0.0,0.0,0.0,0.0,0.0,0.0,0.0,0.0,0.0,0.0,0.0,0.0,0.0,0.0,0.0,0.0,0.0,0.0,0.0,0.0,0.0,0.0,0.0,0.0,0.0,0.0,0.0,0.0,0.0,0.0,0.0,0.0,0.0,0.0,0.0,0.0,0.0,0.0,0.0,0.0,0.0,0.0,0.0,0.0,0.0,0.0,0.0,0.0,0.0,0.0,0.0,0.0,0.0,0.0,0.0,0.0,0.0,0.0,0.0,0.0,0.0,0.0,0.0,0.0,0.0,0.0,0.0,0.0,0.0,0.0,0.0,0.0,0.0,0.0,0.0,0.0,0.0,0.0,0.0,4.8927,4.8927,4.8996,4.8927,4.8822,4.8714,0.0,0.0,0.0,0.0,0.0,0.0,0.0,0.0,0.0,0.0,0.0,0.0,0.0,0.0,0.0,0.0,0.0,0.0,0.0,0.0,0.0,0.0,0.0,0.0,0.0,0.0,0.0,0.0,0.0,0.0,0.0,0.0,0.0,0.0,0.0,0.0,0.0,0.0,0.0,0.0,0.0,0.0,0.0,0.0,0.0,0.0,0.0,0.0,0.0,0.0,0.0,0.0,0.0,0.0,0.0,0.0,0.0,0.0,0.0,0.0,0.0,0.0,0.0,0.0,0.0,0.0,0.0,0.0,0.0,0.0,0.0,0.0,0.0,0.0,0.0,0.0,0.0,0.0,0.0,0.0,0.0,0.0,0.0,0.0,0.0,0.0,0.0,0.0,0.0,0.0,0.0,0.0,0.0,0.0,0.0,0.0,0.0,0.0,0.0,0.0,0.0,0.0,0.0,0.0,0.0,0.0,0.0,0.0,4.9235,4.9235,4.9197,4.9235,4.9135,4.9033,0.0,0.0,0.0,0.0,0.0,0.0,0.0,0.0,0.0,0.0,0.0,0.0,0.0,0.0,0.0,0.0,0.0,0.0,0.0,0.0,0.0,0.0,0.0,0.0,0.0,0.0,0.0,0.0,0.0,0.0,0.0,0.0,0.0,0.0,0.0,0.0,0.0,0.0,0.0,0.0,0.0,0.0,0.0,0.0,0.0,0.0,0.0,0.0,0.0,0.0,0.0,0.0,0.0,0.0,0.0,0.0,0.0,0.0,0.0,0.0,0.0,0.0,0.0,0.0,0.0,0.0,0.0,0.0,0.0,0.0,0.0,0.0,0.0,0.0,0.0,0.0,0.0,0.0,0.0,0.0,0.0,0.0,0.0,0.0,0.0,0.0,0.0,0.0,0.0,0.0,0.0,0.0,0.0,0.0,0.0,0.0,0.0,0.0,0.0,0.0,0.0,0.0,0.0,0.0,0.0,0.0,0.0,0.0,0.0,5.08,5.08,5.0837,5.08,5.0247,4.9881,0.0,0.0,0.0,0.0,0.0,0.0,0.0,0.0,0.0,0.0,0.0,0.0,0.0,0.0,0.0,0.0,0.0,0.0,0.0,0.0,0.0,0.0,0.0,0.0,0.0,0.0,0.0,0.0,0.0,0.0,0.0,0.0,0.0,0.0,0.0,0.0,0.0,0.0,0.0,0.0,0.0,0.0,0.0,0.0,0.0,0.0,0.0,0.0,0.0,0.0,0.0,0.0,0.0,0.0,0.0,0.0,0.0,0.0,0.0,0.0,0.0,0.0,0.0,0.0,0.0,0.0,0.0,0.0,0.0,0.0,0.0,0.0,0.0,0.0,0.0,0.0,0.0,0.0,0.0,0.0,0.0,0.0,0.0,0.0,0.0,0.0,0.0,0.0,0.0,0.0,0.0,0.0,0.0,0.0,0.0,0.0,0.0,0.0,0.0,0.0,0.0,0.0,0.0,0.0,0.0,0.0,0.0,0.0,0.0,5.1765,0.0,5.1765,5.1765,5.117,5.0804,0.0,0.0,0.0,0.0,0.0,0.0,0.0,0.0,0.0,0.0,0.0,0.0,0.0,0.0,0.0,0.0,0.0,0.0,0.0,0.0,0.0,0.0,0.0,0.0,0.0,0.0,0.0,0.0,0.0,0.0,0.0,0.0,0.0,0.0,0.0,0.0,0.0,0.0,0.0,0.0,0.0,0.0,0.0,0.0,0.0,0.0,0.0,0.0,0.0,0.0,0.0,0.0,0.0,0.0,0.0,0.0,0.0,0.0,0.0,0.0,0.0,0.0,0.0,0.0,0.0,0.0,0.0,0.0,0.0,0.0,0.0,0.0,0.0,0.0,0.0,0.0,0.0,0.0,0.0,0.0,0.0,0.0,0.0,0.0,0.0,0.0,0.0,0.0,0.0,0.0,0.0,0.0,0.0,0.0,0.0,0.0,0.0,0.0,0.0,0.0,0.0,0.0,0.0,0.0,0.0,0.0,0.0,0.0,5.2006,5.1968,5.1968,5.2043,5.1931,5.1903,5.1765,0.0,0.0,0.0,0.0,0.0,0.0,0.0,0.0,0.0,0.0,0.0,0.0,0.0,0.0,0.0,0.0,0.0,0.0,0.0,0.0,0.0,0.0,0.0,0.0,0.0,0.0,0.0,0.0,0.0,0.0,0.0,0.0,0.0,0.0,0.0,0.0,0.0,0.0,0.0,0.0,0.0,0.0,0.0,0.0,0.0,0.0,0.0,0.0,0.0,0.0,0.0,0.0,0.0,0.0,0.0,0.0,0.0,0.0,0.0,0.0,0.0,0.0,0.0,0.0,0.0,0.0,0.0,0.0,0.0,0.0,0.0,0.0,0.0,0.0,0.0,0.0,0.0,0.0,0.0,0.0,0.0,0.0,0.0,0.0,0.0,0.0,0.0,0.0,0.0,0.0,0.0,0.0,0.0,0.0,0.0,0.0,0.0,0.0,0.0,0.0,0.0,0.0,0.0,0.0,0.0,0.0,0.0,0.0,0.0,5.3855,5.3817,5.3785,5.3682,5.3123,5.2723,0.0,0.0,0.0,0.0,0.0,0.0,0.0,0.0,0.0,0.0,0.0,0.0,0.0,0.0,0.0,0.0,0.0,0.0,0.0,0.0,0.0,0.0,0.0,0.0,0.0,0.0,0.0,0.0,0.0,0.0,0.0,0.0,0.0,0.0,0.0,0.0,0.0,0.0,0.0,0.0,0.0,0.0,0.0,0.0,0.0,0.0,0.0,0.0,0.0,0.0,0.0,0.0,0.0,0.0,0.0,0.0,0.0,0.0,0.0,0.0,0.0,0.0,0.0,0.0,0.0,0.0,0.0,0.0,0.0,0.0,0.0,0.0,0.0,0.0,0.0,0.0,0.0,0.0,0.0,0.0,0.0,0.0,0.0,0.0,0.0,0.0,0.0,0.0,0.0,0.0,0.0,0.0,0.0,0.0,0.0,0.0,0.0,0.0,0.0,0.0,0.0,0.0,0.0,0.0,0.0,0.0,0.0,0.0,0.0,5.6292,5.5927,5.5643,5.5508,5.4684,5.4171,5.3965,0.0,0.0,0.0,0.0,0.0,0.0,0.0,0.0,0.0,0.0,0.0,0.0,0.0,0.0,0.0,0.0,0.0,0.0,0.0,0.0,0.0,0.0,0.0,0.0,0.0,0.0,0.0,0.0,0.0,0.0,0.0,0.0,0.0,0.0,0.0,0.0,0.0,0.0,0.0,0.0,0.0,0.0,0.0,0.0,0.0,0.0,0.0,0.0,0.0,0.0,0.0,0.0,0.0,0.0,0.0,0.0,0.0,0.0,0.0,0.0,0.0,0.0,0.0,0.0,0.0,0.0,0.0,0.0,0.0,0.0,0.0,0.0,0.0,0.0,0.0,0.0,0.0,0.0,0.0,0.0,0.0,0.0,0.0,0.0,0.0,0.0,0.0,0.0,0.0,0.0,0.0,0.0,0.0,0.0,0.0,0.0,0.0,0.0,0.0,0.0,0.0,0.0,0.0,0.0,0.0,0.0,0.0,0.0,5.9024,5.8152,5.7611,5.7327,5.6436,5.5852,0.0,0.0,0.0,0.0,0.0,0.0,0.0,0.0,0.0,0.0,0.0,0.0,0.0,0.0,0.0,0.0,0.0,0.0,0.0,0.0,0.0,0.0,0.0,0.0,0.0,0.0,0.0,0.0,0.0,0.0,0.0,0.0,0.0,0.0,0.0,0.0,0.0,0.0,0.0,0.0,0.0,0.0,0.0,0.0,0.0,0.0,0.0,0.0,0.0,0.0,0.0,0.0,0.0,0.0,0.0,0.0,0.0,0.0,0.0,0.0,0.0,0.0,0.0,0.0,0.0,0.0,0.0,0.0,0.0,0.0,0.0,0.0,0.0,0.0,0.0,0.0,0.0,0.0,0.0,0.0,0.0,0.0,0.0,0.0,0.0,0.0,0.0,0.0,0.0,0.0,0.0,0.0,0.0,0.0,0.0,0.0,0.0,0.0,0.0,0.0,0.0,0.0,0.0,0.0,0.0,0.0,0.0,0.0,0.0,6.0798,6.1247,6.0472,5.8501,5.7434,5.6587,0.0,0.0,0.0,0.0,0.0,0.0,0.0,0.0,0.0,0.0,0.0,0.0,0.0,0.0,0.0,0.0,0.0,0.0,0.0,0.0,0.0,0.0,0.0,0.0,0.0,0.0,0.0,0.0,0.0,0.0,0.0,0.0,0.0,0.0,0.0,0.0,0.0,0.0,0.0,0.0,0.0,0.0,0.0,0.0,0.0,0.0,0.0,0.0,0.0,0.0,0.0,0.0,0.0,0.0,0.0,0.0,0.0,0.0,0.0,0.0,0.0,0.0,0.0,0.0,0.0,0.0,0.0,0.0,0.0,0.0,0.0,0.0,0.0,0.0,0.0,0.0,0.0,0.0,0.0,0.0,0.0,0.0,0.0,0.0,0.0,0.0,0.0,0.0,0.0,0.0,0.0,0.0,0.0,0.0,0.0,0.0,0.0,0.0,0.0,0.0,0.0,0.0,0.0,0.0,0.0,0.0,0.0,0.0,6.1802,6.2642,6.3168,6.268,6.1111,5.9368,5.8154,0.0,0.0,0.0,0.0,0.0,0.0,0.0,0.0,0.0,0.0,0.0,0.0,0.0,0.0,0.0,0.0,0.0,0.0,0.0,0.0,0.0,0.0,0.0,0.0,0.0,0.0,0.0,0.0,0.0,0.0,0.0,0.0,0.0,0.0,0.0,0.0,0.0,0.0,0.0,0.0,0.0,0.0,0.0,0.0,0.0,0.0,0.0,0.0,0.0,0.0,0.0,0.0,0.0,0.0,0.0,0.0,0.0,0.0,0.0,0.0,0.0,0.0,0.0,0.0,0.0,0.0,0.0,0.0,0.0,0.0,0.0,0.0,0.0,0.0,0.0,0.0,0.0,0.0,0.0,0.0,0.0,0.0,0.0,0.0,0.0,0.0,0.0,0.0,0.0,0.0,0.0,0.0,0.0,0.0,0.0,0.0,0.0,0.0,0.0,0.0,0.0,0.0,0.0,0.0,0.0,0.0,0.0,0.0,6.3312,6.4153,6.4267,6.4305,6.4229,6.1614,6.0026,0.0,0.0,0.0,0.0,0.0,0.0,0.0,0.0,0.0,0.0,0.0,0.0,0.0,0.0,0.0,0.0,0.0,0.0,0.0,0.0,0.0,0.0,0.0,0.0,0.0,0.0,0.0,0.0,0.0,0.0,0.0,0.0,0.0,0.0,0.0,0.0,0.0,0.0,0.0,0.0,0.0,0.0,0.0,0.0,0.0,0.0,0.0,0.0,0.0,0.0,0.0,0.0,0.0,0.0,0.0,0.0,0.0,0.0,0.0,0.0,0.0,0.0,0.0,0.0,0.0,0.0,0.0,0.0,0.0,0.0,0.0,0.0,0.0,0.0,0.0,0.0,0.0,0.0,0.0,0.0,0.0,0.0,0.0,0.0,0.0,0.0,0.0,0.0,0.0,0.0,0.0,0.0,0.0,0.0,0.0,0.0,0.0,0.0,0.0,0.0,0.0,0.0,0.0,0.0,0.0,0.0,0.0,0.0,6.3312,6.4153,6.4802,6.5146,6.5108,6.2459,6.0665,0.0,0.0,0.0,0.0,0.0,0.0,0.0,0.0,0.0,0.0,0.0,0.0,0.0,0.0,0.0,0.0,0.0,0.0,0.0,0.0,0.0,0.0,0.0,0.0,0.0,0.0,0.0,0.0,0.0,0.0,0.0,0.0,0.0,0.0,0.0,0.0,0.0,0.0,0.0,0.0,0.0,0.0,0.0,0.0,0.0,0.0,0.0,0.0,5.755,0.0,0.0,0.0,0.0,0.0,0.0,0.0,0.0,0.0,0.0,0.0,0.0,0.0,0.0,0.0,0.0,0.0,0.0,0.0,0.0,0.0,0.0,0.0,0.0,0.0,0.0,0.0,0.0,0.0,0.0,0.0,0.0,0.0,0.0,0.0,0.0,0.0,0.0,0.0,0.0,0.0,0.0,0.0,0.0,0.0,0.0,0.0,0.0,0.0,0.0,0.0,0.0,0.0,0.0,0.0,0.0,0.0,0.0,0.0,6.3923,6.4726,6.5184,6.5413,6.5337,6.3581,6.2091,0.0,0.0,0.0,0.0,0.0,0.0,0.0,0.0,0.0,0.0,0.0,0.0,0.0,0.0,0.0,0.0,0.0,0.0,0.0,0.0,0.0,0.0,0.0,0.0,0.0,0.0,0.0,0.0,0.0,0.0,0.0,0.0,0.0,0.0,0.0,0.0,0.0,0.0,0.0,0.0,0.0,0.0,0.0,0.0,0.0,0.0,0.0,0.0,0.0,0.0,0.0,0.0,0.0,0.0,0.0,0.0,0.0,0.0,0.0,0.0,0.0,0.0,0.0,0.0,0.0,0.0,0.0,0.0,0.0,0.0,0.0,0.0,0.0,0.0,0.0,0.0,0.0,0.0,0.0,0.0,0.0,0.0,0.0,0.0,0.0,0.0,0.0,0.0,0.0,0.0,0.0,0.0,0.0,0.0,0.0,0.0,0.0,0.0,0.0,0.0,0.0,0.0,0.0,0.0,0.0,0.0,0.0,6.377,6.4573,6.5337,6.5413,6.5413,6.5413,6.4627,6.374,6.2705,0.0,0.0,0.0,0.0,0.0,0.0,0.0,0.0,0.0,0.0,0.0,0.0,0.0,0.0,0.0,0.0,0.0,0.0,0.0,0.0,0.0,0.0,0.0,0.0,0.0,0.0,0.0,0.0,0.0,0.0,0.0,0.0,0.0,0.0,0.0,0.0,0.0,0.0,5.5305,5.6573,0.0,0.0,0.0,0.0,0.0,0.0,0.0,0.0,5.9687,0.0,0.0,0.0,0.0,0.0,0.0,0.0,0.0,0.0,0.0,0.0,0.0,0.0,0.0,0.0,0.0,0.0,0.0,0.0,0.0,0.0,0.0,0.0,0.0,0.0,0.0,0.0,0.0,0.0,0.0,0.0,0.0,0.0,0.0,0.0,0.0,0.0,0.0,0.0,0.0,0.0,0.0,0.0,0.0,0.0,0.0,0.0,0.0,0.0,0.0,0.0,0.0,0.0,0.0,0.0,0.0,6.2892,6.3732,6.4573,6.5375,6.5413,6.5413,6.5413,6.5261,6.4711,6.3676,0.0,0.0,0.0,0.0,0.0,0.0,0.0,0.0,0.0,0.0,0.0,0.0,0.0,0.0,0.0,0.0,0.0,0.0,0.0,0.0,0.0,0.0,0.0,0.0,0.0,0.0,0.0,0.0,0.0,0.0,0.0,0.0,0.0,0.0,0.0,0.0,0.0,0.0,0.0,5.8058,5.8492,0.0,0.0,0.0,0.0,0.0,0.0,0.0,0.0,5.9796,0.0,0.0,0.0,0.0,0.0,0.0,0.0,0.0,0.0,0.0,0.0,0.0,0.0,0.0,0.0,0.0,0.0,0.0,0.0,0.0,0.0,0.0,0.0,0.0,0.0,0.0,0.0,0.0,0.0,0.0,0.0,0.0,0.0,0.0,0.0,0.0,0.0,0.0,0.0,0.0,0.0,0.0,0.0,0.0,0.0,0.0,0.0,0.0,0.0,0.0,0.0,0.0,0.0,0.0,0.0,6.3579,6.4382,6.4993,6.5375,6.5413,6.5413,6.5413,6.5413,6.4932,0.0,0.0,0.0,0.0,0.0,0.0,0.0,0.0,0.0,0.0,0.0,0.0,0.0,0.0,0.0,0.0,0.0,0.0,0.0,0.0,0.0,0.0,0.0,0.0,0.0,0.0,0.0,0.0,0.0,0.0,0.0,0.0,0.0,0.0,0.0,0.0,0.0,0.0,0.0,0.0,5.8673,5.8854,6.0086,0.0,0.0,0.0,0.0,0.0,0.0,6.11,6.0846,0.0,0.0,0.0,0.0,0.0,0.0,0.0,0.0,0.0,0.0,0.0,0.0,0.0,0.0,0.0,0.0,0.0,0.0,0.0,0.0,0.0,0.0,0.0,0.0,0.0,0.0,0.0,0.0,0.0,0.0,0.0,0.0,0.0,0.0,0.0,0.0,0.0,0.0,0.0,0.0,0.0,0.0,0.0,0.0,0.0,0.0,0.0,0.0,0.0,0.0,0.0,0.0,0.0,0.0,0.0,6.4191,6.4993,6.5413,6.5413,6.5413,6.5413,6.5413,6.5413,6.5009,0.0,0.0,0.0,0.0,0.0,0.0,0.0,0.0,0.0,0.0,0.0,0.0,0.0,0.0,0.0,0.0,0.0,0.0,0.0,0.0,0.0,0.0,0.0,0.0,0.0,0.0,0.0,0.0,0.0,0.0,0.0,0.0,0.0,0.0,0.0,0.0,0.0,0.0,0.0,0.0,0.0,5.9434,6.0846,6.0629,0.0,0.0,0.0,0.0,6.2404,6.2512,0.0,0.0,0.0,0.0,0.0,0.0,0.0,0.0,0.0,0.0,0.0,0.0,0.0,0.0,0.0,0.0,0.0,0.0,0.0,0.0,0.0,0.0,0.0,0.0,0.0,0.0,0.0,0.0,0.0,0.0,0.0,0.0,0.0,0.0,0.0,0.0,0.0,0.0,0.0,0.0,0.0,0.0,0.0,0.0,0.0,0.0,0.0,0.0,0.0,0.0,0.0,0.0,0.0,0.0,0.0,0.0,6.4191,6.4993,6.5413,6.5413,6.5413,6.5413,6.5413,6.5413,6.5307,0.0,0.0,0.0,0.0,0.0,0.0,0.0,0.0,0.0,0.0,0.0,0.0,0.0,0.0,0.0,0.0,0.0,0.0,0.0,0.0,0.0,0.0,0.0,0.0,0.0,0.0,0.0,0.0,0.0,0.0,0.0,0.0,0.0,0.0,0.0,0.0,0.0,0.0,0.0,0.0,0.0,6.0846,6.1752,6.2404,6.2802,0.0,0.0,6.3997,6.4106,6.4106,0.0,0.0,0.0,0.0,0.0,0.0,0.0,0.0,0.0,0.0,0.0,0.0,0.0,0.0,0.0,0.0,0.0,0.0,0.0,0.0,0.0,0.0,0.0,0.0,0.0,0.0,0.0,0.0,0.0,0.0,0.0,0.0,0.0,0.0,0.0,0.0,0.0,0.0,0.0,0.0,0.0,0.0,0.0,0.0,0.0,0.0,0.0,0.0,0.0,0.0,0.0,0.0,0.0,0.0,0.0,6.3541,6.484,6.5222,6.5413,6.5413,6.5413,6.5413,6.5413,6.5413,6.5383,0.0,0.0,0.0,0.0,0.0,0.0,0.0,0.0,0.0,0.0,0.0,0.0,0.0,0.0,0.0,0.0,0.0,0.0,0.0,0.0,0.0,0.0,0.0,0.0,0.0,0.0,0.0,0.0,0.0,0.0,0.0,0.0,0.0,0.0,0.0,0.0,0.0,0.0,0.0,0.0,0.0,0.0,6.2512,6.2983,0.0,0.0,0.0,6.4396,6.4396,0.0,0.0,0.0,0.0,0.0,0.0,0.0,0.0,0.0,0.0,0.0,0.0,0.0,0.0,0.0,0.0,0.0,0.0,0.0,0.0,0.0,0.0,0.0,0.0,0.0,0.0,0.0,0.0,0.0,0.0,0.0,0.0,0.0,0.0,0.0,0.0,0.0,0.0,0.0,0.0,0.0,0.0,0.0,0.0,0.0,0.0,0.0,0.0,0.0,0.0,0.0,0.0,0.0,0.0,0.0,0.0,0.0,6.5337,6.5413,6.5528,6.5719,6.5719,6.5834,6.6025,6.6025,0.0,0.0,0.0,0.0,0.0,0.0,0.0,0.0,0.0,0.0,0.0,0.0,0.0,0.0,0.0,0.0,0.0,0.0,0.0,0.0,0.0,0.0,0.0,0.0,0.0,0.0,0.0,5.5312,0.0,0.0,0.0,0.0,0.0,0.0,0.0,0.0,0.0,0.0,0.0,0.0,0.0,0.0,6.1879,6.3019,6.3526,6.3997,0.0,0.0,6.5011,6.5011,6.5011,6.4939,0.0,0.0,0.0,0.0,0.0,0.0,0.0,0.0,0.0,0.0,0.0,0.0,0.0,0.0,0.0,0.0,0.0,0.0,0.0,0.0,0.0,0.0,0.0,0.0,0.0,0.0,0.0,0.0,0.0,0.0,0.0,0.0,0.0,0.0,0.0,0.0,0.0,0.0,0.0,0.0,0.0,0.0,0.0,0.0,0.0,0.0,0.0,0.0,0.0,0.0,0.0,0.0,0.0,0.0,6.4535,6.5375,6.5413,6.5796,6.656,6.6598,6.698,6.7706,6.7706,6.7362,0.0,0.0,0.0,0.0,0.0,0.0,0.0,0.0,0.0,0.0,0.0,0.0,0.0,0.0,0.0,0.0,0.0,0.0,0.0,0.0,0.0,0.0,0.0,0.0,0.0,0.0,0.0,0.0,0.0,0.0,0.0,0.0,0.0,0.0,0.0,0.0,0.0,0.0,0.0,0.0,0.0,6.3221,6.322,6.4468,6.5446,0.0,6.617,6.6641,6.6641,6.6641,6.6388,6.5627,0.0,0.0,0.0,0.0,0.0,0.0,0.0,0.0,0.0,0.0,0.0,0.0,0.0,0.0,0.0,0.0,0.0,0.0,0.0,0.0,0.0,0.0,0.0,0.0,0.0,0.0,0.0,0.0,0.0,0.0,0.0,0.0,0.0,0.0,0.0,0.0,0.0,0.0,0.0,0.0,0.0,0.0,0.0,0.0,0.0,0.0,0.0,0.0,0.0,0.0,0.0,0.0,0.0,6.5337,6.6178,6.6674,6.7095,6.74,6.7439,6.7591,6.7897,6.7897,6.7744,0.0,0.0,0.0,0.0,0.0,0.0,0.0,0.0,0.0,0.0,0.0,0.0,0.0,0.0,0.0,0.0,0.0,0.0,0.0,0.0,0.0,0.0,0.0,0.0,0.0,0.0,0.0,0.0,6.0354,6.0857,6.0957,0.0,0.0,0.0,0.0,0.0,0.0,0.0,0.0,0.0,0.0,6.3784,6.4674,6.525,0.0,0.0,6.6605,6.6822,6.6822,6.6822,6.6714,6.6388,6.5663,0.0,0.0,0.0,0.0,0.0,0.0,0.0,0.0,0.0,0.0,0.0,0.0,0.0,0.0,0.0,0.0,0.0,0.0,0.0,0.0,0.0,0.0,0.0,0.0,0.0,0.0,0.0,0.0,0.0,0.0,0.0,0.0,0.0,0.0,0.0,0.0,0.0,0.0,0.0,0.0,0.0,0.0,0.0,0.0,0.0,0.0,0.0,0.0,0.0,0.0,0.0,0.0,6.6216,6.7056,6.763,6.8012,6.8279,6.8279,6.8394,6.8623,6.8623,6.8508,0.0,0.0,0.0,0.0,0.0,0.0,0.0,0.0,0.0,0.0,0.0,0.0,0.0,0.0,0.0,0.0,0.0,0.0,0.0,0.0,0.0,0.0,0.0,0.0,0.0,0.0,0.0,0.0,6.1412,6.1551,6.1482,0.0,0.0,0.0,0.0,0.0,0.0,0.0,0.0,0.0,0.0,6.4567,6.5638,6.5924,6.617,6.6714,6.6822,6.6822,6.6822,6.6822,6.6822,6.6822,0.0,0.0,0.0,0.0,0.0,0.0,0.0,0.0,0.0,0.0,0.0,0.0,0.0,0.0,0.0,0.0,0.0,0.0,0.0,0.0,0.0,0.0,0.0,0.0,0.0,0.0,0.0,6.2776,0.0,0.0,6.1573,0.0,0.0,0.0,0.0,0.0,0.0,0.0,0.0,0.0,0.0,0.0,0.0,0.0,0.0,0.0,0.0,0.0,0.0,0.0,0.0,0.0,0.0,6.7095,6.7859,6.7935,6.8356,6.912,6.9158,6.954,7.0266,7.0342,6.996,6.9158,0.0,0.0,0.0,0.0,0.0,0.0,0.0,0.0,0.0,0.0,0.0,0.0,0.0,0.0,0.0,0.0,0.0,0.0,0.0,0.0,0.0,0.0,0.0,0.0,0.0,0.0,6.1346,6.2091,6.2288,0.0,0.0,0.0,0.0,0.0,0.0,0.0,0.0,0.0,6.4851,6.5605,6.5915,6.584,6.6359,6.675,6.6822,6.6822,6.6822,6.6822,6.6822,6.6822,0.0,0.0,0.0,0.0,0.0,0.0,0.0,0.0,0.0,0.0,0.0,0.0,0.0,0.0,0.0,0.0,0.0,0.0,0.0,0.0,0.0,0.0,0.0,0.0,0.0,0.0,0.0,6.3762,6.3753,0.0,0.0,0.0,0.0,0.0,0.0,0.0,0.0,0.0,0.0,0.0,6.7056,6.7056,0.0,0.0,0.0,0.0,0.0,0.0,0.0,0.0,0.0,0.0,0.0,0.0,6.7897,6.8738,6.9311,6.9693,6.9999,6.9999,7.0151,7.0419,7.0419,7.0037,6.9234,0.0,0.0,0.0,0.0,0.0,0.0,0.0,0.0,0.0,0.0,0.0,0.0,0.0,0.0,0.0,0.0,0.0,0.0,0.0,0.0,0.0,0.0,0.0,0.0,0.0,6.1412,0.0,0.0,0.0,0.0,0.0,0.0,0.0,0.0,0.0,0.0,0.0,6.4861,6.5909,6.6079,6.6245,6.668,6.6837,6.6903,0.0,0.0,0.0,0.0,0.0,0.0,0.0,0.0,0.0,0.0,0.0,0.0,0.0,0.0,6.3599,6.3599,6.3599,6.3671,6.3925,0.0,0.0,0.0,0.0,0.0,0.0,0.0,0.0,0.0,0.0,0.0,0.0,0.0,0.0,6.5482,6.5482,6.5482,0.0,0.0,0.0,0.0,0.0,0.0,0.0,0.0,6.8661,6.8776,6.8776,6.8776,6.8623,0.0,6.8356,6.7056,0.0,0.0,0.0,0.0,0.0,0.0,0.0,0.0,6.8776,6.9578,7.0113,7.0419,7.0419,7.0419,7.0419,7.0419,7.0419,7.0151,6.9655,6.9616,6.9202,0.0,0.0,0.0,0.0,0.0,0.0,0.0,0.0,0.0,0.0,0.0,0.0,0.0,0.0,0.0,0.0,0.0,0.0,0.0,0.0,0.0,0.0,0.0,6.223,0.0,0.0,0.0,0.0,0.0,0.0,0.0,0.0,0.0,6.4228,6.5044,6.6035,6.6806,6.6773,6.6793,6.7249,0.0,0.0,0.0,0.0,0.0,0.0,0.0,6.6822,6.6822,6.6822,6.6605,6.6098,6.5591,6.5229,6.5229,0.0,0.0,6.4504,6.4396,6.4468,6.4758,6.483,6.4903,6.5192,6.5229,6.5229,0.0,0.0,0.0,0.0,0.0,0.0,0.0,0.0,6.7897,6.7897,0.0,6.7859,0.0,0.0,0.0,0.0,6.7973,6.8738,0.0,0.0,6.9999,7.0419,7.0381,7.0381,6.9999,6.9273,6.9234,6.8776,6.7973,6.7935,0.0,0.0,0.0,0.0,0.0,0.0,6.9578,7.0342,7.0419,7.0419,7.0419,7.0419,7.0419,7.0419,7.0419,7.0419,7.0419,7.0381,7.0037,6.9273,6.9131,0.0,0.0,0.0,0.0,0.0,0.0,0.0,0.0,0.0,0.0,0.0,0.0,0.0,0.0,0.0,0.0,0.0,0.0,0.0,0.0,6.3007,0.0,0.0,0.0,0.0,0.0,0.0,0.0,0.0,0.0,0.0,6.6588,6.6617,6.6806,6.7577,0.0,0.0,0.0,0.0,6.6983,6.7019,6.6903,6.6822,6.6822,6.6822,6.6822,6.6822,0.0,0.0,6.6786,6.6786,6.675,6.6786,6.6714,6.6315,6.4794,6.4541,6.4794,6.5482,6.5627,6.5881,6.6569,6.6641,6.6677,6.8858,0.0,0.0,0.0,0.0,6.7553,6.8012,6.8814,6.8814,6.8814,6.882,6.8814,0.0,0.0,0.0,0.0,0.0,0.0,6.9502,7.0075,7.0304,7.0419,7.0419,7.0419,7.0304,7.0075,7.0075,6.9922,6.9693,6.9693,6.9082,6.7935,0.0,0.0,0.0,0.0,6.9578,7.0381,7.0419,7.0419,7.0419,7.0419,7.0419,7.0419,7.0419,7.0419,7.0419,7.0419,7.0304,7.0075,6.9469,0.0,0.0,0.0,0.0,0.0,0.0,0.0,0.0,0.0,0.0,0.0,0.0,0.0,0.0,0.0,0.0,0.0,0.0,0.0,6.2788,6.3288,6.3922,0.0,0.0,0.0,0.0,0.0,0.0,0.0,0.0,0.0,6.7778,6.7635,6.7537,0.0,0.0,6.7579,6.7561,6.7414,6.7247,6.6983,6.6961,0.0,6.6786,6.6822,6.6822,6.6822,6.6822,6.6822,6.6822,6.6822,6.6822,6.6822,6.6822,6.6641,6.6243,6.6098,6.617,6.6424,6.646,6.6496,6.675,6.6822,6.6822,6.9813,6.8902,6.8897,6.889,6.889,6.889,6.9196,6.9693,6.9693,6.966,6.9699,6.9693,6.9393,6.8902,6.8897,0.0,0.0,0.0,6.9922,7.0419,7.0419,7.0419,7.0419,7.0419,7.0419,7.0419,7.0419,7.0419,7.0419,7.0419,6.9884,6.8929,0.0,0.0,6.9655,6.9693,6.9922,7.0381,7.0419,7.0419,7.0419,7.0419,7.0419,7.0419,7.0419,7.0419,7.0419,7.0419,7.0419,7.0419,6.9922,6.9508,0.0,0.0,0.0,0.0,0.0,0.0,0.0,0.0,0.0,0.0,0.0,6.2742,6.2742,0.0,0.0,0.0,6.3929,6.4063,6.4599,6.4849,0.0,0.0,0.0,0.0,0.0,0.0,0.0,6.7981,6.8015,6.8103,6.8464,6.8284,6.807,6.7741,6.7687,6.7687,6.7579,0.0,6.7414,6.7247,6.7076,6.6961,6.6903,6.6845,6.6822,6.6822,6.6822,6.6822,6.6822,6.6822,6.6822,6.6822,6.6822,6.6822,6.6822,6.6822,6.6822,6.6822,6.6822,6.6822,6.6822,6.6822,6.6822,7.0419,7.0419,7.0419,7.0419,7.0419,7.0419,7.0419,7.0419,7.0419,7.0419,7.0419,7.0419,7.0419,7.0419,7.0419,0.0,7.0419,7.0419,7.0419,7.0419,7.0419,7.0419,7.0419,7.0419,7.0419,7.0419,7.0419,7.0419,7.0419,7.0419,7.0419,7.0419,7.0419,7.0419,7.0419,7.0419,7.0419,7.0419,7.0419,7.0419,7.0419,7.0419,7.0419,7.0419,7.0419,7.0419,7.0419,7.0419,7.0419,7.0419,7.0419,7.0042,6.9256,0.0,0.0,0.0,0.0,0.0,0.0,0.0,0.0,0.0,0.0,0.0,0.0,0.0,0.0,0.0,6.6852,0.0,6.7126,6.7009,0.0,0.0,0.0,6.7083,6.7314,6.7392,6.777,6.8603,0.0,0.0,6.8833,6.8726,6.8394,6.781,6.7741,6.7687,6.7687,6.7579,6.7524,6.7506,6.7247,6.7019,6.7019,6.6903,6.6822,6.6822,6.6822,6.6822,6.6822,6.6822,6.6822,6.6822,6.6822,6.6822,6.6822,6.6822,6.6822,6.6822,6.6822,6.6822,6.6822,6.6822,6.6822,7.0419,7.0419,7.0419,7.0419,7.0419,7.0419,7.0419,7.0419,7.0419,7.0419,7.0419,7.0419,7.0419,7.0419,7.0419,7.0419,7.0419,7.0419,7.0419,7.0419,7.0419,7.0419,7.0419,7.0419,7.0419,7.0419,7.0419,7.0419,7.0419,7.0419,7.0419,7.0419,7.0419,7.0419,7.0419,7.0419,7.0419,7.0419,7.0419,7.0419,7.0419,7.0419,7.0419,7.0419,7.0419,7.0419,7.0419,7.0419,7.0419,7.0419,7.0419,7.0304,7.0119,6.9302,0.0,0.0,0.0,0.0,0.0,0.0,0.0,0.0,0.0,6.5908,6.6591,0.0,6.705,0.0,6.7203,6.7126,6.6691,6.6932,0.0,0.0,6.7992,6.8296,6.9133,6.9285,6.9398,6.9662,6.9398,6.9275,6.934,6.8997,6.8633,6.8247,6.7915,6.7687,6.7687,6.7687,6.7633,6.747,6.7303,6.7097,6.6983,6.6903,6.6822,6.6822,6.6822,6.6822,6.6822,6.6822,6.6822,6.6822,6.6822,6.6822,6.6822,6.6822,6.6822,6.6822,6.6822,6.6822,6.6822,6.6822,6.6822,7.0419,7.0419,7.0419,7.0419,7.0419,7.0419,7.0419,7.0419,7.0419,7.0419,7.0419,7.0419,7.0419,7.0419,7.0419,7.0419,7.0419,7.0419,7.0419,7.0419,7.0419,7.0419,7.0419,7.0419,7.0419,7.0419,7.0419,7.0419,7.0419,7.0419,7.0419,7.0419,7.0419,7.0419,7.0419,7.0419,7.0419,7.0419,7.0419,7.0419,7.0419,7.0419,7.0419,7.0419,7.0419,7.0419,7.0419,7.0419,7.0419,7.0419,7.0419,7.0419,7.0419,6.9832,6.9274,0.0,0.0,0.0,0.0,0.0,0.0,0.0,0.0,0.0,0.0,0.0,6.8376,6.8337,6.8376,6.8261,6.7943,6.8183,6.8527,6.898,6.9018,6.9285,6.9966,7.0077,7.0111,7.0144,7.0001,6.9853,6.9661,6.9423,6.9041,6.849,6.8185,6.7967,6.7741,6.7687,6.7687,6.7579,6.7378,6.7154,6.6961,6.6845,6.6822,6.6822,6.6822,6.6822,6.6822,6.6822,6.6822,6.6822,6.6822,6.6822,6.6822,6.6822,6.6822,6.6822,6.6822,6.6822,6.6822,6.6822,6.6822,7.0419,7.0419,7.0419,7.0419,7.0419,7.0419,7.0419,7.0419,7.0419,7.0419,7.0419,7.0419,7.0419,7.0419,7.0419,7.0419,7.0419,7.0419,7.0419,7.0419,7.0419,7.0419,7.0419,7.0419,7.0419,7.0419,7.0419,7.0419,7.0419,7.0419,7.0419,7.0419,7.0419,7.0419,7.0419,7.0419,7.0419,7.0419,7.0419,7.0419,7.0419,7.0419,7.0419,7.0419,7.0419,7.0419,7.0419,7.0419,7.0419,7.0419,7.0419,7.0419,7.0419,7.0289,6.9842,0.0,6.883,0.0,0.0,0.0,0.0,0.0,0.0,0.0,0.0,6.9437,6.9853,6.9738,6.9738,6.9738,6.9738,6.9738,6.9777,6.9891,6.9891,6.9967,7.0149,7.0185,7.0255,7.0386,7.0353,7.0179,6.9928,6.9816,6.9463,6.878,6.8642,6.849,6.7982,6.7757,6.7741,6.7794,6.7433,6.7097,6.6903,6.6822,6.6858,6.6931,6.704,6.7003,6.7184,6.7184,6.7148,6.7148,6.7221,6.7184,6.7112,6.7148,6.7148,6.7221,6.7257,6.7148,6.6895,6.6822,6.6822,7.0419,7.0419,7.0419,7.0419,7.0419,7.0419,7.0419,7.0419,7.0419,7.0419,7.0419,7.0419,7.0419,7.0419,7.0419,7.0419,7.0419,7.0419,7.0419,7.0419,7.0419,7.0419,7.0419,7.0419,7.0419,7.0419,7.0419,7.0419,7.0419,7.0419,7.0419,7.0419,7.0419,7.0419,7.0419,0.0,0.0,0.0,7.0419,7.0419,7.0419,7.0419,7.0419,7.0419,7.0419,0.0,7.0419,7.0419,7.0419,7.0419,7.0419,0.0,0.0,0.0,0.0,0.0,0.0,0.0,0.0,0.0,0.0,0.0,6.9626,6.9626,6.9626,6.9816,6.9891,6.9853,6.9853,6.9853,6.9853,6.9853,6.9891,6.9891,6.9891,6.9929,7.0003,7.0149,7.022,7.0324,7.0073,7.0038,7.0213,7.0038,6.974,6.9544,6.9544,6.9382,6.887,6.8185,6.7863,6.8134,6.7687,6.7134,6.6845,6.6858,6.7184,6.7547,6.7764,6.8017,6.8488,6.8669,6.8706,6.8669,6.8706,6.8706,6.8706,6.8742,6.8633,6.8706,6.8706,6.8343,6.7076,6.6822,6.6822,7.0419,7.0419,7.0419,7.0419,0.0,7.0419,7.0419,7.0419,7.0419,7.0419,7.0419,7.0419,7.0419,7.0419,7.0419,7.0419,7.0419,7.0419,7.0419,7.0419,7.0419,7.0419,7.0419,7.0419,7.0419,7.0419,7.0419,7.0419,7.0419,7.0419,7.0419,7.0419,7.0419,7.0419,7.0419,7.0419,7.0419,7.0419,7.0419,7.0419,7.0419,7.0419,7.0419,7.0419,7.0419,0.0,0.0,0.0,0.0,0.0,0.0,0.0,0.0,7.0319,0.0,7.0185,7.0149,7.0041,6.9929,6.9891,6.9891,6.9891,6.9891,6.9891,6.9891,6.9891,6.9891,6.9891,6.9891,6.9891,6.9891,6.9891,6.9891,6.9891,6.9891,6.9967,7.0039,7.0149,7.0255,7.0319,7.0179,7.0179,7.0386,7.0247,7.0038,6.9816,6.9778,6.9701,6.9423,6.8679,6.8195,6.8498,6.8183,6.7919,6.8051,6.8041,6.8054,6.8488,6.8597,6.8742,6.9104,6.9176,6.9176,6.9176,6.9176,6.9176,6.9176,6.9176,6.9176,6.9176,6.9176,6.8959,6.809,6.7981,6.7981,7.0419,7.0419,7.0419,7.0419,7.0419,7.0419,7.0419,7.0419,7.0419,0.0,0.0,7.0419,7.0419,7.0419,7.0419,7.0419,7.0419,7.0419,7.0419,7.0419,7.0419,7.0419,7.0419,7.0419,7.0419,7.0419,7.0419,7.0419,7.0419,7.0419,7.0419,7.0419,7.0419,7.0419,7.0419,7.0419,7.0419,7.0419,7.0419,7.0419,7.0419,7.0419,7.0419,7.0419,7.0533,7.0572,7.0419,7.0572,7.0572,7.0419,7.0419,7.0419,7.0419,7.0353,7.0289,7.0185,7.0185,7.0114,6.9929,6.9967,6.9929,6.9891,6.9891,6.9891,6.9891,6.9891,6.9891,6.9891,6.9891,6.9891,6.9891,6.9891,6.9891,6.9891,6.9891,6.9967,7.0114,7.0185,7.0255,7.0353,7.0386,7.0419,7.0419,7.0386,7.0281,7.0001,6.9965,6.9967,6.989,6.931,6.8766,6.8678,6.8714,6.8966,6.9223,6.9332,6.9334,6.9419,6.9394,6.943,6.9539,6.9575,6.9575,6.972,6.9611,6.9647,6.9611,6.9684,6.9611,6.9575,6.9575,6.9575,6.9575,6.9575,6.9466,7.0419,7.0419,7.0419,7.0419,7.0419,7.0419,7.0419,7.0419,7.0419,7.0419,7.0419,7.0419,7.0419,7.0419,7.0419,7.0419,7.0419,7.0419,7.0419,7.0419,7.0419,7.0419,7.0419,7.0419,7.0419,7.0419,7.0419,7.0419,7.0419,7.0419,7.0419,7.0419,7.0419,7.0419,7.0419,7.0419,7.0419,7.0419,7.0419,7.0419,7.0419,7.0419,7.0419,7.0457,7.1145,7.1145,7.0457,7.1107,7.1145,7.0457,7.0419,7.0419,7.0419,7.0386,7.0319,7.0185,7.0185,7.0114,6.9929,6.9929,6.9929,6.9891,6.9891,6.9891,6.9891,6.9891,6.9891,6.9891,6.9891,6.9891,6.9891,6.9891,6.9891,6.9891,6.9891,6.9929,6.9967,7.0077,7.0185,7.022,7.0319,7.0419,7.0386,7.0419,7.0386,7.0353,7.0476,7.0484,7.0687,7.0399,6.9714,6.9098,6.9559,6.9853,6.9785,6.9697,7.0004,7.0205,7.0191,7.0372,7.0915,7.0987,7.0987,7.1132,7.1024,7.106,7.1096,7.1168,7.1024,7.0987,7.0987,7.1024,7.0987,7.1024,7.0698,7.0419,7.0419,7.0419,7.0419,7.0419,7.0419,7.0419,7.0419,7.0419,7.0419,7.0419,7.0419,7.0419,7.0419,7.0419,7.0419,7.0419,7.0419,7.0419,7.0419,7.0419,7.0419,7.0419,7.0419,7.0419,7.0419,7.0419,7.0419,7.0419,7.0419,7.0419,7.0419,7.0419,7.0648,7.1068,7.1107,7.1336,7.1794,7.1336,7.1107,7.1107,7.1565,7.1794,7.1794,7.2215,7.2215,7.1833,7.2176,7.2215,7.1833,7.1833,7.1794,7.1794,7.1374,7.104,7.0941,7.0591,7.0182,7.0004,6.9929,6.9891,6.9891,6.9891,6.9891,6.9891,6.9891,6.9891,6.9891,6.9891,6.9891,6.9891,6.9891,6.9891,6.9891,6.9891,6.9929,6.9967,7.0003,7.0114,7.0185,7.0289,7.0353,7.0353,7.0386,7.0648,7.0992,7.145,7.1773,7.175,7.1892,7.1777,7.1156,7.1305,7.1458,7.1231,7.1228,7.1238,7.1076,7.0987,7.1132,7.1458,7.1494,7.1494,7.1494,7.1494,7.1494,7.1494,7.1494,7.1494,7.1494,7.1494,7.1494,7.1494,7.1494,7.1241,7.0419,7.0419,7.0419,7.0419,7.0419,7.0419,7.0419,7.0419,7.0419,7.0419,7.0419,7.0419,7.0419,7.0419,7.0419,7.0419,7.0419,7.0419,7.0419,7.0419,7.0419,7.0419,7.0419,7.0419,7.0419,7.0419,7.0419,7.0419,7.0419,7.0419,7.0495,7.0686,7.0916,7.1336,7.1947,7.1985,7.2329,7.2902,7.252,7.2176,7.2024,7.2635,7.2979,7.3017,7.317,7.317,7.3017,7.317,7.317,7.3017,7.2979,7.2979,7.2979,7.2367,7.1952,7.1811,7.1307,7.0743,7.0343,7.0043,6.9929,6.9891,6.9891,6.9891,6.9891,6.9891,6.9891,6.9891,6.9891,6.9891,6.9891,6.9891,6.9891,6.9891,6.9891,6.9929,6.9966,7.0003,7.0076,7.0185,7.0289,7.0319,7.0358,7.0577,7.1068,7.1909,7.2711,7.3066,7.2889,7.3421,7.372,7.3468,7.3116,7.2795,7.2902,7.2669,7.2255,7.1744,7.1494,7.1458,7.1494,7.1494,7.1494,7.1494,7.1494,7.1494,7.1494,7.1494,7.1494,7.1494,7.1494,7.1494,7.1494,7.1494,7.1494,7.0419,7.0419,7.0419,7.0419,7.0495,7.0457,7.0495,7.0495,7.0419,7.0419,7.0495,7.0419,7.0457,7.0419,7.0419,7.0419,7.0419,7.0419,7.0419,7.0419,7.0419,7.0419,7.0419,7.0419,7.0419,7.0457,7.0457,7.0495,7.0572,7.0495,7.0839,7.1565,7.2367,7.275,7.2864,7.2864,7.2902,7.3017,7.3667,7.3628,7.2941,7.2941,7.2979,7.3017,7.3743,7.3743,7.317,7.3705,7.3743,7.3093,7.3055,7.3017,7.3017,7.2941,7.283,7.2723,7.2609,7.216,7.1255,7.0459,7.0042,6.9891,6.9929,6.9891,6.9891,6.9891,6.9891,6.9891,6.9891,6.9891,6.9891,6.9891,6.9891,6.9891,6.9891,6.9891,6.9929,7.0077,7.0185,7.0185,7.0362,7.0386,7.0539,7.1183,7.1947,7.275,7.359,7.4052,7.4056,7.4593,7.5089,7.5017,7.467,7.3859,7.329,7.3082,7.2687,7.1988,7.1593,7.1531,7.1494,7.1494,7.1494,7.1494,7.1494,7.1494,7.1494,7.1494,7.1494,7.1494,7.1494,7.1494,7.1494,7.1494,7.1494,7.0419,7.0457,7.0959,7.1455,7.1909,7.1947,7.1947,7.1947,7.1947,7.1947,7.1947,7.1947,7.1374,7.0419,7.0419,7.0419,7.0419,7.0419,7.0419,7.0419,7.0419,7.0419,7.0419,7.0419,7.0648,7.1145,7.1183,7.145,7.1871,7.1947,7.2138,7.2444,7.2826,7.3246,7.3667,7.3705,7.3934,7.4469,7.4775,7.4813,7.4507,7.4469,7.4469,7.4507,7.4813,7.4851,7.4545,7.4813,7.4813,7.4507,7.4469,7.4469,7.4469,7.3972,7.367,7.3598,7.3105,7.2615,7.22,7.1822,7.1368,7.0801,7.0688,7.0536,6.9967,6.9967,6.9929,6.9891,6.9891,6.9891,6.9891,6.9891,6.9891,6.9891,6.9891,6.9929,6.9967,7.0041,7.0114,7.0223,7.0709,7.1082,7.1307,7.2334,7.3246,7.3743,7.4431,7.4889,7.5004,7.5271,7.5462,7.5465,7.5171,7.4702,7.398,7.3504,7.3029,7.2349,7.183,7.1494,7.1494,7.1494,7.1494,7.1494,7.1494,7.1494,7.1494,7.1494,7.1494,7.1494,7.1494,7.1494,7.1494,7.1494,7.1494,7.1107,7.1221,7.1799,7.241,7.2979,7.2979,7.2979,7.2979,7.2979,7.2979,7.2979,7.2979,7.2329,7.1221,7.1107,7.1107,7.1107,7.1107,7.1107,7.1107,7.1107,7.1107,7.1107,7.1107,7.145,7.1947,7.2062,7.2367,7.2979,7.3246,7.3323,7.3361,7.3552,7.3972,7.4507,7.4545,7.4851,7.5424,7.5501,7.5501,7.5462,7.5501,7.5501,7.5501,7.5501,7.5501,7.5501,7.5501,7.5501,7.5501,7.5501,7.5501,7.5462,7.4889,7.4545,7.4469,7.3674,7.3181,7.3146,7.292,7.2431,7.1787,7.1673,7.1333,7.0802,7.0612,7.0498,7.0309,7.0233,7.0195,6.9891,6.9891,6.9891,6.9891,6.9891,6.9929,6.9966,7.0155,7.0456,7.0566,7.1395,7.2113,7.2418,7.3365,7.4163,7.4545,7.508,7.5501,7.5501,7.5462,7.5501,7.5501,7.5392,7.5132,7.4664,7.4072,7.3404,7.2724,7.2116,7.1732,7.1557,7.1494,7.1494,7.1494,7.1494,7.1494,7.1494,7.1494,7.1494,7.1494,7.1494,7.1494,7.1494,7.1494,7.1494,7.2893,7.2864,7.2902,7.3017,7.3017,7.3093,7.3055,7.317,7.3093,7.3055,7.3132,7.3093,7.2979,7.2864,7.2902,7.2864,7.2826,7.275,7.2711,7.2711,7.275,7.2826,7.2864,7.2902,7.2864,7.2941,7.2941,7.3017,7.317,7.3781,7.4163,7.4201,7.4851,7.5348,7.5348,7.5348,7.5424,7.5462,7.5501,7.5501,7.5501,7.5501,7.5501,7.5501,7.5501,7.5501,7.5501,7.5501,7.5501,7.5501,7.5501,7.5501,7.5501,7.5424,7.5386,7.531,7.4622,7.4129,7.3982,7.3375,7.2843,7.2621,7.2547,7.2396,7.213,7.2092,7.1788,7.1142,7.1029,7.0763,7.0195,7.0081,7.0005,6.9967,6.9967,7.0043,7.0043,7.0875,7.1291,7.1515,7.2303,7.3136,7.39,7.4125,7.4622,7.5119,7.5462,7.5501,7.5501,7.5501,7.5501,7.5501,7.5427,7.5281,7.4786,7.4374,7.3794,7.3201,7.2724,7.2312,7.1794,7.1494,7.1557,7.1557,7.162,7.162,7.1557,7.1494,7.1494,7.1494,7.1494,7.1494,7.1494,7.1494,7.1494,7.3667,7.3976,7.3858,7.4087,7.4584,7.4584,7.4584,7.4584,7.4584,7.4584,7.4584,7.4584,7.4584,7.4584,7.4584,7.401,7.3055,7.2979,7.2979,7.2979,7.2979,7.2979,7.2979,7.3017,7.3284,7.3705,7.3781,7.4049,7.4584,7.4889,7.5042,7.5042,7.531,7.5501,7.5501,7.5501,7.5501,7.5501,7.5501,7.5501,7.5501,7.5501,7.5501,7.5501,7.5501,7.5501,7.5501,7.5501,7.5501,7.5501,7.5501,7.5501,7.5501,7.5501,7.5501,7.5462,7.5195,7.5042,7.4969,7.4702,7.4246,7.3644,7.357,7.323,7.2662,7.2548,7.2396,7.2015,7.1978,7.1826,7.1522,7.0991,7.0687,7.0725,7.1142,7.1446,7.1636,7.1864,7.2166,7.2427,7.3178,7.4087,7.4736,7.5004,7.5157,7.5424,7.5501,7.5501,7.5501,7.5501,7.5501,7.5501,7.5501,7.5427,7.5281,7.4745,7.4206,7.3841,7.3417,7.3045,7.2632,7.2463,7.252,7.2153,7.2071,7.1891,7.183,7.162,7.162,7.1494,7.1494,7.1494,7.1494,7.1494,7.1494,7.4716,7.5065,7.4861,7.5058,7.5595,7.557,7.5501,7.5501,7.5501,7.5501,7.5501,7.5501,7.5501,7.5501,7.5501,7.4927,7.3858,7.3781,7.3819,7.3781,7.3781,7.3781,7.3781,7.3819,7.4087,7.4545,7.4622,7.4966,7.5424,7.5501,7.5501,7.5501,7.5501,7.5501,7.5501,7.5501,7.5501,7.5501,7.5501,7.5501,7.5501,7.5501,7.5501,7.5501,7.5501,7.5501,7.5501,7.5501,7.5501,7.5501,7.5501,7.5501,7.5501,7.5501,7.5501,7.5501,7.5501,7.5501,7.5501,7.5501,7.5198,7.4666,7.4481,7.4103,7.3459,7.3421,7.3307,7.3003,7.2889,7.2851,7.2432,7.2129,7.1825,7.1674,7.213,7.2472,7.2586,7.2775,7.3192,7.368,7.4243,7.4851,7.5348,7.5462,7.5462,7.5501,7.5501,7.5501,7.5501,7.5501,7.5501,7.5501,7.5501,7.5501,7.5427,7.5095,7.4585,7.4206,7.4026,7.3736,7.3429,7.3327,7.3172,7.2797,7.2556,7.2328,7.213,7.183,7.1744,7.1557,7.1494,7.1494,7.1494,7.1494,7.1494,7.6177,7.6088,7.5964,7.5793,7.581,7.5633,7.5535,7.5501,7.5501,7.5501,7.5501,7.5501,7.5501,7.5501,7.5501,7.5424,7.5271,7.5233,7.5233,7.5233,7.5271,7.5271,7.5271,7.5233,7.5233,7.5348,7.5462,7.5462,7.5501,7.5501,7.5501,7.5501,7.5501,7.5501,7.5501,7.5501,7.5501,7.5501,7.5501,7.5501,7.5501,7.5501,7.5501,7.5501,7.5501,7.5501,7.5501,7.5501,7.5501,7.5501,7.5501,7.5501,7.5501,7.5501,7.5501,7.5501,7.5501,7.5501,7.5501,7.5501,7.5462,7.5348,7.5315,7.5129,7.4978,7.4942,7.4638,7.3992,7.3763,7.3497,7.2926,7.3231,7.3345,7.27,7.2738,7.2852,7.3003,7.3458,7.4255,7.5048,7.531,7.5462,7.5501,7.5501,7.5501,7.5501,7.5501,7.5501,7.5501,7.5501,7.5501,7.5501,7.5501,7.5501,7.5501,7.5427,7.498,7.4544,7.4417,7.4199,7.3869,7.3725,7.3628,7.3327,7.3013,7.2797,7.2576,7.2328,7.2094,7.1951,7.1769,7.1593,7.1494,7.1494,7.1494,7.6482,7.6443,7.6211,7.6018,7.5899,7.5818,7.566,7.5497,7.5501,7.5501,7.5501,7.5501,7.5501,7.5501,7.5501,7.5501,7.5501,7.5501,7.5501,7.5501,7.5501,7.5501,7.5501,7.5501,7.5501,7.5501,7.5501,7.5501,7.5501,7.5501,7.5501,7.5501,7.5501,7.5501,7.5501,7.5501,7.5501,7.5501,7.5501,7.5501,7.5501,7.5501,7.5501,7.5501,7.5501,7.5501,7.5501,7.5501,7.5501,7.5501,7.5501,7.5501,7.5501,7.5501,7.5501,7.5501,7.5501,7.5501,7.5501,7.5501,7.5501,7.5501,7.5465,7.5392,7.532,7.5283,7.5094,7.4752,7.4752,7.4562,7.4371,7.4562,7.4372,7.3536,7.3992,7.4258,7.4296,7.4636,7.494,7.5279,7.5427,7.5501,7.5501,7.5501,7.5501,7.5501,7.5501,7.5501,7.5501,7.5501,7.5501,7.5501,7.5501,7.5501,7.5501,7.5615,7.5474,7.5208,7.5089,7.4967,7.4551,7.4515,7.431,7.4084,7.3753,7.3461,7.3215,7.3037,7.2927,7.2569,7.2372,7.2097,7.1656,7.1675,7.1893,7.6765,7.6741,7.6438,7.6289,7.6121,7.6044,7.5861,7.566,7.5628,7.5599,7.5535,7.5501,7.5501,7.5501,7.5501,7.5501,7.5501,7.5501,7.5501,7.5501,7.5501,7.5501,7.5501,7.5501,7.5501,7.5501,7.5501,7.5501,7.5501,7.5501,7.5501,7.5501,7.5501,7.5501,7.5501,7.5501,7.5501,7.5501,7.5501,7.5501,7.5501,7.5501,7.5501,7.5501,7.5501,7.5501,7.5501,7.5501,7.5501,7.5501,7.5501,7.5501,7.5501,7.5501,7.5501,7.5501,7.5501,7.5501,7.5501,7.5501,7.5501,7.5501,7.5501,7.5501,7.5392,7.5392,7.532,7.5246,7.5209,7.5171,7.5095,7.5171,7.4979,7.4486,7.479,7.5209,7.5284,7.532,7.5356,7.5392,7.5427,7.5501,7.5501,7.5501,7.5501,7.5501,7.5501,7.5501,7.5501,7.5501,7.5501,7.5501,7.5501,7.5501,7.5539,7.5692,7.5886,7.589,7.5817,7.5703,7.5463,7.5835,7.5939,7.5802,7.5539,7.5304,7.5072,7.4773,7.4621,7.3956,7.3349,7.3296,7.3155,7.2781,7.2798,7.6999,7.6948,7.6731,7.6609,7.6516,7.6316,7.6121,7.5918,7.5928,7.5787,7.557,7.557,7.5535,7.5535,7.5501,7.5501,7.5501,7.5501,7.5501,7.5501,7.5501,7.5501,7.5501,7.5501,7.5501,7.5501,7.5501,7.5501,7.5501,7.5501,7.5501,7.5501,7.5501,7.5501,7.5501,7.5501,7.5501,7.5501,7.5501,7.5501,7.5501,7.5501,7.5501,7.5501,7.5501,7.5501,7.5501,7.5501,7.5501,7.5501,7.5501,7.5501,7.5501,7.5501,7.5501,7.5501,7.5501,7.5501,7.5501,7.5501,7.5501,7.5501,7.5501,7.5501,7.5501,7.5501,7.5427,7.5356,7.532,7.5283,7.5247,7.5283,7.5281,7.5281,7.5281,7.532,7.532,7.5427,7.5501,7.5501,7.5501,7.5501,7.5501,7.5501,7.5501,7.5501,7.5501,7.5501,7.5501,7.5501,7.5501,7.5539,7.5615,7.5844,7.5959,7.6532,7.6761,7.684,7.6806,7.6846,7.654,7.6842,7.6986,7.6937,7.696,7.6821,7.6572,7.6169,7.5855,7.5306,7.4994,7.4953,7.4565,7.4044,7.3733,7.6999,7.6999,7.6923,7.6762,7.6626,7.6516,7.6338,7.6108,7.6146,7.5995,7.5786,7.5801,7.5692,7.5497,7.5497,7.5501,7.5532,7.5535,7.5501,7.5501,7.5501,7.5501,7.5501,7.5501,7.5501,7.5501,7.5501,7.5501,7.5501,7.5501,7.5501,7.5501,7.5501,7.5501,7.5501,7.5501,7.5501,7.5501,7.5501,7.5501,7.5501,7.5501,7.5501,7.5501,7.5501,7.5501,7.5501,7.5501,7.5501,7.5501,7.5501,7.5501,7.5501,7.5501,7.5501,7.5501,7.5501,7.5501,7.5501,7.5501,7.5501,7.5501,7.5501,7.5501,7.5501,7.5501,7.5501,7.5427,7.5427,7.5392,7.532,7.5356,7.5427,7.5427,7.5427,7.5427,7.5427,7.5501,7.5501,7.5501,7.5501,7.5501,7.5501,7.5501,7.5501,7.5501,7.5501,7.5501,7.5501,7.5501,7.5501,7.5768,7.5921,7.6227,7.6609,7.7258,7.764,7.7793,7.7948,7.8216,7.7799,7.749,7.7445,7.732,7.7619,7.7641,7.7376,7.7073,7.6798,7.6717,7.6406,7.6117,7.5514,7.4953,7.4712,7.7004,7.6999,7.7011,7.6936,7.6762,7.6762,7.6626,7.6379,7.6359,7.6234,7.6072,7.6052,7.5908,7.5802,7.5802,7.5802,7.5802,7.5802,7.5749,7.5666,7.5532,7.5501,7.5501,7.5501,7.5501,7.5501,7.5501,7.5501,7.5501,7.5501,7.5501,7.5501,7.5501,7.5501,7.5501,7.5501,7.5501,7.5501,7.5501,7.5501,7.5501,7.5501,7.5501,7.5501,7.5501,7.5501,7.5501,7.5501,7.5501,7.5501,7.5501,7.5501,7.5501,7.5501,7.5501,7.5501,7.5501,7.5501,7.5501,7.5501,7.5501,7.5501,7.5501,7.5501,7.5501,7.5501,7.5501,7.5501,7.5501,7.5427,7.5427,7.5465,7.5501,7.5501,7.5501,7.5501,7.5501,7.5501,7.5501,7.5501,7.5501,7.5501,7.5501,7.5501,7.5501,7.5501,7.5501,7.5501,7.5501,7.5501,7.5692,7.5997,7.6418,7.6761,7.7373,7.8022,7.8443,7.8634,7.8939,7.9246,7.8942,7.8443,7.8473,7.8386,7.8462,7.8382,7.8268,7.8268,7.8441,7.8247,7.7768,7.7415,7.6938,7.6253,7.5994,7.6981,7.6983,7.7004,7.6994,7.6999,7.6999,7.6844,7.666,7.6643,7.6477,7.6316,7.625,7.6173,7.6195,7.6118,7.6181,7.6181,7.6132,7.607,7.589,7.5724,7.5566,7.5599,7.5535,7.5501,7.5501,7.5501,7.5501,7.5501,7.5501,7.5501,7.5501,7.5501,7.5501,7.5501,7.5501,7.5501,7.5501,7.5501,7.5501,7.5501,7.5501,7.5501,7.5501,7.573,7.573,7.5768,7.5806,7.5883,7.5806,7.5615,7.5501,7.5501,7.5501,7.5501,7.5501,7.5501,7.5501,7.5501,7.5501,7.5501,7.5501,7.5501,7.5501,7.5501,7.5501,7.5501,7.5501,7.5501,7.5501,7.5501,7.5501,7.5501,7.5501,7.5501,7.5501,7.5501,7.5501,7.5501,7.5501,7.5501,7.5501,7.5501,7.5501,7.5501,7.5501,7.5501,7.5501,7.5615,7.5806,7.6074,7.6456,7.6914,7.7411,7.8099,7.8863,7.9169,7.9474,7.978,8.0048,7.9895,7.9662,7.9727,7.968,7.9258,7.9215,7.9405,7.9556,7.967,7.9507,7.8829,7.8869,7.8865,7.8013,7.7494,7.7095,7.7075,7.7012,7.6985,7.6994,7.6994,7.6972,7.691,7.691,7.6728,7.6567,7.6493,7.6393,7.6217,7.6245,7.6204,7.625,7.6227,7.6157,7.6108,7.589,7.581,7.5756,7.5633,7.5501,7.5501,7.5501,7.5501,7.5501,7.5501,7.5501,7.5501,7.5501,7.5501,7.5501,7.5501,7.5501,7.5501,7.5501,7.5501,7.5501,7.5539,7.5577,7.5692,7.615,7.6418,7.657,7.7105,7.7449,7.7144,7.6303,7.5692,7.5692,7.5653,7.5615,7.5577,7.5539,7.5539,7.5501,7.5501,7.5501,7.5501,7.5501,7.5501,7.5501,7.5501,7.5501,7.5501,7.5501,7.5501,7.5501,7.5501,7.5501,7.5501,7.5501,7.5501,7.5501,7.5501,7.5501,7.5501,7.5501,7.5501,7.5501,7.5501,7.5501,7.5501,7.5539,7.5501,7.5768,7.6112,7.6647,7.7182,7.7755,7.829,7.8863,7.9474,7.9742,7.9933,8.0277,8.0468,8.0354,8.0235,8.0113,8.003,7.9865,7.9903,7.9984,7.9903,7.9784,7.9778,7.9772,7.9645,7.9378,7.9004,7.8663,7.7101,7.7101,7.7075,7.7043,7.7004,7.7004,7.6983,7.6999,7.6999,7.6921,7.6832,7.6805,7.6702,7.6598,7.656,7.6591,7.6534,7.6458,7.6418,7.6295,7.6083,7.5899,7.584,7.5628,7.5501,7.5501,7.5501,7.5501,7.5501,7.5501,7.5501,7.5501,7.5501,7.5501,7.5501,7.5501,7.5501,7.5501,7.5501,7.5501,7.5501,7.5883,7.6341,7.6609,7.7067,7.7335,7.7373,7.7678,7.7946,7.7793,7.7182,7.6685,7.6647,7.6647,7.6456,7.6112,7.6036,7.5806,7.5653,7.5501,7.5501,7.5501,7.5501,7.5501,7.5501,7.5501,7.5501,7.5501,7.5501,7.5501,7.5501,7.5501,7.5501,7.5501,7.5501,7.5501,7.5501,7.5501,7.5501,7.5501,7.5501,7.5501,7.5501,7.5501,7.5539,7.5539,7.6112,7.615,7.6418,7.68,7.7564,7.8137,7.8748,7.9283,7.9704,8.0086,8.0238,8.0315,8.0391,8.0506,8.0431,8.0354,8.0235,8.0154,8.003,8.003,8.0072,7.9988,7.9946,7.9903,7.9903,7.9903,7.9772,7.9509,7.915,7.7101,7.7101,7.7082,7.7098,7.7024,7.7014,7.7004,7.7011,7.7011,7.7011,7.6999,7.6999,7.6948,7.6987,7.6948,7.6987,7.6923,7.6777,7.666,7.6609,7.6266,7.6083,7.5947,7.5756,7.5532,7.5535,7.5501,7.5501,7.5501,7.5501,7.5501,7.5501,7.5501,7.5501,7.5501,7.5501,7.5501,7.5501,7.5692,7.5806,7.5921,7.6494,7.722,7.764,7.8099,7.8213,7.8252,7.8443,7.8519,7.8404,7.8404,7.8404,7.8328,7.8022,7.7755,7.6914,7.6914,7.6685,7.6265,7.5921,7.5768,7.5653,7.5501,7.5501,7.5501,7.5501,7.5501,7.5501,7.5501,7.5501,7.5501,7.5501,7.5501,7.5501,7.5501,7.5501,7.5501,7.5501,7.5501,7.5501,7.5501,7.5501,7.5501,7.5501,7.5577,7.5768,7.6341,7.6838,7.7105,7.7564,7.829,7.8825,7.936,7.9704,8.0162,8.0277,8.0468,8.0506,8.0506,8.0506,8.0506,8.0431,8.0354,8.0275,8.0195,8.0195,8.0154,8.0113,8.0072,7.9992,7.9988,7.9946,7.9903,7.9898,7.96,7.7101,7.7101,7.7095,7.7082,7.7106,7.7059,7.7043,7.7004,7.6994,7.6983,7.6999,7.6999,7.6999,7.6999,7.6999,7.6999,7.6987,7.6923,7.6923,7.6858,7.6573,7.6355,7.6132,7.5947,7.5718,7.5532,7.5497,7.5532,7.5501,7.5501,7.5501,7.5501,7.5501,7.5501,7.5501,7.5501,7.5615,7.5768,7.6188,7.6494,7.6685,7.7335,7.7908,7.829,7.8787,7.9054,7.9245,7.9704,8.0086,8.0086,8.0086,8.0047,7.9704,7.8787,7.8137,7.787,7.7793,7.764,7.7296,7.6838,7.657,7.6341,7.6036,7.5653,7.5615,7.5539,7.5577,7.5501,7.5501,7.5501,7.5501,7.5501,7.5501,7.5501,7.5501,7.5501,7.5501,7.5577,7.5615,7.5653,7.5615,7.5577,7.5692,7.5844,7.6074,7.6418,7.6991,7.7526,7.787,7.8366,7.9054,7.9513,7.9856,8.0162,8.0468,8.043,8.0506,8.0506,8.0506,8.0506,8.0506,8.0506,8.0431,8.0354,8.0275,8.0235,8.0195,8.0195,8.0195,8.0154,8.0072,7.9988,7.9946,7.9903,7.9898,7.7101,7.7101,7.7101,7.7089,7.7075,7.7075,7.7059,7.6995,7.6985,7.7004,7.6983,7.6994,7.7004,7.7004,7.6994,7.6983,7.7022,7.7004,7.7004,7.6944,7.6738,7.657,7.6438,7.6258,7.5975,7.578,7.5749,7.566,7.5497,7.5501,7.5539,7.5501,7.5501,7.5501,7.5615,7.5921,7.6074,7.6303,7.6914,7.7373,7.7449,7.8213,7.8748,7.9321,7.9589,7.9895,8.0009,8.02,8.0468,8.0468,8.0468,8.0506,8.0238,7.9818,7.9092,7.8787,7.8672,7.8443,7.8099,7.7564,7.7411,7.7335,7.6953,7.6838,7.6647,7.6456,7.5997,7.5653,7.5501,7.5501,7.5501,7.5539,7.5501,7.5501,7.5539,7.5577,7.5615,7.5883,7.6036,7.6074,7.5844,7.5883,7.6188,7.6379,7.6609,7.7067,7.7678,7.8137,7.8596,7.9169,7.9742,7.9933,8.02,8.0315,8.0506,8.0506,8.0506,8.0506,8.0506,8.0506,8.0506,8.0506,8.0506,8.0431,8.0392,8.0314,8.0354,8.0354,8.0314,8.0313,8.0154,8.0072,7.9992,7.9946,7.9903,7.7375,7.7375,7.757,7.7603,7.7628,7.7628,7.7614,7.7558,7.7597,7.7648,7.754,7.757,7.7597,7.7558,7.758,7.756,7.7521,7.758,7.7667,7.7648,7.752,7.7283,7.711,7.6924,7.6885,7.6755,7.6707,7.613,7.5642,7.5803,7.5803,7.5921,7.5883,7.5997,7.6265,7.6723,7.6914,7.722,7.7793,7.829,7.8672,7.9169,7.9818,8.0391,8.0506,8.0468,8.043,8.0468,8.0506,8.0506,8.0506,8.0506,8.0506,8.0506,8.02,7.9665,7.9551,7.913,7.8748,7.8328,7.8252,7.8252,7.8061,7.7984,7.7831,7.722,7.6723,7.615,7.6074,7.615,7.6265,7.6074,7.6074,7.6112,7.615,7.6074,7.6341,7.6609,7.6914,7.6723,7.6265,7.6418,7.6953,7.7105,7.7373,7.7908,7.8519,7.8939,7.9398,7.9818,8.0277,8.0315,8.043,8.043,8.0506,8.0506,8.0506,8.0506,8.0506,8.0506,8.0506,8.0506,8.0506,8.0506,8.0468,8.0431,8.0468,8.0468,8.0431,8.0354,8.0195,8.0154,8.0154,8.0034,7.9946,7.8272,7.8311,7.9053,7.9405,7.932,7.9281,7.9353,7.9299,7.9221,7.9361,7.9071,7.9236,7.9174,7.9111,7.9127,7.9227,7.9188,7.908,7.8963,7.8924,7.8935,7.8831,7.883,7.8878,7.832,7.8026,7.8104,7.7139,7.6322,7.6484,7.6641,7.672,7.7179,7.764,7.7409,7.7678,7.7831,7.8022,7.871,7.9436,7.9971,8.02,8.0353,8.0468,8.0506,8.0506,8.0506,8.0506,8.0506,8.0506,8.0506,8.0506,8.0506,8.0506,8.0468,8.0391,8.0353,8.0315,7.9971,7.9474,7.913,7.9016,7.8596,7.8137,7.8061,7.8061,7.7755,7.7793,7.7602,7.7487,7.7411,7.7564,7.764,7.7526,7.7335,7.7411,7.7602,7.7526,7.7793,7.7946,7.764,7.7717,7.8022,7.8022,7.8137,7.8748,7.9283,7.9704,8.0047,8.0353,8.0506,8.0506,8.0506,8.0506,8.0506,8.0506,8.0506,8.0506,8.0506,8.0506,8.0506,8.0506,8.0506,8.0506,8.0506,8.0506,8.0506,8.0468,8.0468,8.0431,8.0314,8.0314,8.0353,8.0195,8.003,7.96,7.9164,7.9522,7.9717,7.9717,7.9717,7.9711,7.9704,7.9704,7.9704,7.9658,7.9658,7.9658,7.9743,7.965,7.965,7.9643,7.9729,7.9658,7.9729,7.9721,7.9656,7.9471,7.9439,7.9228,7.9016,7.8766,7.8309,7.7501,7.7428,7.7624,7.7667,7.79,7.7979,7.8285,7.8555,7.8672,7.8978,7.9513,8.0124,8.043,8.0506,8.0506,8.0506,8.0506,8.0506,8.0506,8.0506,8.0506,8.0506,8.0506,8.0506,8.0506,8.0506,8.0506,8.0506,8.0506,8.0468,8.0391,8.0124,7.9971,7.9933,7.9551,7.9321,7.8901,7.871,7.8481,7.7984,7.7984,7.8061,7.8099,7.8022,7.8022,7.8061,7.8252,7.8175,7.8328,7.8672,7.8748,7.8901,7.9054,7.9054,7.8978,7.8901,7.9016,7.9513,7.9856,8.0086,8.0277,8.043,8.0506,8.0506,8.0506,8.0506,8.0506,8.0506,8.0506,8.0506,8.0506,8.0506,8.0506,8.0506,8.0506,8.0506,8.0506,8.0506,8.0506,8.0506,8.0506,8.0468,8.0469,8.043,8.043,8.0275,8.0113,8.0927,8.0335,8.0341,8.0341,8.0341,8.0341,8.0381,8.0381,8.042,8.0381,8.0341,8.042,8.0413,8.0367,8.0452,8.0524,8.0399,8.0335,8.0341,8.0374,8.0367,8.0438,8.0509,8.0423,8.0218,7.9641,7.9932,7.9602,7.9278,7.9044,7.898,7.8645,7.8922,7.8888,7.9003,7.9351,7.9698,7.9664,8.0161,8.0467,8.0506,8.0506,8.0506,8.0506,8.0506,8.0506,8.0506,8.0506,8.0506,8.0506,8.0506,8.0506,8.0506,8.0506,8.0506,8.0506,8.0506,8.0506,8.0506,8.043,8.0506,8.0506,8.0468,8.0047,7.9704,7.9589,7.9436,7.8863,7.8825,7.8787,7.8672,7.8748,7.8825,7.8901,7.8825,7.8672,7.8672,7.9169,7.9513,7.9665,7.9818,8.0086,7.9971,7.978,7.9933,8.0315,8.0506,8.0506,8.0506,8.0506,8.0506,8.0506,8.0506,8.0506,8.0506,8.0506,8.0506,8.0506,8.0506,8.0506,8.0506,8.0506,8.0506,8.0506,8.0506,8.0506,8.0506,8.0506,8.0506,8.0468,8.0468,8.0469,8.043,8.0275,8.0195,8.2176,8.2137,8.2098,8.2059,8.202,8.2137,8.2059,8.1903,8.1981,8.1942,8.1864,8.202,8.1903,8.1942,8.1819,8.1864,8.2014,8.2098,8.1903,8.1903,8.2098,8.1858,8.1779,8.1726,8.1772,8.1519,8.1243,8.1053,8.1028,8.0469,8.0114,7.9637,7.991,8.0409,8.0413,8.0336,8.0381,8.0384,8.0576,8.0542,8.0505,8.0506,8.0506,8.0506,8.0506,8.0506,8.0506,8.0506,8.0506,8.0506,8.0506,8.0506,8.0506,8.0506,8.0506,8.0506,8.0506,8.0506,8.0506,8.0506,8.0506,8.0506,8.0468,8.043,8.0238,8.0353,8.0277,8.0047,7.9856,8.0009,8.0124,8.0277,7.9895,7.9818,7.9665,7.9704,7.9704,7.9895,8.0238,8.0391,8.0468,8.0506,8.0506,8.02,8.0124,8.0468,8.0506,8.0506,8.0506,8.0506,8.0506,8.0506,8.0506,8.0506,8.0506,8.0506,8.0506,8.0506,8.0506,8.0506,8.0506,8.0506,8.0506,8.0506,8.0506,8.0506,8.0506,8.0506,8.0506,8.0506,8.0506,8.0468,8.0431,8.0392,8.0275,8.2293,8.2293,8.2293,8.2293,8.2293,8.2293,8.2293,8.2293,8.2293,8.2293,8.2293,8.2293,8.2293,8.2293,8.2293,8.2293,8.2293,8.2293,8.2293,8.2293,8.2293,8.2293,8.2293,8.228,8.2171,8.1987,8.1787,8.1639,8.1349,8.1224,8.1008,8.0728,8.0773,8.0817,8.086,8.0826,8.0792,8.0758,8.0723,8.065,8.0578,8.0542,8.0542,8.0542,8.0542,8.0542,8.0542,8.0578,8.0542,8.0506,8.0506,8.0506,8.0506,8.0506,8.0506,8.0506,8.0506,8.0506,8.0506,8.0506,8.0506,8.0506,8.0506,8.0506,8.0506,8.0506,8.0506,8.0468,8.0506,8.0506,8.0468,8.0468,8.0391,8.0468,8.0506,8.0506,8.0506,8.0506,8.0506,8.0468,8.0468,8.0506,8.0506,8.0468,8.0468,8.0506,8.0506,8.0506,8.0506,8.0506,8.0506,8.0506,8.0506,8.0506,8.0506,8.0506,8.0506,8.0506,8.0506,8.0506,8.0506,8.0506,8.0506,8.0506,8.0506,8.0506,8.0506,8.0506,8.0506,8.0506,8.0506,8.0506,8.0468,8.0468,8.0354,8.2293,8.2293,8.2293,8.2293,8.2293,8.2293,8.2293,8.2293,8.2293,8.2293,8.2293,8.2293,8.2293,8.2293,8.2293,8.2293,8.2293,8.2293,8.2293,8.2293,8.2293,8.2293,8.2293,8.2287,8.2226,8.2062,8.1905,8.1717,8.162,8.1323,8.1186,8.1099,8.1054,8.0991,8.0959,8.0926,8.086,8.0826,8.0826,8.0792,8.0685,8.065,8.065,8.065,8.0688,8.0614,8.0614,8.0614,8.0542,8.0543,8.0506,8.0506,8.0506,8.0506,8.0506,8.0506,8.0506,8.0506,8.0506,8.0506,8.0506,8.0506,8.0506,8.0506,8.0506,8.0506,8.0506,8.0506,8.0506,8.0506,8.0506,8.0506,8.0506,8.0506,8.0506,8.0506,8.0506,8.0506,8.0506,8.0506,8.0506,8.0506,8.0506,8.0506,8.0506,8.0506,8.0506,8.0506,8.0506,8.0506,8.0506,8.0506,8.0506,8.0506,8.0506,8.0506,8.0506,8.0506,8.0506,8.0506,8.0506,8.0506,8.0506,8.0506,8.0506,8.0506,8.0506,8.0506,8.0506,8.0506,8.0506,8.0506,8.0506,8.0468,8.0469,8.2293,8.2293,8.2293,8.2293,8.2293,8.2293,8.2293,8.2293,8.2293,8.2293,8.2293,8.2293,8.2293,8.2293,8.2293,8.2293,8.2293,8.2293,8.2293,8.2293,8.2293,8.2293,8.2293,8.2287,8.2287,8.2273,8.2073,8.1934,8.1895,8.1514,8.1362,8.1296,8.1176,8.1061,8.1093,8.1093,8.0991,8.0888,8.0888,8.0822,8.0826,8.0792,8.0792,8.0792,8.0792,8.072,8.0685,8.065,8.0614,8.0505,8.0506,8.0506,8.0506,8.0506,8.0506,8.0506,8.0506,8.0506,8.0506,8.0506,8.0506,8.0506,8.0506,8.0506,8.0506,8.0506,8.0506,8.0506,8.0506,8.0506,8.0506,8.0506,8.0506,8.0506,8.0506,8.0506,8.0506,8.0506,8.0506,8.0506,8.0506,8.0506,8.0506,8.0506,8.0506,8.0506,8.0506,8.0506,8.0506,8.0506,8.0506,8.0506,8.0506,8.0506,8.0506,8.0506,8.0506,8.0506,8.0506,8.0506,8.0506,8.0506,8.0506,8.0506,8.0506,8.0506,8.0506,8.0506,8.0506,8.0506,8.0506,8.0506,8.0506,8.0506,8.0468,8.2293,8.2293,8.2293,8.2293,8.2293,8.2293,8.2293,8.2293,8.2293,8.2293,8.2293,8.2293,8.2293,8.2293,8.2293,8.2293,8.2293,8.2293,8.2293,8.2293,8.2293,8.2293,8.2293,8.2293,8.2293,8.2234,8.2094,8.1999,8.1974,8.164,8.1461,8.135,8.1196,8.1124,8.1093,8.1093,8.1061,8.1023,8.0991,8.0959,8.0893,8.0893,8.0893,8.0855,8.0855,8.0822,8.0788,8.072,8.065,8.0578,8.0505,8.0506,8.0506,8.0506,8.0506,8.0506,8.0506,8.0506,8.0506,8.0506,8.0506,8.0506,8.0506,8.0506,8.0506,8.0506,8.0506,8.0506,8.0506,8.0506,8.0506,8.0506,8.0506,8.0506,8.0506,8.0506,8.0506,8.0506,8.0506,8.0506,8.0506,8.0506,8.0506,8.0506,8.0506,8.0506,8.0506,8.0506,8.0506,8.0506,8.0506,8.0506,8.0506,8.0506,8.0506,8.0506,8.0506,8.0506,8.0506,8.0506,8.0506,8.0506,8.0506,8.0506,8.0506,8.0506,8.0506,8.0506,8.0506,8.0506,8.0506,8.0506,8.0506,8.0506,8.0506,8.2293,8.2293,8.2293,8.2293,8.2293,8.2293,8.2293,8.2293,8.2293,8.2293,8.2293,8.2293,8.2293,8.2293,8.2293,8.2293,8.2293,8.2293,8.2293,8.2293,8.2293,8.2293,8.2293,8.2293,8.2293,8.228,8.2171,8.2094,8.2094,8.177,8.1558,8.1387,8.1196,8.1124,8.1093,8.1093,8.1093,8.1093,8.1061,8.1061,8.0991,8.0959,8.0959,8.0959,8.0959,8.0959,8.0888,8.0822,8.0754,8.065,8.0578,8.0543,8.0543,8.0506,8.0506,8.0506,8.0506,8.0506,8.0506,8.0506,8.0506,8.0506,8.0506,8.0506,8.0506,8.0506,8.0506,8.0506,8.0506,8.0506,8.0506,8.0506,8.0506,8.0506,8.0506,8.0506,8.0506,8.0506,8.0506,8.0506,8.0506,8.0506,8.0506,8.0506,8.0506,8.0506,8.0506,8.0506,8.0506,8.0506,8.0506,8.0506,8.0506,8.0506,8.0506,8.0506,8.0506,8.0506,8.0506,8.0506,8.0506,8.0506,8.0506,8.0506,8.0506,8.0506,8.0506,8.0506,8.0506,8.0506,8.0506,8.0506,8.0506,8.0506,8.0506,8.2293,8.2293,8.2293,8.2293,8.2293,8.2293,8.2293,8.2293,8.2293,8.2293,8.2293,8.2293,8.2293,8.2293,8.2293,8.2293,8.2293,8.2293,8.2293,8.2293,8.2293,8.2293,8.2293,8.2293,8.2293,8.2293,8.228,8.2226,8.2241,8.1987,8.1735,8.1437,8.1253,8.1146,8.1124,8.1093,8.1093,8.1093,8.1093,8.1093,8.1061,8.1061,8.1061,8.1061,8.1061,8.0991,8.0959,8.0926,8.0788,8.0685,8.0614,8.0578,8.0543,8.0506,8.0506,8.0506,8.0506,8.0506,8.0506,8.0506,8.0506,8.0506,8.0506,8.0506,8.0506,8.0506,8.0506,8.0506,8.0506,8.0506,8.0506,8.0506,8.0506,8.0506,8.0506,8.0506,8.0506,8.0506,8.0506,8.0506,8.0506,8.0506,8.0506,8.0506,8.0506,8.0506,8.0506,8.0506,8.0506,8.0506,8.0506,8.0506,8.0506,8.0506,8.0506,8.0506,8.0506,8.0506,8.0506,8.0506,8.0506,8.0506,8.0506,8.0506,8.0506,8.0506,8.0506,8.0506,8.0506,8.0506,8.0506,8.0506,8.0506,8.0506,8.0506,8.2293,8.2293,8.2293,8.2293,8.2293,8.2293,8.2293,8.2293,8.2293,8.2293,8.2293,8.2293,8.2293,8.2293,8.2293,8.2293,8.2293,8.2293,8.2293,8.2293,8.2293,8.2293,8.2293,8.2293,8.2293,8.2293,8.2293,8.2293,8.2273,8.2084,8.1787,8.1437,8.135,8.1253,8.1146,8.1093,8.1093,8.1093,8.1093,8.1093,8.1093,8.1093,8.1093,8.1093,8.1093,8.1061,8.1061,8.0959,8.0855,8.0822,8.0792,8.0723,8.0723,8.0614,8.0542,8.0506,8.0506,8.0506,8.0506,8.0506,8.0506,8.0506,8.0506,8.0506,8.0506,8.0506,8.0506,8.0506,8.0506,8.0506,8.0506,8.0506,8.0506,8.0506,8.0506,8.0506,8.0506,8.0506,8.0506,8.0506,8.0506,8.0506,8.0506,8.0506,8.0506,8.0506,8.0506,8.0506,8.0506,8.0506,8.0506,8.0506,8.0506,8.0506,8.0506,8.0506,8.0506,8.0506,8.0506,8.0506,8.0506,8.0506,8.0506,8.0506,8.0506,8.0506,8.0506,8.0506,8.0506,8.0506,8.0506,8.0506,8.0506,8.0506,8.0506,8.2293,8.2293,8.2293,8.2293,8.2293,8.2293,8.2293,8.2293,8.2293,8.2293,8.2293,8.2293,8.2293,8.2293,8.2293,8.2293,8.2293,8.2293,8.2293,8.2293,8.2293,8.2293,8.2293,8.2293,8.2293,8.2293,8.2293,8.2293,8.2273,8.2123,8.182,8.1679,8.1514,8.135,8.1224,8.1146,8.1093,8.1093,8.1093,8.1093,8.1093,8.1093,8.1093,8.1093,8.1093,8.1093,8.1093,8.0991,8.0959,8.0926,8.086,8.0826,8.0792,8.0723,8.0614,8.058,8.0542,8.0505,8.0506,8.0506,8.0506,8.0506,8.0506,8.0506,8.0506,8.0506,8.0506,8.0506,8.0506,8.0506,8.0506,8.0506,8.0506,8.0506,8.0506,8.0506,8.0506,8.0506,8.0506,8.0506,8.0506,8.0506,8.0506,8.0506,8.0506,8.0506,8.0506,8.0506,8.0506,8.0506,8.0506,8.0506,8.0506,8.0506,8.0506,8.0506,8.0506,8.0506,8.0506,8.0506,8.0506,8.0506,8.0506,8.0506,8.0506,8.0506,8.0506,8.0506,8.0506,8.0506,8.0506,8.0506,8.0506,8.0506,8.0506,8.2293,8.2293,8.2293,8.2293,8.2293,8.2293,8.2293,8.2293,8.2293,8.2293,8.2293,8.2293,8.2293,8.2293,8.2293,8.2293,8.2293,8.2293,8.2293,8.2293,8.2293,8.2293,8.2293,8.2293,8.2293,8.2293,8.2293,8.2293,8.2273,8.2153,8.205,8.1974,8.1679,8.1484,8.1375,8.1224,8.1146,8.1093,8.1093,8.1093,8.1093,8.1093,8.1093,8.1093,8.1093,8.1093,8.1093,8.1061,8.1061,8.0959,8.0926,8.0893,8.0826,8.0792,8.072,8.065,8.0614,8.0542,8.0543,8.0506,8.0506,8.0506,8.0506,8.0506,8.0506,8.0506,8.0506,8.0506,8.0506,8.0506,8.0506,8.0506,8.0506,8.0506,8.0506,8.0506,8.0506,8.0506,8.0506,8.0506,8.0506,8.0506,8.0506,8.0506,8.0506,8.0506,8.0506,8.0506,8.0506,8.0506,8.0506,8.0506,8.0506,8.0506,8.0506,8.0506,8.0506,8.0506,8.0506,8.0506,8.0506,8.0506,8.0506,8.0506,8.0506,8.0506,8.0506,8.0506,8.0506,8.0506,8.0506,8.0506,8.0506,8.0506,8.0506,8.2293,8.2293,8.2293,8.2293,8.2293,8.2293,8.2293,8.2293,8.2293,8.2293,8.2293,8.2293,8.2293,8.2293,8.2293,8.2293,8.2293,8.2293,8.2293,8.2293,8.2293,8.2293,8.2293,8.2293,8.2293,8.2293,8.2293,8.2293,8.2287,8.2226,8.2143,8.1999,8.1804,8.1698,8.1484,8.135,8.1253,8.1146,8.1093,8.1093,8.1093,8.1093,8.1093,8.1093,8.1093,8.1093,8.1093,8.1093,8.1093,8.1061,8.1061,8.1029,8.0893,8.0893,8.0788,8.065,8.0614,8.0578,8.0543,8.0506,8.0506,8.0506,8.0506,8.0506,8.0506,8.0506,8.0506,8.0506,8.0506,8.0506,8.0506,8.0506,8.0506,8.0506,8.0506,8.0506,8.0506,8.0506,8.0506,8.0506,8.0506,8.0506,8.0506,8.0506,8.0506,8.0506,8.0506,8.0506,8.0506,8.0506,8.0506,8.0506,8.0506,8.0506,8.0506,8.0506,8.0506,8.0506,8.0506,8.0506,8.0506,8.0506,8.0506,8.0506,8.0506,8.0506,8.0506,8.0506,8.0506,8.0506,8.0506,8.0506,8.0506,8.0506,8.0506,8.2293,8.2293,8.2293,8.2293,8.2293,8.2293,8.2293,8.2293,8.2293,8.2293,8.2293,8.2293,8.2293,8.2293,8.2293,8.2293,8.2293,8.2293,8.2293,8.2293,8.2293,8.2293,8.2293,8.2293,8.2293,8.2293,8.2293,8.2293,8.2293,8.2287,8.2179,8.2094,8.2062,8.1905,8.162,8.1514,8.1375,8.1253,8.1146,8.1093,8.1093,8.1093,8.1093,8.1093,8.1093,8.1093,8.1093,8.1093,8.1093,8.1093,8.1093,8.1061,8.0991,8.0991,8.0888,8.0788,8.072,8.0688,8.058,8.0543,8.0506,8.0506,8.0506,8.0506,8.0506,8.0506,8.0506,8.0506,8.0506,8.0506,8.0506,8.0506,8.0506,8.0506,8.0506,8.0506,8.0506,8.0506,8.0506,8.0506,8.0506,8.0506,8.0506,8.0506,8.0506,8.0506,8.0506,8.0506,8.0506,8.0506,8.0506,8.0506,8.0506,8.0506,8.0506,8.0506,8.0506,8.0506,8.0506,8.0506,8.0506,8.0506,8.0506,8.0506,8.0506,8.0506,8.0506,8.0506,8.0506,8.0506,8.0506,8.0506,8.0506,8.0506,8.0506,8.2293,8.2293,8.2293,8.2293,8.2293,8.2293,8.2293,8.2293,8.2293,8.2293,8.2293,8.2293,8.2293,8.2293,8.2293,8.2293,8.2293,8.2293,8.2293,8.2293,8.2293,8.2293,8.2293,8.2293,8.2293,8.2293,8.2293,8.2293,8.2293,8.2293,8.2287,8.2241,8.2153,8.2038,8.1881,8.1679,8.1412,8.1323,8.1224,8.1124,8.1093,8.1093,8.1093,8.1093,8.1093,8.1093,8.1093,8.1093,8.1093,8.1093,8.1093,8.1093,8.1093,8.1061,8.0991,8.0893,8.0788,8.072,8.065,8.0542,8.0505,8.0505,8.0506,8.0506,8.0506,8.0506,8.0506,8.0506,8.0506,8.0506,8.0506,8.0506,8.0506,8.0506,8.0506,8.0506,8.0506,8.0506,8.0506,8.0506,8.0506,8.0506,8.0506,8.0506,8.0506,8.0506,8.0506,8.0506,8.0506,8.0506,8.0506,8.0506,8.0506,8.0506,8.0506,8.0506,8.0506,8.0506,8.0506,8.0506,8.0506,8.0506,8.0506,8.0506,8.0506,8.0506,8.0506,8.0506,8.0506,8.0506,8.0506,8.0506,8.0506,8.0506,8.0506,8.2293,8.2293,8.2293,8.2293,8.2293,8.2293,8.2293,8.2293,8.2293,8.2293,8.2293,8.2293,8.2293,8.2293,8.2293,8.2293,8.2293,8.2293,8.2293,8.2293,8.2293,8.2293,8.2293,8.2293,8.2293,8.2293,8.2293,8.2293,8.2293,8.2293,8.2293,8.2287,8.2287,8.2153,8.1974,8.1753,8.1558,8.1437,8.128,8.1124,8.1093,8.1093,8.1093,8.1093,8.1093,8.1093,8.1093,8.1093,8.1093,8.1093,8.1093,8.1093,8.1093,8.1093,8.1023,8.0959,8.0893,8.086,8.0758,8.065,8.0614,8.0578,8.0542,8.0505,8.0543,8.0506,8.0506,8.0506,8.0506,8.0506,8.0506,8.0506,8.0506,8.0506,8.0506,8.0506,8.0506,8.0506,8.0506,8.0506,8.0506,8.0506,8.0506,8.0506,8.0506,8.0506,8.0506,8.0506,8.0506,8.0506,8.0506,8.0506,8.0506,8.0506,8.0506,8.0506,8.0506,8.0506,8.0506,8.0506,8.0506,8.0506,8.0506,8.0506,8.0506,8.0506,8.0506,8.0506,8.0506,8.0506,8.0506,8.0506,8.0506,8.0506,8.0506]},{"header":{"parameterUnit":"m.s-1","parameterCategory":1,"la1":31.0,"la2":29.5877,"lo1":-88.7671,"lo2":-86.6584,"dy":0.0162,"dx":0.0185,"nx":115,"ny":88,"refTime":"2023-04-18T06:00:00:Z","depth":0,"parameterNumber":3,"parameterNumberName":"V-component_of_WINDS"},"data":[0.0,0.0,0.0,0.0,0.0,0.0,0.0,0.0,0.0,0.0,0.0,0.0,0.0,0.0,0.0,0.0,0.0,0.0,0.0,0.0,0.0,0.0,0.0,0.0,0.0,0.0,0.0,0.0,0.0,0.0,0.0,0.0,0.0,0.0,0.0,0.0,0.0,0.0,0.0,0.0,0.0,0.0,0.0,0.0,0.0,0.0,0.0,0.0,0.0,0.0,0.0,0.0,0.0,0.0,0.0,0.0,0.0,0.0,0.0,0.0,0.0,0.0,0.0,0.0,0.0,0.0,0.0,0.0,0.0,0.0,0.0,0.0,0.0,0.0,0.0,0.0,0.0,0.0,0.0,0.0,0.0,0.0,0.0,0.0,0.0,0.0,0.0,0.0,0.0,0.0,0.0,0.0,0.0,0.0,0.0,0.0,0.0,0.0,0.0,0.0,0.0,0.0,0.0,0.0,0.0,0.0,0.0,0.0,0.0,0.0,0.0,0.0,0.0,0.0,0.0,0.0,0.0,0.0,0.0,0.0,0.0,0.0,0.0,0.0,0.0,0.0,0.0,0.0,0.0,0.0,0.0,0.0,0.0,0.0,0.0,0.0,0.0,0.0,0.0,0.0,0.0,0.0,0.0,0.0,0.0,0.0,0.0,0.0,0.0,0.0,0.0,0.0,0.0,0.0,0.0,0.0,0.0,0.0,0.0,0.0,0.0,0.0,0.0,0.0,0.0,0.0,0.0,0.0,0.0,0.0,0.0,0.0,0.0,0.0,0.0,0.0,0.0,0.0,0.0,0.0,0.0,0.0,0.0,0.0,0.0,0.0,0.0,0.0,0.0,0.0,0.0,0.0,0.0,0.0,0.0,0.0,0.0,0.0,0.0,0.0,0.0,0.0,0.0,0.0,0.0,0.0,0.0,0.0,0.0,0.0,0.0,0.0,0.0,0.0,0.0,0.0,0.0,0.0,0.0,0.0,0.0,0.0,0.0,0.0,0.0,0.0,0.0,0.0,0.0,0.0,0.0,0.0,0.0,0.0,0.0,0.0,0.0,0.0,0.0,0.0,0.0,0.0,0.0,0.0,0.0,0.0,0.0,0.0,0.0,0.0,0.0,0.0,0.0,0.0,0.0,0.0,0.0,0.0,0.0,0.0,0.0,0.0,0.0,0.0,0.0,0.0,0.0,0.0,0.0,0.0,0.0,0.0,0.0,0.0,0.0,0.0,0.0,0.0,0.0,0.0,0.0,0.0,0.0,0.0,0.0,0.0,0.0,0.0,0.0,0.0,0.0,0.0,0.0,0.0,0.0,0.0,0.0,0.0,0.0,0.0,0.0,0.0,0.0,0.0,0.0,0.0,0.0,0.0,0.0,0.0,0.0,0.0,0.0,0.0,0.0,0.0,0.0,0.0,0.0,0.0,0.0,0.0,0.0,0.0,0.0,0.0,0.0,0.0,0.0,0.0,0.0,0.0,0.0,0.0,0.0,0.0,0.0,0.0,0.0,0.0,0.0,0.0,0.0,0.0,0.0,0.0,0.0,0.0,0.0,0.0,0.0,0.0,0.0,0.0,0.0,0.0,0.0,0.0,0.0,0.0,0.0,0.0,0.0,0.0,0.0,0.0,0.0,0.0,0.0,0.0,0.0,0.0,0.0,0.0,0.0,0.0,0.0,0.0,0.0,0.0,0.0,0.0,0.0,0.0,0.0,0.0,0.0,0.0,0.0,0.0,0.0,0.0,0.0,0.0,0.0,0.0,0.0,0.0,0.0,0.0,0.0,0.0,0.0,0.0,0.0,0.0,0.0,0.0,0.0,0.0,0.0,0.0,0.0,0.0,0.0,0.0,0.0,0.0,0.0,0.0,0.0,0.0,0.0,0.0,0.0,0.0,0.0,0.0,0.0,0.0,0.0,0.0,0.0,0.0,0.0,0.0,0.0,0.0,0.0,0.0,0.0,0.0,0.0,0.0,0.0,0.0,0.0,0.0,0.0,0.0,0.0,0.0,0.0,0.0,0.0,0.0,0.0,0.0,0.0,0.0,0.0,0.0,0.0,0.0,0.0,0.0,0.0,0.0,0.0,0.0,0.0,0.0,0.0,0.0,0.0,0.0,0.0,0.0,0.0,0.0,0.0,0.0,0.0,0.0,0.0,0.0,0.0,0.0,0.0,0.0,0.0,0.0,0.0,0.0,0.0,0.0,0.0,0.0,0.0,0.0,0.0,0.0,0.0,0.0,0.0,0.0,0.0,0.0,0.0,0.0,0.0,0.0,0.0,0.0,0.0,0.0,0.0,0.0,0.0,0.0,0.0,0.0,0.0,0.0,0.0,0.0,0.0,0.0,0.0,0.0,0.0,0.0,0.0,0.0,0.0,0.0,0.0,0.0,0.0,0.0,0.0,0.0,0.0,0.0,0.0,0.0,0.0,0.0,0.0,0.0,0.0,0.0,0.0,0.0,0.0,0.0,0.0,0.0,0.0,0.0,0.0,0.0,0.0,0.0,0.0,0.0,0.0,0.0,0.0,0.0,0.0,0.0,0.0,0.0,0.0,0.0,0.0,0.0,0.0,0.0,0.0,0.0,0.0,0.0,0.0,0.0,0.0,0.0,0.0,0.0,0.0,0.0,0.0,0.0,0.0,0.0,0.0,0.0,0.0,0.0,0.0,0.0,0.0,0.0,0.0,0.0,0.0,0.0,0.0,0.0,0.0,0.0,0.0,0.0,0.0,0.0,0.0,0.0,0.0,0.0,0.0,0.0,0.0,0.0,0.0,0.0,0.0,0.0,0.0,0.0,0.0,0.0,0.0,0.0,0.0,0.0,0.0,0.0,0.0,0.0,0.0,0.0,0.0,0.0,0.0,0.0,0.0,0.0,0.0,0.0,0.0,0.0,0.0,0.0,0.0,0.0,0.0,0.0,0.0,0.0,0.0,0.0,0.0,0.0,0.0,0.0,0.0,0.0,0.0,0.0,0.0,0.0,0.0,0.0,0.0,0.0,0.0,0.0,0.0,0.0,0.0,0.0,0.0,0.0,0.0,0.0,0.0,0.0,0.0,0.0,0.0,0.0,0.0,0.0,0.0,0.0,0.0,0.0,0.0,0.0,0.0,0.0,0.0,0.0,0.0,0.0,0.0,0.0,0.0,0.0,0.0,0.0,0.0,0.0,0.0,0.0,0.0,0.0,0.0,0.0,0.0,0.0,0.0,0.0,0.0,0.0,0.0,0.0,0.0,0.0,0.0,0.0,0.0,0.0,0.0,0.0,0.0,0.0,0.0,0.0,0.0,0.0,0.0,0.0,0.0,0.0,0.0,0.0,0.0,0.0,0.0,0.0,0.0,0.0,0.0,0.0,0.0,0.0,0.0,0.0,0.0,0.0,0.0,0.0,0.0,0.0,0.0,0.0,0.0,0.0,0.0,0.0,0.0,0.0,0.0,0.0,0.0,0.0,0.0,0.0,0.0,0.0,0.0,0.0,0.0,0.0,0.0,0.0,0.0,0.0,0.0,0.0,0.0,0.0,0.0,0.0,0.0,0.0,0.0,0.0,0.0,0.0,0.0,0.0,0.0,0.0,0.0,0.0,0.0,0.0,0.0,0.0,0.0,0.0,0.0,0.0,0.0,0.0,0.0,0.0,0.0,0.0,0.0,0.0,0.0,0.0,0.0,0.0,0.0,0.0,0.0,0.0,0.0,0.0,0.0,0.0,0.0,0.0,0.0,0.0,0.0,0.0,0.0,0.0,0.0,0.0,0.0,0.0,0.0,0.0,0.0,0.0,0.0,0.0,0.0,0.0,0.0,0.0,0.0,0.0,0.0,0.0,0.0,0.0,0.0,0.0,0.0,0.0,0.0,0.0,0.0,0.0,0.0,0.0,0.0,0.0,0.0,0.0,0.0,0.0,0.0,0.0,0.0,0.0,0.0,0.0,0.0,0.0,0.0,0.0,0.0,0.0,0.0,0.0,0.0,0.0,0.0,0.0,0.0,0.0,0.0,0.0,0.0,0.0,0.0,0.0,0.0,0.0,0.0,0.0,0.0,0.0,0.0,0.0,0.0,0.0,0.0,0.0,0.0,0.0,0.0,0.0,0.0,0.0,0.0,0.0,0.0,0.0,0.0,0.0,0.0,0.0,0.0,0.0,0.0,0.0,0.0,0.0,0.0,0.0,0.0,0.0,0.0,0.0,0.0,0.0,0.0,0.0,0.0,0.0,0.0,0.0,0.0,0.0,0.0,0.0,0.0,0.0,0.0,0.0,0.0,0.0,0.0,0.0,0.0,0.0,-1.7582,0.0,0.0,0.0,0.0,0.0,0.0,0.0,0.0,0.0,0.0,0.0,0.0,0.0,0.0,0.0,0.0,0.0,0.0,0.0,0.0,0.0,0.0,0.0,0.0,0.0,0.0,0.0,0.0,0.0,0.0,0.0,0.0,0.0,0.0,0.0,0.0,0.0,0.0,0.0,0.0,0.0,0.0,0.0,0.0,0.0,0.0,0.0,0.0,0.0,0.0,0.0,0.0,0.0,0.0,0.0,0.0,0.0,0.0,0.0,0.0,0.0,0.0,0.0,0.0,0.0,0.0,0.0,0.0,0.0,0.0,0.0,0.0,0.0,0.0,0.0,0.0,0.0,0.0,0.0,0.0,0.0,0.0,0.0,0.0,0.0,0.0,0.0,0.0,0.0,0.0,0.0,0.0,0.0,0.0,0.0,0.0,0.0,0.0,0.0,0.0,0.0,0.0,0.0,0.0,0.0,0.0,0.0,0.0,0.0,0.0,-1.7265,-1.716,-1.7265,-1.7384,-1.7384,0.0,0.0,0.0,0.0,0.0,0.0,0.0,0.0,0.0,0.0,0.0,0.0,0.0,0.0,0.0,0.0,0.0,0.0,0.0,0.0,0.0,0.0,0.0,0.0,0.0,0.0,0.0,0.0,0.0,0.0,0.0,0.0,0.0,0.0,0.0,0.0,0.0,0.0,0.0,0.0,0.0,0.0,0.0,0.0,0.0,0.0,0.0,0.0,0.0,0.0,0.0,0.0,0.0,0.0,0.0,0.0,0.0,0.0,0.0,0.0,0.0,0.0,0.0,0.0,0.0,0.0,0.0,0.0,0.0,0.0,0.0,0.0,0.0,0.0,0.0,0.0,0.0,0.0,0.0,0.0,0.0,0.0,0.0,0.0,0.0,0.0,0.0,0.0,0.0,0.0,0.0,0.0,0.0,0.0,0.0,0.0,0.0,0.0,0.0,0.0,0.0,0.0,0.0,0.0,0.0,0.0,0.0,0.0,0.0,0.0,0.0,0.0,-1.6961,-1.7173,-1.7173,0.0,0.0,0.0,0.0,0.0,0.0,0.0,0.0,0.0,0.0,0.0,0.0,0.0,0.0,0.0,0.0,0.0,0.0,0.0,0.0,0.0,0.0,0.0,0.0,0.0,0.0,0.0,0.0,0.0,0.0,0.0,0.0,0.0,0.0,0.0,0.0,0.0,0.0,0.0,0.0,0.0,0.0,0.0,0.0,0.0,0.0,0.0,0.0,0.0,0.0,0.0,0.0,0.0,0.0,0.0,0.0,0.0,0.0,0.0,0.0,0.0,0.0,0.0,0.0,0.0,0.0,0.0,0.0,0.0,0.0,0.0,0.0,0.0,0.0,0.0,0.0,0.0,0.0,0.0,0.0,0.0,0.0,0.0,0.0,0.0,0.0,0.0,0.0,0.0,0.0,0.0,0.0,0.0,0.0,0.0,0.0,0.0,0.0,0.0,0.0,0.0,0.0,0.0,0.0,0.0,0.0,0.0,0.0,0.0,0.0,-1.6723,-1.6723,-1.6736,0.0,-1.7173,0.0,0.0,0.0,0.0,0.0,0.0,0.0,0.0,0.0,0.0,0.0,0.0,0.0,0.0,0.0,0.0,0.0,0.0,0.0,0.0,0.0,0.0,0.0,0.0,0.0,0.0,0.0,0.0,0.0,0.0,0.0,0.0,0.0,0.0,0.0,0.0,0.0,0.0,0.0,0.0,0.0,0.0,0.0,0.0,0.0,0.0,0.0,0.0,0.0,0.0,0.0,0.0,0.0,0.0,0.0,0.0,0.0,0.0,0.0,0.0,0.0,0.0,0.0,0.0,0.0,0.0,0.0,0.0,0.0,0.0,0.0,0.0,0.0,0.0,0.0,0.0,0.0,0.0,0.0,0.0,0.0,0.0,0.0,0.0,0.0,0.0,0.0,0.0,0.0,0.0,0.0,0.0,0.0,0.0,0.0,0.0,0.0,0.0,0.0,0.0,0.0,0.0,0.0,0.0,0.0,0.0,0.0,0.0,0.0,0.0,-1.6418,-1.6205,-1.6418,-1.663,0.0,0.0,0.0,0.0,0.0,0.0,0.0,0.0,0.0,0.0,0.0,0.0,0.0,0.0,0.0,0.0,0.0,0.0,0.0,0.0,0.0,0.0,0.0,0.0,0.0,0.0,0.0,0.0,0.0,0.0,0.0,0.0,0.0,0.0,0.0,0.0,0.0,0.0,0.0,0.0,0.0,0.0,0.0,0.0,0.0,0.0,0.0,0.0,0.0,0.0,0.0,0.0,0.0,0.0,0.0,0.0,0.0,0.0,0.0,0.0,0.0,0.0,0.0,0.0,0.0,0.0,0.0,0.0,0.0,0.0,0.0,0.0,0.0,0.0,0.0,0.0,0.0,0.0,0.0,0.0,0.0,0.0,0.0,0.0,0.0,0.0,0.0,0.0,0.0,0.0,0.0,0.0,0.0,0.0,0.0,0.0,0.0,0.0,0.0,0.0,0.0,0.0,0.0,0.0,0.0,0.0,0.0,0.0,0.0,0.0,-1.5897,-1.5897,-1.5684,-1.5897,-1.6217,-1.6418,0.0,0.0,0.0,0.0,0.0,0.0,0.0,0.0,0.0,0.0,0.0,0.0,0.0,0.0,0.0,0.0,0.0,0.0,0.0,0.0,0.0,0.0,0.0,0.0,0.0,0.0,0.0,0.0,0.0,0.0,0.0,0.0,0.0,0.0,0.0,0.0,0.0,0.0,0.0,0.0,0.0,0.0,0.0,0.0,0.0,0.0,0.0,0.0,0.0,0.0,0.0,0.0,0.0,0.0,0.0,0.0,0.0,0.0,0.0,0.0,0.0,0.0,0.0,0.0,0.0,0.0,0.0,0.0,0.0,0.0,0.0,0.0,0.0,0.0,0.0,0.0,0.0,0.0,0.0,0.0,0.0,0.0,0.0,0.0,0.0,0.0,0.0,0.0,0.0,0.0,0.0,0.0,0.0,0.0,0.0,0.0,0.0,0.0,0.0,0.0,0.0,0.0,0.0,0.0,0.0,0.0,0.0,0.0,-1.5053,-1.5053,-1.5041,-1.5053,-1.5374,-1.5696,0.0,0.0,0.0,0.0,0.0,0.0,0.0,0.0,0.0,0.0,0.0,0.0,0.0,0.0,0.0,0.0,0.0,0.0,0.0,0.0,0.0,0.0,0.0,0.0,0.0,0.0,0.0,0.0,0.0,0.0,0.0,0.0,0.0,0.0,0.0,0.0,0.0,0.0,0.0,0.0,0.0,0.0,0.0,0.0,0.0,0.0,0.0,0.0,0.0,0.0,0.0,0.0,0.0,0.0,0.0,0.0,0.0,0.0,0.0,0.0,0.0,0.0,0.0,0.0,0.0,0.0,0.0,0.0,0.0,0.0,0.0,0.0,0.0,0.0,0.0,0.0,0.0,0.0,0.0,0.0,0.0,0.0,0.0,0.0,0.0,0.0,0.0,0.0,0.0,0.0,0.0,0.0,0.0,0.0,0.0,0.0,0.0,0.0,0.0,0.0,0.0,0.0,0.0,0.0,0.0,0.0,0.0,0.0,0.0,-1.541,-1.541,-1.5421,-1.541,-1.5482,-1.5608,0.0,0.0,0.0,0.0,0.0,0.0,0.0,0.0,0.0,0.0,0.0,0.0,0.0,0.0,0.0,0.0,0.0,0.0,0.0,0.0,0.0,0.0,0.0,0.0,0.0,0.0,0.0,0.0,0.0,0.0,0.0,0.0,0.0,0.0,0.0,0.0,0.0,0.0,0.0,0.0,0.0,0.0,0.0,0.0,0.0,0.0,0.0,0.0,0.0,0.0,0.0,0.0,0.0,0.0,0.0,0.0,0.0,0.0,0.0,0.0,0.0,0.0,0.0,0.0,0.0,0.0,0.0,0.0,0.0,0.0,0.0,0.0,0.0,0.0,0.0,0.0,0.0,0.0,0.0,0.0,0.0,0.0,0.0,0.0,0.0,0.0,0.0,0.0,0.0,0.0,0.0,0.0,0.0,0.0,0.0,0.0,0.0,0.0,0.0,0.0,0.0,0.0,0.0,0.0,0.0,0.0,0.0,0.0,0.0,-1.5456,0.0,-1.5456,-1.5456,-1.54,-1.5532,0.0,0.0,0.0,0.0,0.0,0.0,0.0,0.0,0.0,0.0,0.0,0.0,0.0,0.0,0.0,0.0,0.0,0.0,0.0,0.0,0.0,0.0,0.0,0.0,0.0,0.0,0.0,0.0,0.0,0.0,0.0,0.0,0.0,0.0,0.0,0.0,0.0,0.0,0.0,0.0,0.0,0.0,0.0,0.0,0.0,0.0,0.0,0.0,0.0,0.0,0.0,0.0,0.0,0.0,0.0,0.0,0.0,0.0,0.0,0.0,0.0,0.0,0.0,0.0,0.0,0.0,0.0,0.0,0.0,0.0,0.0,0.0,0.0,0.0,0.0,0.0,0.0,0.0,0.0,0.0,0.0,0.0,0.0,0.0,0.0,0.0,0.0,0.0,0.0,0.0,0.0,0.0,0.0,0.0,0.0,0.0,0.0,0.0,0.0,0.0,0.0,0.0,0.0,0.0,0.0,0.0,0.0,0.0,-1.4912,-1.4902,-1.4902,-1.4923,-1.4891,-1.5128,-1.5456,0.0,0.0,0.0,0.0,0.0,0.0,0.0,0.0,0.0,0.0,0.0,0.0,0.0,0.0,0.0,0.0,0.0,0.0,0.0,0.0,0.0,0.0,0.0,0.0,0.0,0.0,0.0,0.0,0.0,0.0,0.0,0.0,0.0,0.0,0.0,0.0,0.0,0.0,0.0,0.0,0.0,0.0,0.0,0.0,0.0,0.0,0.0,0.0,0.0,0.0,0.0,0.0,0.0,0.0,0.0,0.0,0.0,0.0,0.0,0.0,0.0,0.0,0.0,0.0,0.0,0.0,0.0,0.0,0.0,0.0,0.0,0.0,0.0,0.0,0.0,0.0,0.0,0.0,0.0,0.0,0.0,0.0,0.0,0.0,0.0,0.0,0.0,0.0,0.0,0.0,0.0,0.0,0.0,0.0,0.0,0.0,0.0,0.0,0.0,0.0,0.0,0.0,0.0,0.0,0.0,0.0,0.0,0.0,0.0,-1.4682,-1.4672,-1.479,-1.5014,-1.4982,-1.5243,0.0,0.0,0.0,0.0,0.0,0.0,0.0,0.0,0.0,0.0,0.0,0.0,0.0,0.0,0.0,0.0,0.0,0.0,0.0,0.0,0.0,0.0,0.0,0.0,0.0,0.0,0.0,0.0,0.0,0.0,0.0,0.0,0.0,0.0,0.0,0.0,0.0,0.0,0.0,0.0,0.0,0.0,0.0,0.0,0.0,0.0,0.0,0.0,0.0,0.0,0.0,0.0,0.0,0.0,0.0,0.0,0.0,0.0,0.0,0.0,0.0,0.0,0.0,0.0,0.0,0.0,0.0,0.0,0.0,0.0,0.0,0.0,0.0,0.0,0.0,0.0,0.0,0.0,0.0,0.0,0.0,0.0,0.0,0.0,0.0,0.0,0.0,0.0,0.0,0.0,0.0,0.0,0.0,0.0,0.0,0.0,0.0,0.0,0.0,0.0,0.0,0.0,0.0,0.0,0.0,0.0,0.0,0.0,0.0,-1.4166,-1.4334,-1.465,-1.5003,-1.4908,-1.515,-1.5729,0.0,0.0,0.0,0.0,0.0,0.0,0.0,0.0,0.0,0.0,0.0,0.0,0.0,0.0,0.0,0.0,0.0,0.0,0.0,0.0,0.0,0.0,0.0,0.0,0.0,0.0,0.0,0.0,0.0,0.0,0.0,0.0,0.0,0.0,0.0,0.0,0.0,0.0,0.0,0.0,0.0,0.0,0.0,0.0,0.0,0.0,0.0,0.0,0.0,0.0,0.0,0.0,0.0,0.0,0.0,0.0,0.0,0.0,0.0,0.0,0.0,0.0,0.0,0.0,0.0,0.0,0.0,0.0,0.0,0.0,0.0,0.0,0.0,0.0,0.0,0.0,0.0,0.0,0.0,0.0,0.0,0.0,0.0,0.0,0.0,0.0,0.0,0.0,0.0,0.0,0.0,0.0,0.0,0.0,0.0,0.0,0.0,0.0,0.0,0.0,0.0,0.0,0.0,0.0,0.0,0.0,0.0,0.0,-1.3491,-1.3961,-1.4364,-1.4692,-1.4858,-1.5227,0.0,0.0,0.0,0.0,0.0,0.0,0.0,0.0,0.0,0.0,0.0,0.0,0.0,0.0,0.0,0.0,0.0,0.0,0.0,0.0,0.0,0.0,0.0,0.0,0.0,0.0,0.0,0.0,0.0,0.0,0.0,0.0,0.0,0.0,0.0,0.0,0.0,0.0,0.0,0.0,0.0,0.0,0.0,0.0,0.0,0.0,0.0,0.0,0.0,0.0,0.0,0.0,0.0,0.0,0.0,0.0,0.0,0.0,0.0,0.0,0.0,0.0,0.0,0.0,0.0,0.0,0.0,0.0,0.0,0.0,0.0,0.0,0.0,0.0,0.0,0.0,0.0,0.0,0.0,0.0,0.0,0.0,0.0,0.0,0.0,0.0,0.0,0.0,0.0,0.0,0.0,0.0,0.0,0.0,0.0,0.0,0.0,0.0,0.0,0.0,0.0,0.0,0.0,0.0,0.0,0.0,0.0,0.0,0.0,-1.3618,-1.3578,-1.3822,-1.418,-1.4586,-1.4898,0.0,0.0,0.0,0.0,0.0,0.0,0.0,0.0,0.0,0.0,0.0,0.0,0.0,0.0,0.0,0.0,0.0,0.0,0.0,0.0,0.0,0.0,0.0,0.0,0.0,0.0,0.0,0.0,0.0,0.0,0.0,0.0,0.0,0.0,0.0,0.0,0.0,0.0,0.0,0.0,0.0,0.0,0.0,0.0,0.0,0.0,0.0,0.0,0.0,0.0,0.0,0.0,0.0,0.0,0.0,0.0,0.0,0.0,0.0,0.0,0.0,0.0,0.0,0.0,0.0,0.0,0.0,0.0,0.0,0.0,0.0,0.0,0.0,0.0,0.0,0.0,0.0,0.0,0.0,0.0,0.0,0.0,0.0,0.0,0.0,0.0,0.0,0.0,0.0,0.0,0.0,0.0,0.0,0.0,0.0,0.0,0.0,0.0,0.0,0.0,0.0,0.0,0.0,0.0,0.0,0.0,0.0,0.0,-1.3419,-1.3601,-1.3571,-1.3609,-1.3828,-1.4253,-1.4769,0.0,0.0,0.0,0.0,0.0,0.0,0.0,0.0,0.0,0.0,0.0,0.0,0.0,0.0,0.0,0.0,0.0,0.0,0.0,0.0,0.0,0.0,0.0,0.0,0.0,0.0,0.0,0.0,0.0,0.0,0.0,0.0,0.0,0.0,0.0,0.0,0.0,0.0,0.0,0.0,0.0,0.0,0.0,0.0,0.0,0.0,0.0,0.0,0.0,0.0,0.0,0.0,0.0,0.0,0.0,0.0,0.0,0.0,0.0,0.0,0.0,0.0,0.0,0.0,0.0,0.0,0.0,0.0,0.0,0.0,0.0,0.0,0.0,0.0,0.0,0.0,0.0,0.0,0.0,0.0,0.0,0.0,0.0,0.0,0.0,0.0,0.0,0.0,0.0,0.0,0.0,0.0,0.0,0.0,0.0,0.0,0.0,0.0,0.0,0.0,0.0,0.0,0.0,0.0,0.0,0.0,0.0,0.0,-1.3457,-1.3636,-1.366,-1.3669,-1.3652,-1.4083,-1.4688,0.0,0.0,0.0,0.0,0.0,0.0,0.0,0.0,0.0,0.0,0.0,0.0,0.0,0.0,0.0,0.0,0.0,0.0,0.0,0.0,0.0,0.0,0.0,0.0,0.0,0.0,0.0,0.0,0.0,0.0,0.0,0.0,0.0,0.0,0.0,0.0,0.0,0.0,0.0,0.0,0.0,0.0,0.0,0.0,0.0,0.0,0.0,0.0,0.0,0.0,0.0,0.0,0.0,0.0,0.0,0.0,0.0,0.0,0.0,0.0,0.0,0.0,0.0,0.0,0.0,0.0,0.0,0.0,0.0,0.0,0.0,0.0,0.0,0.0,0.0,0.0,0.0,0.0,0.0,0.0,0.0,0.0,0.0,0.0,0.0,0.0,0.0,0.0,0.0,0.0,0.0,0.0,0.0,0.0,0.0,0.0,0.0,0.0,0.0,0.0,0.0,0.0,0.0,0.0,0.0,0.0,0.0,0.0,-1.3457,-1.3636,-1.3774,-1.3847,-1.3839,-1.442,-1.4704,0.0,0.0,0.0,0.0,0.0,0.0,0.0,0.0,0.0,0.0,0.0,0.0,0.0,0.0,0.0,0.0,0.0,0.0,0.0,0.0,0.0,0.0,0.0,0.0,0.0,0.0,0.0,0.0,0.0,0.0,0.0,0.0,0.0,0.0,0.0,0.0,0.0,0.0,0.0,0.0,0.0,0.0,0.0,0.0,0.0,0.0,0.0,0.0,-2.3252,0.0,0.0,0.0,0.0,0.0,0.0,0.0,0.0,0.0,0.0,0.0,0.0,0.0,0.0,0.0,0.0,0.0,0.0,0.0,0.0,0.0,0.0,0.0,0.0,0.0,0.0,0.0,0.0,0.0,0.0,0.0,0.0,0.0,0.0,0.0,0.0,0.0,0.0,0.0,0.0,0.0,0.0,0.0,0.0,0.0,0.0,0.0,0.0,0.0,0.0,0.0,0.0,0.0,0.0,0.0,0.0,0.0,0.0,0.0,-1.3587,-1.3758,-1.3855,-1.3904,-1.3888,-1.4241,-1.462,0.0,0.0,0.0,0.0,0.0,0.0,0.0,0.0,0.0,0.0,0.0,0.0,0.0,0.0,0.0,0.0,0.0,0.0,0.0,0.0,0.0,0.0,0.0,0.0,0.0,0.0,0.0,0.0,0.0,0.0,0.0,0.0,0.0,0.0,0.0,0.0,0.0,0.0,0.0,0.0,0.0,0.0,0.0,0.0,0.0,0.0,0.0,0.0,0.0,0.0,0.0,0.0,0.0,0.0,0.0,0.0,0.0,0.0,0.0,0.0,0.0,0.0,0.0,0.0,0.0,0.0,0.0,0.0,0.0,0.0,0.0,0.0,0.0,0.0,0.0,0.0,0.0,0.0,0.0,0.0,0.0,0.0,0.0,0.0,0.0,0.0,0.0,0.0,0.0,0.0,0.0,0.0,0.0,0.0,0.0,0.0,0.0,0.0,0.0,0.0,0.0,0.0,0.0,0.0,0.0,0.0,0.0,-1.3555,-1.3725,-1.3888,-1.3904,-1.3904,-1.3904,-1.4032,-1.4423,-1.4909,0.0,0.0,0.0,0.0,0.0,0.0,0.0,0.0,0.0,0.0,0.0,0.0,0.0,0.0,0.0,0.0,0.0,0.0,0.0,0.0,0.0,0.0,0.0,0.0,0.0,0.0,0.0,0.0,0.0,0.0,0.0,0.0,0.0,0.0,0.0,0.0,0.0,0.0,-2.2345,-2.2857,0.0,0.0,0.0,0.0,0.0,0.0,0.0,0.0,-2.4115,0.0,0.0,0.0,0.0,0.0,0.0,0.0,0.0,0.0,0.0,0.0,0.0,0.0,0.0,0.0,0.0,0.0,0.0,0.0,0.0,0.0,0.0,0.0,0.0,0.0,0.0,0.0,0.0,0.0,0.0,0.0,0.0,0.0,0.0,0.0,0.0,0.0,0.0,0.0,0.0,0.0,0.0,0.0,0.0,0.0,0.0,0.0,0.0,0.0,0.0,0.0,0.0,0.0,0.0,0.0,0.0,-1.3368,-1.3547,-1.3725,-1.3896,-1.3904,-1.3904,-1.3904,-1.3872,-1.4198,-1.4701,0.0,0.0,0.0,0.0,0.0,0.0,0.0,0.0,0.0,0.0,0.0,0.0,0.0,0.0,0.0,0.0,0.0,0.0,0.0,0.0,0.0,0.0,0.0,0.0,0.0,0.0,0.0,0.0,0.0,0.0,0.0,0.0,0.0,0.0,0.0,0.0,0.0,0.0,0.0,-2.3457,-2.3632,0.0,0.0,0.0,0.0,0.0,0.0,0.0,0.0,-2.4159,0.0,0.0,0.0,0.0,0.0,0.0,0.0,0.0,0.0,0.0,0.0,0.0,0.0,0.0,0.0,0.0,0.0,0.0,0.0,0.0,0.0,0.0,0.0,0.0,0.0,0.0,0.0,0.0,0.0,0.0,0.0,0.0,0.0,0.0,0.0,0.0,0.0,0.0,0.0,0.0,0.0,0.0,0.0,0.0,0.0,0.0,0.0,0.0,0.0,0.0,0.0,0.0,0.0,0.0,0.0,-1.3514,-1.3685,-1.3815,-1.3896,-1.3904,-1.3904,-1.3904,-1.3904,-1.4098,0.0,0.0,0.0,0.0,0.0,0.0,0.0,0.0,0.0,0.0,0.0,0.0,0.0,0.0,0.0,0.0,0.0,0.0,0.0,0.0,0.0,0.0,0.0,0.0,0.0,0.0,0.0,0.0,0.0,0.0,0.0,0.0,0.0,0.0,0.0,0.0,0.0,0.0,0.0,0.0,-2.3706,-2.3779,-2.4276,0.0,0.0,0.0,0.0,0.0,0.0,-2.4686,-2.4583,0.0,0.0,0.0,0.0,0.0,0.0,0.0,0.0,0.0,0.0,0.0,0.0,0.0,0.0,0.0,0.0,0.0,0.0,0.0,0.0,0.0,0.0,0.0,0.0,0.0,0.0,0.0,0.0,0.0,0.0,0.0,0.0,0.0,0.0,0.0,0.0,0.0,0.0,0.0,0.0,0.0,0.0,0.0,0.0,0.0,0.0,0.0,0.0,0.0,0.0,0.0,0.0,0.0,0.0,0.0,-1.3644,-1.3815,-1.3904,-1.3904,-1.3904,-1.3904,-1.3904,-1.3904,-1.4115,0.0,0.0,0.0,0.0,0.0,0.0,0.0,0.0,0.0,0.0,0.0,0.0,0.0,0.0,0.0,0.0,0.0,0.0,0.0,0.0,0.0,0.0,0.0,0.0,0.0,0.0,0.0,0.0,0.0,0.0,0.0,0.0,0.0,0.0,0.0,0.0,0.0,0.0,0.0,0.0,0.0,-2.4013,-2.4583,-2.4496,0.0,0.0,0.0,0.0,-2.5213,-2.5257,0.0,0.0,0.0,0.0,0.0,0.0,0.0,0.0,0.0,0.0,0.0,0.0,0.0,0.0,0.0,0.0,0.0,0.0,0.0,0.0,0.0,0.0,0.0,0.0,0.0,0.0,0.0,0.0,0.0,0.0,0.0,0.0,0.0,0.0,0.0,0.0,0.0,0.0,0.0,0.0,0.0,0.0,0.0,0.0,0.0,0.0,0.0,0.0,0.0,0.0,0.0,0.0,0.0,0.0,0.0,0.0,-1.3644,-1.3815,-1.3904,-1.3904,-1.3904,-1.3904,-1.3904,-1.3904,-1.403,0.0,0.0,0.0,0.0,0.0,0.0,0.0,0.0,0.0,0.0,0.0,0.0,0.0,0.0,0.0,0.0,0.0,0.0,0.0,0.0,0.0,0.0,0.0,0.0,0.0,0.0,0.0,0.0,0.0,0.0,0.0,0.0,0.0,0.0,0.0,0.0,0.0,0.0,0.0,0.0,0.0,-2.4583,-2.4949,-2.5213,-2.5374,0.0,0.0,-2.5857,-2.59,-2.59,0.0,0.0,0.0,0.0,0.0,0.0,0.0,0.0,0.0,0.0,0.0,0.0,0.0,0.0,0.0,0.0,0.0,0.0,0.0,0.0,0.0,0.0,0.0,0.0,0.0,0.0,0.0,0.0,0.0,0.0,0.0,0.0,0.0,0.0,0.0,0.0,0.0,0.0,0.0,0.0,0.0,0.0,0.0,0.0,0.0,0.0,0.0,0.0,0.0,0.0,0.0,0.0,0.0,0.0,0.0,-1.3506,-1.3782,-1.3863,-1.3904,-1.3904,-1.3904,-1.3904,-1.3904,-1.3904,-1.4047,0.0,0.0,0.0,0.0,0.0,0.0,0.0,0.0,0.0,0.0,0.0,0.0,0.0,0.0,0.0,0.0,0.0,0.0,0.0,0.0,0.0,0.0,0.0,0.0,0.0,0.0,0.0,0.0,0.0,0.0,0.0,0.0,0.0,0.0,0.0,0.0,0.0,0.0,0.0,0.0,0.0,0.0,-2.5257,-2.5447,0.0,0.0,0.0,-2.6018,-2.6018,0.0,0.0,0.0,0.0,0.0,0.0,0.0,0.0,0.0,0.0,0.0,0.0,0.0,0.0,0.0,0.0,0.0,0.0,0.0,0.0,0.0,0.0,0.0,0.0,0.0,0.0,0.0,0.0,0.0,0.0,0.0,0.0,0.0,0.0,0.0,0.0,0.0,0.0,0.0,0.0,0.0,0.0,0.0,0.0,0.0,0.0,0.0,0.0,0.0,0.0,0.0,0.0,0.0,0.0,0.0,0.0,0.0,-1.3888,-1.3904,-1.3928,-1.3969,-1.3969,-1.3993,-1.4034,-1.4034,0.0,0.0,0.0,0.0,0.0,0.0,0.0,0.0,0.0,0.0,0.0,0.0,0.0,0.0,0.0,0.0,0.0,0.0,0.0,0.0,0.0,0.0,0.0,0.0,0.0,0.0,0.0,-2.1371,0.0,0.0,0.0,0.0,0.0,0.0,0.0,0.0,0.0,0.0,0.0,0.0,0.0,0.0,-2.4844,-2.5461,-2.5666,-2.5857,0.0,0.0,-2.6266,-2.6266,-2.6266,-2.6237,0.0,0.0,0.0,0.0,0.0,0.0,0.0,0.0,0.0,0.0,0.0,0.0,0.0,0.0,0.0,0.0,0.0,0.0,0.0,0.0,0.0,0.0,0.0,0.0,0.0,0.0,0.0,0.0,0.0,0.0,0.0,0.0,0.0,0.0,0.0,0.0,0.0,0.0,0.0,0.0,0.0,0.0,0.0,0.0,0.0,0.0,0.0,0.0,0.0,0.0,0.0,0.0,0.0,0.0,-1.3717,-1.3896,-1.3904,-1.3985,-1.4148,-1.4156,-1.4237,-1.4391,-1.4391,-1.4318,0.0,0.0,0.0,0.0,0.0,0.0,0.0,0.0,0.0,0.0,0.0,0.0,0.0,0.0,0.0,0.0,0.0,0.0,0.0,0.0,0.0,0.0,0.0,0.0,0.0,0.0,0.0,0.0,0.0,0.0,0.0,0.0,0.0,0.0,0.0,0.0,0.0,0.0,0.0,0.0,0.0,-2.5063,-2.5382,-2.6047,-2.6442,0.0,-2.6735,-2.6925,-2.6925,-2.6925,-2.6822,-2.6515,0.0,0.0,0.0,0.0,0.0,0.0,0.0,0.0,0.0,0.0,0.0,0.0,0.0,0.0,0.0,0.0,0.0,0.0,0.0,0.0,0.0,0.0,0.0,0.0,0.0,0.0,0.0,0.0,0.0,0.0,0.0,0.0,0.0,0.0,0.0,0.0,0.0,0.0,0.0,0.0,0.0,0.0,0.0,0.0,0.0,0.0,0.0,0.0,0.0,0.0,0.0,0.0,0.0,-1.3888,-1.4066,-1.4172,-1.4261,-1.4326,-1.4335,-1.4367,-1.4432,-1.4432,-1.4399,0.0,0.0,0.0,0.0,0.0,0.0,0.0,0.0,0.0,0.0,0.0,0.0,0.0,0.0,0.0,0.0,0.0,0.0,0.0,0.0,0.0,0.0,0.0,0.0,0.0,0.0,0.0,0.0,-2.3168,-2.3057,-2.2791,0.0,0.0,0.0,0.0,0.0,0.0,0.0,0.0,0.0,0.0,-2.5125,-2.5639,-2.6197,0.0,0.0,-2.691,-2.6998,-2.6998,-2.6998,-2.6954,-2.6822,-2.653,0.0,0.0,0.0,0.0,0.0,0.0,0.0,0.0,0.0,0.0,0.0,0.0,0.0,0.0,0.0,0.0,0.0,0.0,0.0,0.0,0.0,0.0,0.0,0.0,0.0,0.0,0.0,0.0,0.0,0.0,0.0,0.0,0.0,0.0,0.0,0.0,0.0,0.0,0.0,0.0,0.0,0.0,0.0,0.0,0.0,0.0,0.0,0.0,0.0,0.0,0.0,0.0,-1.4075,-1.4253,-1.4375,-1.4456,-1.4513,-1.4513,-1.4538,-1.4586,-1.4586,-1.4562,0.0,0.0,0.0,0.0,0.0,0.0,0.0,0.0,0.0,0.0,0.0,0.0,0.0,0.0,0.0,0.0,0.0,0.0,0.0,0.0,0.0,0.0,0.0,0.0,0.0,0.0,0.0,0.0,-2.3574,-2.3319,-2.2835,0.0,0.0,0.0,0.0,0.0,0.0,0.0,0.0,0.0,0.0,-2.5271,-2.5855,-2.6301,-2.6735,-2.6954,-2.6998,-2.6998,-2.6998,-2.6998,-2.6998,-2.6998,0.0,0.0,0.0,0.0,0.0,0.0,0.0,0.0,0.0,0.0,0.0,0.0,0.0,0.0,0.0,0.0,0.0,0.0,0.0,0.0,0.0,0.0,0.0,0.0,0.0,0.0,0.0,-1.2772,0.0,0.0,-1.2807,0.0,0.0,0.0,0.0,0.0,0.0,0.0,0.0,0.0,0.0,0.0,0.0,0.0,0.0,0.0,0.0,0.0,0.0,0.0,0.0,0.0,0.0,-1.4261,-1.4424,-1.444,-1.4529,-1.4692,-1.47,-1.4781,-1.4935,-1.4952,-1.4871,-1.47,0.0,0.0,0.0,0.0,0.0,0.0,0.0,0.0,0.0,0.0,0.0,0.0,0.0,0.0,0.0,0.0,0.0,0.0,0.0,0.0,0.0,0.0,0.0,0.0,0.0,0.0,-2.3089,-2.3215,-2.3134,0.0,0.0,0.0,0.0,0.0,0.0,0.0,0.0,0.0,-2.4086,-2.4856,-2.5468,-2.5769,-2.6475,-2.6969,-2.6998,-2.6998,-2.6998,-2.6998,-2.6998,-2.6998,0.0,0.0,0.0,0.0,0.0,0.0,0.0,0.0,0.0,0.0,0.0,0.0,0.0,0.0,0.0,0.0,0.0,0.0,0.0,0.0,0.0,0.0,0.0,0.0,0.0,0.0,0.0,-1.3408,-1.3261,0.0,0.0,0.0,0.0,0.0,0.0,0.0,0.0,0.0,0.0,0.0,-1.4253,-1.4253,0.0,0.0,0.0,0.0,0.0,0.0,0.0,0.0,0.0,0.0,0.0,0.0,-1.4432,-1.4611,-1.4732,-1.4814,-1.4879,-1.4879,-1.4911,-1.4968,-1.4968,-1.4887,-1.4716,0.0,0.0,0.0,0.0,0.0,0.0,0.0,0.0,0.0,0.0,0.0,0.0,0.0,0.0,0.0,0.0,0.0,0.0,0.0,0.0,0.0,0.0,0.0,0.0,0.0,-2.3574,0.0,0.0,0.0,0.0,0.0,0.0,0.0,0.0,0.0,0.0,0.0,-2.3607,-2.4152,-2.4706,-2.5263,-2.5763,-2.6328,-2.6692,0.0,0.0,0.0,0.0,0.0,0.0,0.0,0.0,0.0,0.0,0.0,0.0,0.0,0.0,-2.5696,-2.5696,-2.5696,-2.5725,-2.5827,0.0,0.0,0.0,0.0,0.0,0.0,0.0,0.0,0.0,0.0,0.0,0.0,0.0,0.0,-1.3769,-1.3769,-1.3769,0.0,0.0,0.0,0.0,0.0,0.0,0.0,0.0,-1.4594,-1.4619,-1.4619,-1.4619,-1.4586,0.0,-1.4529,-1.4253,0.0,0.0,0.0,0.0,0.0,0.0,0.0,0.0,-1.4619,-1.4789,-1.4903,-1.4968,-1.4968,-1.4968,-1.4968,-1.4968,-1.4968,-1.4911,-1.4806,-1.4797,-1.4867,0.0,0.0,0.0,0.0,0.0,0.0,0.0,0.0,0.0,0.0,0.0,0.0,0.0,0.0,0.0,0.0,0.0,0.0,0.0,0.0,0.0,0.0,0.0,-2.2496,0.0,0.0,0.0,0.0,0.0,0.0,0.0,0.0,0.0,-2.306,-2.3674,-2.4035,-2.4315,-2.4634,-2.5139,-2.5478,0.0,0.0,0.0,0.0,0.0,0.0,0.0,-2.6998,-2.6998,-2.6998,-2.691,-2.6705,-2.65,-2.6354,-2.6354,0.0,0.0,-2.6061,-2.6018,-2.6047,-2.6164,-2.6193,-2.6222,-2.6339,-2.6354,-2.6354,0.0,0.0,0.0,0.0,0.0,0.0,0.0,0.0,-1.4432,-1.4432,0.0,-1.4424,0.0,0.0,0.0,0.0,-1.4448,-1.4611,0.0,0.0,-1.4879,-1.4968,-1.496,-1.496,-1.4879,-1.4724,-1.4716,-1.4619,-1.4448,-1.444,0.0,0.0,0.0,0.0,0.0,0.0,-1.4789,-1.4952,-1.4968,-1.4968,-1.4968,-1.4968,-1.4968,-1.4968,-1.4968,-1.4968,-1.4968,-1.496,-1.4887,-1.4724,-1.501,0.0,0.0,0.0,0.0,0.0,0.0,0.0,0.0,0.0,0.0,0.0,0.0,0.0,0.0,0.0,0.0,0.0,0.0,0.0,0.0,-2.0472,0.0,0.0,0.0,0.0,0.0,0.0,0.0,0.0,0.0,0.0,-2.3417,-2.3918,-2.4315,-2.4596,0.0,0.0,0.0,0.0,-2.6385,-2.6399,-2.6692,-2.6998,-2.6998,-2.6998,-2.6998,-2.6998,0.0,0.0,-2.6983,-2.6983,-2.6969,-2.6983,-2.6954,-2.6793,-2.6179,-2.6076,-2.6179,-2.6457,-2.6515,-2.6617,-2.6896,-2.6925,-2.6939,-1.4793,0.0,0.0,0.0,0.0,-1.4359,-1.4456,-1.4627,-1.4627,-1.4627,-1.4785,-1.4627,0.0,0.0,0.0,0.0,0.0,0.0,-1.4773,-1.4895,-1.4944,-1.4968,-1.4968,-1.4968,-1.4944,-1.4895,-1.4895,-1.4862,-1.4814,-1.4814,-1.4684,-1.444,0.0,0.0,0.0,0.0,-1.4789,-1.496,-1.4968,-1.4968,-1.4968,-1.4968,-1.4968,-1.4968,-1.4968,-1.4968,-1.4968,-1.4968,-1.4944,-1.4895,-1.4925,0.0,0.0,0.0,0.0,0.0,0.0,0.0,0.0,0.0,0.0,0.0,0.0,0.0,0.0,0.0,0.0,0.0,0.0,0.0,-2.162,-2.0869,-2.0308,0.0,0.0,0.0,0.0,0.0,0.0,0.0,0.0,0.0,-2.2843,-2.3619,-2.4248,0.0,0.0,-2.4931,-2.5092,-2.5373,-2.5814,-2.6385,-2.6546,0.0,-2.6983,-2.6998,-2.6998,-2.6998,-2.6998,-2.6998,-2.6998,-2.6998,-2.6998,-2.6998,-2.6998,-2.6925,-2.6764,-2.6705,-2.6735,-2.6837,-2.6852,-2.6866,-2.6969,-2.6998,-2.6998,-1.4999,-1.496,-1.4802,-1.4643,-1.4643,-1.4643,-1.4708,-1.4814,-1.4814,-1.4966,-1.4974,-1.4814,-1.4908,-1.496,-1.4802,0.0,0.0,0.0,-1.4862,-1.4968,-1.4968,-1.4968,-1.4968,-1.4968,-1.4968,-1.4968,-1.4968,-1.4968,-1.4968,-1.4968,-1.4854,-1.4651,0.0,0.0,-1.4806,-1.4814,-1.4862,-1.496,-1.4968,-1.4968,-1.4968,-1.4968,-1.4968,-1.4968,-1.4968,-1.4968,-1.4968,-1.4968,-1.4968,-1.4968,-1.4862,-1.4933,0.0,0.0,0.0,0.0,0.0,0.0,0.0,0.0,0.0,0.0,0.0,-1.9632,-1.9632,0.0,0.0,0.0,-2.0157,-2.0507,-2.0368,-1.9826,0.0,0.0,0.0,0.0,0.0,0.0,0.0,-1.8853,-1.9022,-1.985,-2.1751,-2.2682,-2.3438,-2.4488,-2.4636,-2.4636,-2.4931,0.0,-2.5373,-2.5814,-2.6253,-2.6546,-2.6692,-2.6838,-2.6998,-2.6998,-2.6998,-2.6998,-2.6998,-2.6998,-2.6998,-2.6998,-2.6998,-2.6998,-2.6998,-2.6998,-2.6998,-2.6998,-2.6998,-2.6998,-2.6998,-2.6998,-2.6998,-1.4968,-1.4968,-1.4968,-1.4968,-1.4968,-1.4968,-1.4968,-1.4968,-1.4968,-1.4968,-1.4968,-1.4968,-1.4968,-1.4968,-1.4968,0.0,-1.4968,-1.4968,-1.4968,-1.4968,-1.4968,-1.4968,-1.4968,-1.4968,-1.4968,-1.4968,-1.4968,-1.4968,-1.4968,-1.4968,-1.4968,-1.4968,-1.4968,-1.4968,-1.4968,-1.4968,-1.4968,-1.4968,-1.4968,-1.4968,-1.4968,-1.4968,-1.4968,-1.4968,-1.4968,-1.4968,-1.4968,-1.4968,-1.4968,-1.4968,-1.4968,-1.5048,-1.5354,0.0,0.0,0.0,0.0,0.0,0.0,0.0,0.0,0.0,0.0,0.0,0.0,0.0,0.0,0.0,-1.854,0.0,-1.7673,-1.8112,0.0,0.0,0.0,-1.8289,-1.7879,-1.7429,-1.7211,-1.7105,0.0,0.0,-2.0553,-2.1176,-2.2223,-2.4179,-2.4488,-2.4636,-2.4636,-2.4931,-2.5079,-2.5239,-2.5814,-2.6399,-2.6399,-2.6692,-2.6998,-2.6998,-2.6998,-2.6998,-2.6998,-2.6998,-2.6998,-2.6998,-2.6998,-2.6998,-2.6998,-2.6998,-2.6998,-2.6998,-2.6998,-2.6998,-2.6998,-2.6998,-2.6998,-1.4968,-1.4968,-1.4968,-1.4968,-1.4968,-1.4968,-1.4968,-1.4968,-1.4968,-1.4968,-1.4968,-1.4968,-1.4968,-1.4968,-1.4968,-1.4968,-1.4968,-1.4968,-1.4968,-1.4968,-1.4968,-1.4968,-1.4968,-1.4968,-1.4968,-1.4968,-1.4968,-1.4968,-1.4968,-1.4968,-1.4968,-1.4968,-1.4968,-1.4968,-1.4968,-1.4968,-1.4968,-1.4968,-1.4968,-1.4968,-1.4968,-1.4968,-1.4968,-1.4968,-1.4968,-1.4968,-1.4968,-1.4968,-1.4968,-1.4968,-1.4968,-1.4944,-1.5064,-1.5682,0.0,0.0,0.0,0.0,0.0,0.0,0.0,0.0,0.0,-1.8433,-1.8311,0.0,-1.7809,0.0,-1.738,-1.7673,-1.8966,-1.8248,0.0,0.0,-1.8218,-1.814,-1.7558,-1.7114,-1.6982,-1.6885,-1.7786,-1.8562,-1.9067,-2.0274,-2.1475,-2.267,-2.3883,-2.4636,-2.4636,-2.4636,-2.4784,-2.5226,-2.5667,-2.6093,-2.6385,-2.6692,-2.6998,-2.6998,-2.6998,-2.6998,-2.6998,-2.6998,-2.6998,-2.6998,-2.6998,-2.6998,-2.6998,-2.6998,-2.6998,-2.6998,-2.6998,-2.6998,-2.6998,-2.6998,-2.6998,-1.4968,-1.4968,-1.4968,-1.4968,-1.4968,-1.4968,-1.4968,-1.4968,-1.4968,-1.4968,-1.4968,-1.4968,-1.4968,-1.4968,-1.4968,-1.4968,-1.4968,-1.4968,-1.4968,-1.4968,-1.4968,-1.4968,-1.4968,-1.4968,-1.4968,-1.4968,-1.4968,-1.4968,-1.4968,-1.4968,-1.4968,-1.4968,-1.4968,-1.4968,-1.4968,-1.4968,-1.4968,-1.4968,-1.4968,-1.4968,-1.4968,-1.4968,-1.4968,-1.4968,-1.4968,-1.4968,-1.4968,-1.4968,-1.4968,-1.4968,-1.4968,-1.4968,-1.4968,-1.5641,-1.6153,0.0,0.0,0.0,0.0,0.0,0.0,0.0,0.0,0.0,0.0,0.0,-1.7524,-1.7673,-1.7524,-1.7812,-1.8842,-1.811,-1.7722,-1.784,-1.7849,-1.7596,-1.6959,-1.6662,-1.6348,-1.6033,-1.6644,-1.7255,-1.8016,-1.8764,-2.0124,-2.1924,-2.298,-2.3735,-2.4488,-2.4636,-2.4636,-2.4931,-2.5359,-2.5946,-2.6546,-2.6838,-2.6998,-2.6998,-2.6998,-2.6998,-2.6998,-2.6998,-2.6998,-2.6998,-2.6998,-2.6998,-2.6998,-2.6998,-2.6998,-2.6998,-2.6998,-2.6998,-2.6998,-2.6998,-2.6998,-1.4968,-1.4968,-1.4968,-1.4968,-1.4968,-1.4968,-1.4968,-1.4968,-1.4968,-1.4968,-1.4968,-1.4968,-1.4968,-1.4968,-1.4968,-1.4968,-1.4968,-1.4968,-1.4968,-1.4968,-1.4968,-1.4968,-1.4968,-1.4968,-1.4968,-1.4968,-1.4968,-1.4968,-1.4968,-1.4968,-1.4968,-1.4968,-1.4968,-1.4968,-1.4968,-1.4968,-1.4968,-1.4968,-1.4968,-1.4968,-1.4968,-1.4968,-1.4968,-1.4968,-1.4968,-1.4968,-1.4968,-1.4968,-1.4968,-1.4968,-1.4968,-1.4968,-1.4968,-1.5744,-1.6124,0.0,-1.7002,0.0,0.0,0.0,0.0,0.0,0.0,0.0,0.0,-1.7473,-1.7578,-1.7873,-1.7873,-1.7873,-1.7873,-1.7873,-1.7721,-1.7426,-1.7426,-1.7121,-1.6357,-1.6203,-1.5897,-1.5122,-1.5275,-1.588,-1.695,-1.7245,-1.8613,-2.0864,-2.1314,-2.1924,-2.3574,-2.4327,-2.4488,-2.4341,-2.5212,-2.6093,-2.6692,-2.6998,-2.7013,-2.7042,-2.7086,-2.7071,-2.7144,-2.7144,-2.713,-2.713,-2.7159,-2.7144,-2.7115,-2.713,-2.713,-2.7159,-2.7174,-2.713,-2.7027,-2.6998,-2.6998,-1.4968,-1.4968,-1.4968,-1.4968,-1.4968,-1.4968,-1.4968,-1.4968,-1.4968,-1.4968,-1.4968,-1.4968,-1.4968,-1.4968,-1.4968,-1.4968,-1.4968,-1.4968,-1.4968,-1.4968,-1.4968,-1.4968,-1.4968,-1.4968,-1.4968,-1.4968,-1.4968,-1.4968,-1.4968,-1.4968,-1.4968,-1.4968,-1.4968,-1.4968,-1.4968,0.0,0.0,0.0,-1.4968,-1.4968,-1.4968,-1.4968,-1.4968,-1.4968,-1.4968,0.0,-1.4968,-1.4968,-1.4968,-1.4968,-1.4968,0.0,0.0,0.0,0.0,0.0,0.0,0.0,0.0,0.0,0.0,0.0,-1.7521,-1.7521,-1.7521,-1.7407,-1.7426,-1.7578,-1.7578,-1.7578,-1.7578,-1.7578,-1.7426,-1.7426,-1.7426,-1.7273,-1.6806,-1.6357,-1.605,-1.559,-1.6339,-1.6492,-1.5727,-1.6492,-1.755,-1.8309,-1.8309,-1.8916,-2.0564,-2.298,-2.4031,-2.3129,-2.4636,-2.6107,-2.6838,-2.7013,-2.7144,-2.7291,-2.7378,-2.7481,-2.7671,-2.7744,-2.7759,-2.7744,-2.7759,-2.7759,-2.7759,-2.7773,-2.773,-2.7759,-2.7759,-2.7613,-2.71,-2.6998,-2.6998,-1.4968,-1.4968,-1.4968,-1.4968,0.0,-1.4968,-1.4968,-1.4968,-1.4968,-1.4968,-1.4968,-1.4968,-1.4968,-1.4968,-1.4968,-1.4968,-1.4968,-1.4968,-1.4968,-1.4968,-1.4968,-1.4968,-1.4968,-1.4968,-1.4968,-1.4968,-1.4968,-1.4968,-1.4968,-1.4968,-1.4968,-1.4968,-1.4968,-1.4968,-1.4968,-1.4968,-1.4968,-1.4968,-1.4968,-1.4968,-1.4968,-1.4968,-1.4968,-1.4968,-1.4968,0.0,0.0,0.0,0.0,0.0,0.0,0.0,0.0,-1.5429,0.0,-1.6203,-1.6357,-1.6815,-1.7273,-1.7264,-1.7264,-1.7426,-1.7426,-1.7426,-1.7426,-1.7426,-1.7426,-1.7426,-1.7426,-1.7426,-1.7426,-1.7426,-1.7426,-1.7426,-1.7426,-1.7121,-1.6653,-1.6357,-1.5897,-1.5429,-1.588,-1.588,-1.5122,-1.5573,-1.6492,-1.7245,-1.7398,-1.7702,-1.8764,-2.1325,-2.3315,-2.3753,-2.4985,-2.6242,-2.6978,-2.7318,-2.7495,-2.7671,-2.7715,-2.7773,-2.792,-2.7949,-2.7949,-2.7949,-2.7949,-2.7949,-2.7949,-2.7949,-2.7949,-2.7949,-2.7949,-2.7861,-2.751,-2.7466,-2.7466,-1.4968,-1.4968,-1.4968,-1.4968,-1.4968,-1.4968,-1.4968,-1.4968,-1.4968,0.0,0.0,-1.4968,-1.4968,-1.4968,-1.4968,-1.4968,-1.4968,-1.4968,-1.4968,-1.4968,-1.4968,-1.4968,-1.4968,-1.4968,-1.4968,-1.4968,-1.4968,-1.4968,-1.4968,-1.4968,-1.4968,-1.4968,-1.4968,-1.4968,-1.4968,-1.4968,-1.4968,-1.4968,-1.4968,-1.4968,-1.4968,-1.4968,-1.4968,-1.4968,-1.4992,-1.5,-1.4968,-1.5,-1.5,-1.4968,-1.4968,-1.4968,-1.4968,-1.5275,-1.5744,-1.6203,-1.6203,-1.651,-1.7273,-1.7121,-1.7111,-1.7426,-1.7426,-1.7426,-1.7426,-1.7426,-1.7426,-1.7426,-1.7426,-1.7426,-1.7426,-1.7426,-1.7426,-1.7426,-1.7426,-1.7121,-1.651,-1.6203,-1.5897,-1.5275,-1.5122,-1.4968,-1.4968,-1.5122,-1.542,-1.6644,-1.6797,-1.7121,-1.775,-2.0038,-2.2842,-2.4997,-2.5691,-2.6129,-2.7093,-2.7136,-2.7661,-2.7871,-2.8037,-2.8052,-2.8095,-2.811,-2.811,-2.8169,-2.8125,-2.8139,-2.8125,-2.8154,-2.8125,-2.811,-2.811,-2.811,-2.811,-2.811,-2.8066,-1.4968,-1.4968,-1.4968,-1.4968,-1.4968,-1.4968,-1.4968,-1.4968,-1.4968,-1.4968,-1.4968,-1.4968,-1.4968,-1.4968,-1.4968,-1.4968,-1.4968,-1.4968,-1.4968,-1.4968,-1.4968,-1.4968,-1.4968,-1.4968,-1.4968,-1.4968,-1.4968,-1.4968,-1.4968,-1.4968,-1.4968,-1.4968,-1.4968,-1.4968,-1.4968,-1.4968,-1.4968,-1.4968,-1.4968,-1.4968,-1.4968,-1.4968,-1.4968,-1.4976,-1.5122,-1.5122,-1.4976,-1.5114,-1.5122,-1.4976,-1.4968,-1.4968,-1.4968,-1.5122,-1.5429,-1.6203,-1.6203,-1.651,-1.7273,-1.7273,-1.7273,-1.7426,-1.7426,-1.7426,-1.7426,-1.7426,-1.7426,-1.7426,-1.7426,-1.7426,-1.7426,-1.7426,-1.7426,-1.7426,-1.7426,-1.7273,-1.7121,-1.6662,-1.6203,-1.605,-1.5429,-1.4968,-1.5122,-1.4968,-1.5122,-1.5275,-1.5624,-1.5949,-1.7624,-1.9193,-2.1814,-2.4639,-2.4974,-2.5424,-2.6613,-2.6406,-2.6697,-2.8009,-2.8359,-2.8432,-2.8651,-2.8681,-2.8681,-2.8739,-2.8695,-2.871,-2.8725,-2.8754,-2.8695,-2.8681,-2.8681,-2.8695,-2.8681,-2.8695,-2.8564,-1.4968,-1.4968,-1.4968,-1.4968,-1.4968,-1.4968,-1.4968,-1.4968,-1.4968,-1.4968,-1.4968,-1.4968,-1.4968,-1.4968,-1.4968,-1.4968,-1.4968,-1.4968,-1.4968,-1.4968,-1.4968,-1.4968,-1.4968,-1.4968,-1.4968,-1.4968,-1.4968,-1.4968,-1.4968,-1.4968,-1.4968,-1.4968,-1.4968,-1.5017,-1.5106,-1.5114,-1.5163,-1.526,-1.5163,-1.5114,-1.5114,-1.5212,-1.526,-1.526,-1.535,-1.535,-1.5268,-1.5342,-1.535,-1.5268,-1.5268,-1.526,-1.526,-1.5171,-1.5424,-1.6052,-1.565,-1.6042,-1.6968,-1.7273,-1.7426,-1.7426,-1.7426,-1.7426,-1.7426,-1.7426,-1.7426,-1.7426,-1.7426,-1.7426,-1.7426,-1.7426,-1.7426,-1.7426,-1.7426,-1.7273,-1.7121,-1.6806,-1.651,-1.6203,-1.5744,-1.5275,-1.5275,-1.5122,-1.5017,-1.509,-1.5187,-1.5912,-1.7557,-1.8593,-2.0074,-2.2435,-2.2997,-2.3909,-2.575,-2.6101,-2.6635,-2.8356,-2.8681,-2.8739,-2.8871,-2.8886,-2.8886,-2.8886,-2.8886,-2.8886,-2.8886,-2.8886,-2.8886,-2.8886,-2.8886,-2.8886,-2.8886,-2.8886,-2.8783,-1.4968,-1.4968,-1.4968,-1.4968,-1.4968,-1.4968,-1.4968,-1.4968,-1.4968,-1.4968,-1.4968,-1.4968,-1.4968,-1.4968,-1.4968,-1.4968,-1.4968,-1.4968,-1.4968,-1.4968,-1.4968,-1.4968,-1.4968,-1.4968,-1.4968,-1.4968,-1.4968,-1.4968,-1.4968,-1.4968,-1.4984,-1.5025,-1.5074,-1.5163,-1.5293,-1.5301,-1.5374,-1.5496,-1.5415,-1.5342,-1.5309,-1.5439,-1.5512,-1.552,-1.5553,-1.5553,-1.552,-1.5553,-1.5553,-1.552,-1.5512,-1.5512,-1.5512,-1.5382,-1.5458,-1.592,-1.5482,-1.5683,-1.6726,-1.7139,-1.7273,-1.7426,-1.7426,-1.7426,-1.7426,-1.7426,-1.7426,-1.7426,-1.7426,-1.7426,-1.7426,-1.7426,-1.7426,-1.7426,-1.7426,-1.7273,-1.6959,-1.6806,-1.6501,-1.6203,-1.5744,-1.5429,-1.5437,-1.5163,-1.5106,-1.5285,-1.5455,-1.6031,-1.7163,-1.7627,-1.838,-1.9514,-2.0793,-2.2429,-2.4393,-2.5199,-2.6477,-2.8261,-2.8886,-2.8871,-2.8886,-2.8886,-2.8886,-2.8886,-2.8886,-2.8886,-2.8886,-2.8886,-2.8886,-2.8886,-2.8886,-2.8886,-2.8886,-2.8886,-2.8886,-1.4968,-1.4968,-1.4968,-1.4968,-1.4984,-1.4976,-1.4984,-1.4984,-1.4968,-1.4968,-1.4984,-1.4968,-1.4976,-1.4968,-1.4968,-1.4968,-1.4968,-1.4968,-1.4968,-1.4968,-1.4968,-1.4968,-1.4968,-1.4968,-1.4968,-1.4976,-1.4976,-1.4984,-1.5,-1.4984,-1.5057,-1.5212,-1.5382,-1.5463,-1.5488,-1.5488,-1.5496,-1.552,-1.5658,-1.565,-1.5504,-1.5504,-1.5512,-1.552,-1.5675,-1.5675,-1.5553,-1.5666,-1.5675,-1.5536,-1.5528,-1.552,-1.552,-1.5504,-1.5647,-1.5956,-1.5931,-1.6328,-1.6943,-1.6916,-1.6977,-1.7426,-1.7435,-1.7426,-1.7426,-1.7426,-1.7426,-1.7426,-1.7426,-1.7426,-1.7426,-1.7426,-1.7426,-1.7426,-1.7426,-1.7426,-1.7273,-1.6662,-1.6203,-1.6203,-1.5599,-1.5122,-1.5154,-1.513,-1.5293,-1.5463,-1.5642,-1.5909,-1.6079,-1.6366,-1.6475,-1.6975,-1.8444,-2.1179,-2.346,-2.4099,-2.5384,-2.7633,-2.8744,-2.89,-2.8886,-2.8886,-2.8886,-2.8886,-2.8886,-2.8886,-2.8886,-2.8886,-2.8886,-2.8886,-2.8886,-2.8886,-2.8886,-2.8886,-2.8886,-1.4968,-1.4976,-1.5245,-1.5351,-1.5285,-1.5293,-1.5293,-1.5293,-1.5293,-1.5293,-1.5293,-1.5293,-1.5171,-1.4968,-1.4968,-1.4968,-1.4968,-1.4968,-1.4968,-1.4968,-1.4968,-1.4968,-1.4968,-1.4968,-1.5017,-1.5122,-1.513,-1.5187,-1.5277,-1.5293,-1.5333,-1.5398,-1.548,-1.5569,-1.5658,-1.5666,-1.5715,-1.5829,-1.5894,-1.5902,-1.5837,-1.5829,-1.5829,-1.5837,-1.5902,-1.591,-1.5845,-1.5902,-1.5902,-1.5837,-1.5829,-1.5829,-1.5829,-1.5723,-1.5827,-1.598,-1.604,-1.6265,-1.6503,-1.6581,-1.6805,-1.7161,-1.7297,-1.726,-1.7445,-1.7121,-1.7111,-1.7426,-1.7426,-1.7426,-1.7426,-1.7426,-1.7426,-1.7426,-1.7426,-1.7273,-1.7121,-1.6815,-1.651,-1.6212,-1.5838,-1.5596,-1.5482,-1.554,-1.5569,-1.5675,-1.5821,-1.5918,-1.5943,-1.5999,-1.604,-1.6213,-1.7182,-1.8799,-2.1039,-2.2648,-2.4258,-2.6333,-2.7933,-2.8886,-2.8886,-2.8886,-2.8886,-2.8886,-2.8886,-2.8886,-2.8886,-2.8886,-2.8886,-2.8886,-2.8886,-2.8886,-2.8886,-2.8886,-2.8886,-1.5114,-1.5139,-1.5425,-1.5556,-1.5512,-1.5512,-1.5512,-1.5512,-1.5512,-1.5512,-1.5512,-1.5512,-1.5374,-1.5139,-1.5114,-1.5114,-1.5114,-1.5114,-1.5114,-1.5114,-1.5114,-1.5114,-1.5114,-1.5114,-1.5187,-1.5293,-1.5317,-1.5382,-1.5512,-1.5569,-1.5585,-1.5593,-1.5634,-1.5723,-1.5837,-1.5845,-1.591,-1.6032,-1.6048,-1.6048,-1.604,-1.6048,-1.6048,-1.6048,-1.6048,-1.6048,-1.6048,-1.6048,-1.6048,-1.6048,-1.6048,-1.6048,-1.604,-1.5918,-1.5845,-1.5829,-1.5996,-1.6056,-1.6216,-1.6333,-1.6722,-1.6903,-1.7042,-1.729,-1.7325,-1.7279,-1.7251,-1.7367,-1.7511,-1.7501,-1.7426,-1.7426,-1.7426,-1.7426,-1.7426,-1.7273,-1.6959,-1.6843,-1.659,-1.6291,-1.5991,-1.5822,-1.5889,-1.5762,-1.5764,-1.5845,-1.5959,-1.6048,-1.6048,-1.604,-1.6048,-1.6048,-1.6369,-1.7173,-1.8789,-2.0716,-2.2968,-2.5041,-2.6963,-2.8076,-2.873,-2.8886,-2.8886,-2.8886,-2.8886,-2.8886,-2.8886,-2.8886,-2.8886,-2.8886,-2.8886,-2.8886,-2.8886,-2.8886,-2.8886,-1.5162,-1.5488,-1.5496,-1.552,-1.552,-1.5536,-1.5528,-1.5553,-1.5536,-1.5528,-1.5545,-1.5536,-1.5512,-1.5488,-1.5496,-1.5488,-1.548,-1.5463,-1.5455,-1.5455,-1.5463,-1.548,-1.5488,-1.5496,-1.5488,-1.5504,-1.5504,-1.552,-1.5553,-1.5683,-1.5764,-1.5772,-1.591,-1.6016,-1.6016,-1.6016,-1.6032,-1.604,-1.6048,-1.6048,-1.6048,-1.6048,-1.6048,-1.6048,-1.6048,-1.6048,-1.6048,-1.6048,-1.6048,-1.6048,-1.6048,-1.6048,-1.6048,-1.6032,-1.6024,-1.6008,-1.5861,-1.5926,-1.6232,-1.6267,-1.6316,-1.6766,-1.7083,-1.7381,-1.7483,-1.7641,-1.7732,-1.7738,-1.7709,-1.7643,-1.7501,-1.7473,-1.7454,-1.7445,-1.7445,-1.7464,-1.7301,-1.6852,-1.6623,-1.6346,-1.5864,-1.5712,-1.5876,-1.5756,-1.5861,-1.5967,-1.604,-1.6048,-1.6048,-1.6048,-1.6048,-1.6048,-1.6205,-1.6689,-1.83,-1.9755,-2.1684,-2.3608,-2.5041,-2.6319,-2.7919,-2.8886,-2.873,-2.873,-2.8573,-2.8573,-2.873,-2.8886,-2.8886,-2.8886,-2.8886,-2.8886,-2.8886,-2.8886,-2.8886,-1.5658,-1.5893,-1.5699,-1.5748,-1.5853,-1.5853,-1.5853,-1.5853,-1.5853,-1.5853,-1.5853,-1.5853,-1.5853,-1.5853,-1.5853,-1.5731,-1.5528,-1.5512,-1.5512,-1.5512,-1.5512,-1.5512,-1.5512,-1.552,-1.5577,-1.5666,-1.5683,-1.574,-1.5853,-1.5918,-1.5951,-1.5951,-1.6008,-1.6048,-1.6048,-1.6048,-1.6048,-1.6048,-1.6048,-1.6048,-1.6048,-1.6048,-1.6048,-1.6048,-1.6048,-1.6048,-1.6048,-1.6048,-1.6048,-1.6048,-1.6048,-1.6048,-1.6048,-1.6048,-1.6048,-1.604,-1.5983,-1.5951,-1.6106,-1.6049,-1.612,-1.6495,-1.6647,-1.6906,-1.7277,-1.725,-1.7381,-1.7789,-1.7613,-1.7576,-1.7667,-1.77,-1.7624,-1.7634,-1.7738,-1.7648,-1.7364,-1.7253,-1.6827,-1.6388,-1.5888,-1.5748,-1.5886,-1.5943,-1.5975,-1.6032,-1.6048,-1.6048,-1.6048,-1.6048,-1.6048,-1.6048,-1.6048,-1.6205,-1.6689,-1.8463,-2.0231,-2.1523,-2.2797,-2.4087,-2.5542,-2.6017,-2.5859,-2.6977,-2.7305,-2.7776,-2.7933,-2.8573,-2.8573,-2.8886,-2.8886,-2.8886,-2.8886,-2.8886,-2.8886,-1.3343,-1.4252,-1.4891,-1.51,-1.5208,-1.5719,-1.6048,-1.6048,-1.6048,-1.6048,-1.6048,-1.6048,-1.6048,-1.6048,-1.6048,-1.5926,-1.5699,-1.5683,-1.5691,-1.5683,-1.5683,-1.5683,-1.5683,-1.5691,-1.5748,-1.5845,-1.5861,-1.5934,-1.6032,-1.6048,-1.6048,-1.6048,-1.6048,-1.6048,-1.6048,-1.6048,-1.6048,-1.6048,-1.6048,-1.6048,-1.6048,-1.6048,-1.6048,-1.6048,-1.6048,-1.6048,-1.6048,-1.6048,-1.6048,-1.6048,-1.6048,-1.6048,-1.6048,-1.6048,-1.6048,-1.6048,-1.6048,-1.6048,-1.6048,-1.6048,-1.6155,-1.6212,-1.6512,-1.6768,-1.7128,-1.7119,-1.7262,-1.7695,-1.7667,-1.7658,-1.7892,-1.7817,-1.7742,-1.7704,-1.765,-1.7566,-1.7259,-1.7136,-1.6898,-1.6334,-1.595,-1.591,-1.6016,-1.604,-1.604,-1.6048,-1.6048,-1.6048,-1.6048,-1.6048,-1.6048,-1.6048,-1.6048,-1.6048,-1.6205,-1.7337,-1.8942,-2.0231,-2.0878,-2.2017,-2.3152,-2.3472,-2.3952,-2.5066,-2.5872,-2.6504,-2.7148,-2.7933,-2.8261,-2.873,-2.8886,-2.8886,-2.8886,-2.8886,-2.8886,-0.7671,-1.0693,-1.2542,-1.3535,-1.388,-1.5216,-1.5883,-1.6048,-1.6048,-1.6048,-1.6048,-1.6048,-1.6048,-1.6048,-1.6048,-1.6032,-1.5999,-1.5991,-1.5991,-1.5991,-1.5999,-1.5999,-1.5999,-1.5991,-1.5991,-1.6016,-1.604,-1.604,-1.6048,-1.6048,-1.6048,-1.6048,-1.6048,-1.6048,-1.6048,-1.6048,-1.6048,-1.6048,-1.6048,-1.6048,-1.6048,-1.6048,-1.6048,-1.6048,-1.6048,-1.6048,-1.6048,-1.6048,-1.6048,-1.6048,-1.6048,-1.6048,-1.6048,-1.6048,-1.6048,-1.6048,-1.6048,-1.6048,-1.6048,-1.6048,-1.604,-1.6016,-1.6353,-1.6656,-1.6794,-1.713,-1.7403,-1.7593,-1.7709,-1.7815,-1.7845,-1.775,-1.7609,-1.7454,-1.7463,-1.7322,-1.7022,-1.6959,-1.6802,-1.6295,-1.6008,-1.604,-1.6048,-1.6048,-1.6048,-1.6048,-1.6048,-1.6048,-1.6048,-1.6048,-1.6048,-1.6048,-1.6048,-1.6048,-1.6048,-1.6205,-1.7656,-1.9105,-1.9592,-2.0403,-2.1706,-2.2189,-2.251,-2.3472,-2.443,-2.5066,-2.57,-2.6504,-2.7134,-2.7619,-2.809,-2.8744,-2.8886,-2.8886,-2.8886,-0.6019,-0.7361,-1.0372,-1.221,-1.3383,-1.4052,-1.4878,-1.5875,-1.6048,-1.6048,-1.6048,-1.6048,-1.6048,-1.6048,-1.6048,-1.6048,-1.6048,-1.6048,-1.6048,-1.6048,-1.6048,-1.6048,-1.6048,-1.6048,-1.6048,-1.6048,-1.6048,-1.6048,-1.6048,-1.6048,-1.6048,-1.6048,-1.6048,-1.6048,-1.6048,-1.6048,-1.6048,-1.6048,-1.6048,-1.6048,-1.6048,-1.6048,-1.6048,-1.6048,-1.6048,-1.6048,-1.6048,-1.6048,-1.6048,-1.6048,-1.6048,-1.6048,-1.6048,-1.6048,-1.6048,-1.6048,-1.6048,-1.6048,-1.6048,-1.6048,-1.6048,-1.6048,-1.6213,-1.6369,-1.6698,-1.6862,-1.7164,-1.743,-1.743,-1.7557,-1.7855,-1.7385,-1.717,-1.7485,-1.7423,-1.7315,-1.7152,-1.6888,-1.6785,-1.6517,-1.6205,-1.6048,-1.6048,-1.6048,-1.6048,-1.6048,-1.6048,-1.6048,-1.6048,-1.6048,-1.6048,-1.6048,-1.6048,-1.6048,-1.6048,-1.6073,-1.6905,-1.7882,-1.8374,-1.8865,-2.015,-2.1015,-2.1308,-2.1945,-2.2901,-2.3692,-2.432,-2.497,-2.5646,-2.6413,-2.7059,-2.7675,-2.8588,-2.8959,-2.9047,-0.5368,-0.5703,-0.854,-1.0382,-1.1546,-1.2044,-1.3376,-1.4878,-1.5043,-1.5381,-1.5883,-1.6048,-1.6048,-1.6048,-1.6048,-1.6048,-1.6048,-1.6048,-1.6048,-1.6048,-1.6048,-1.6048,-1.6048,-1.6048,-1.6048,-1.6048,-1.6048,-1.6048,-1.6048,-1.6048,-1.6048,-1.6048,-1.6048,-1.6048,-1.6048,-1.6048,-1.6048,-1.6048,-1.6048,-1.6048,-1.6048,-1.6048,-1.6048,-1.6048,-1.6048,-1.6048,-1.6048,-1.6048,-1.6048,-1.6048,-1.6048,-1.6048,-1.6048,-1.6048,-1.6048,-1.6048,-1.6048,-1.6048,-1.6048,-1.6048,-1.6048,-1.6048,-1.6048,-1.6048,-1.6369,-1.6369,-1.6698,-1.7026,-1.7191,-1.7355,-1.751,-1.7182,-1.6966,-1.7196,-1.7267,-1.7191,-1.7035,-1.6698,-1.6534,-1.6369,-1.6205,-1.6048,-1.6048,-1.6048,-1.6048,-1.6048,-1.6048,-1.6048,-1.6048,-1.6048,-1.6048,-1.6048,-1.6048,-1.6048,-1.6056,-1.6089,-1.6303,-1.6651,-1.7156,-1.7826,-1.8815,-1.926,-1.9639,-2.0311,-2.1126,-2.1949,-2.2594,-2.3039,-2.3528,-2.4566,-2.5974,-2.704,-2.8081,-2.9037,-2.9412,-0.5384,-0.5549,-0.7219,-0.8052,-0.8549,-0.9878,-1.1546,-1.3045,-1.3217,-1.4217,-1.5719,-1.5719,-1.5883,-1.5883,-1.6048,-1.6048,-1.6048,-1.6048,-1.6048,-1.6048,-1.6048,-1.6048,-1.6048,-1.6048,-1.6048,-1.6048,-1.6048,-1.6048,-1.6048,-1.6048,-1.6048,-1.6048,-1.6048,-1.6048,-1.6048,-1.6048,-1.6048,-1.6048,-1.6048,-1.6048,-1.6048,-1.6048,-1.6048,-1.6048,-1.6048,-1.6048,-1.6048,-1.6048,-1.6048,-1.6048,-1.6048,-1.6048,-1.6048,-1.6048,-1.6048,-1.6048,-1.6048,-1.6048,-1.6048,-1.6048,-1.6048,-1.6048,-1.6048,-1.6048,-1.6048,-1.6048,-1.6205,-1.6534,-1.6698,-1.6862,-1.7199,-1.6862,-1.6689,-1.6689,-1.6689,-1.6698,-1.6698,-1.6205,-1.6048,-1.6048,-1.6048,-1.6048,-1.6048,-1.6048,-1.6048,-1.6048,-1.6048,-1.6048,-1.6048,-1.6048,-1.6048,-1.6056,-1.6073,-1.6121,-1.6146,-1.6267,-1.6316,-1.6508,-1.6852,-1.7212,-1.7847,-1.8271,-1.8838,-1.9361,-1.9903,-2.0584,-2.1055,-2.1482,-2.2289,-2.3563,-2.4911,-2.6358,-2.7324,-2.8053,-2.8859,-0.5384,-0.5384,-0.5885,-0.6885,-0.7885,-0.8549,-0.9711,-1.1374,-1.138,-1.3058,-1.5247,-1.4563,-1.4713,-1.5875,-1.5875,-1.6048,-1.5711,-1.5883,-1.6048,-1.6048,-1.6048,-1.6048,-1.6048,-1.6048,-1.6048,-1.6048,-1.6048,-1.6048,-1.6048,-1.6048,-1.6048,-1.6048,-1.6048,-1.6048,-1.6048,-1.6048,-1.6048,-1.6048,-1.6048,-1.6048,-1.6048,-1.6048,-1.6048,-1.6048,-1.6048,-1.6048,-1.6048,-1.6048,-1.6048,-1.6048,-1.6048,-1.6048,-1.6048,-1.6048,-1.6048,-1.6048,-1.6048,-1.6048,-1.6048,-1.6048,-1.6048,-1.6048,-1.6048,-1.6048,-1.6048,-1.6048,-1.6048,-1.6205,-1.6205,-1.6369,-1.6698,-1.6534,-1.6205,-1.6205,-1.6205,-1.6205,-1.6205,-1.6048,-1.6048,-1.6048,-1.6048,-1.6048,-1.6048,-1.6048,-1.6048,-1.6048,-1.6048,-1.6048,-1.6048,-1.6048,-1.6048,-1.6105,-1.6137,-1.6202,-1.6284,-1.6422,-1.6503,-1.6535,-1.6746,-1.6982,-1.7604,-1.8246,-1.8772,-1.9278,-1.9533,-2.0079,-2.0011,-1.9933,-2.1118,-2.2543,-2.3177,-2.4365,-2.545,-2.6358,-2.7378,-0.471,-0.5384,-0.5216,-0.5717,-0.6885,-0.6885,-0.7885,-0.9378,-0.9545,-1.1053,-1.3072,-1.2727,-1.2873,-1.3707,-1.3707,-1.3707,-1.3707,-1.3707,-1.421,-1.5051,-1.5711,-1.6048,-1.6048,-1.6048,-1.6048,-1.6048,-1.6048,-1.6048,-1.6048,-1.6048,-1.6048,-1.6048,-1.6048,-1.6048,-1.6048,-1.6048,-1.6048,-1.6048,-1.6048,-1.6048,-1.6048,-1.6048,-1.6048,-1.6048,-1.6048,-1.6048,-1.6048,-1.6048,-1.6048,-1.6048,-1.6048,-1.6048,-1.6048,-1.6048,-1.6048,-1.6048,-1.6048,-1.6048,-1.6048,-1.6048,-1.6048,-1.6048,-1.6048,-1.6048,-1.6048,-1.6048,-1.6048,-1.6048,-1.6048,-1.6205,-1.6205,-1.6213,-1.6048,-1.6048,-1.6048,-1.6048,-1.6048,-1.6048,-1.6048,-1.6048,-1.6048,-1.6048,-1.6048,-1.6048,-1.6048,-1.6048,-1.6048,-1.6048,-1.6048,-1.6048,-1.6089,-1.6154,-1.6243,-1.6316,-1.6446,-1.6584,-1.6674,-1.6714,-1.6779,-1.7025,-1.7682,-1.829,-1.884,-1.9362,-1.9381,-1.9543,-1.9514,-1.9514,-2.0104,-2.1149,-2.1567,-2.2381,-2.3706,-2.496,-2.5981,-0.3698,-0.5046,-0.471,-0.4878,-0.5384,-0.5384,-0.6385,-0.755,-0.7718,-0.8544,-0.9878,-1.0377,-1.0367,-1.02,-1.1037,-1.0876,-1.0876,-1.1208,-1.1878,-1.3211,-1.4548,-1.5546,-1.5381,-1.5883,-1.6048,-1.6048,-1.6048,-1.6048,-1.6048,-1.6048,-1.6048,-1.6048,-1.6048,-1.6048,-1.6048,-1.6048,-1.6048,-1.6048,-1.6048,-1.6048,-1.6048,-1.6048,-1.6048,-1.6048,-1.6097,-1.6097,-1.6105,-1.6113,-1.6129,-1.6113,-1.6073,-1.6048,-1.6048,-1.6048,-1.6048,-1.6048,-1.6048,-1.6048,-1.6048,-1.6048,-1.6048,-1.6048,-1.6048,-1.6048,-1.6048,-1.6048,-1.6048,-1.6048,-1.6048,-1.6048,-1.6048,-1.6048,-1.6048,-1.6048,-1.6048,-1.6048,-1.6048,-1.6048,-1.6048,-1.6048,-1.6048,-1.6048,-1.6048,-1.6048,-1.6048,-1.6048,-1.6048,-1.6048,-1.6073,-1.6113,-1.617,-1.6251,-1.6349,-1.6454,-1.66,-1.6763,-1.6828,-1.6893,-1.6958,-1.7197,-1.7895,-1.8391,-1.9141,-1.9498,-1.9578,-1.9751,-1.9798,-1.9836,-1.9864,-2.0192,-2.0938,-2.1687,-2.2428,-2.3665,-2.4806,-0.2861,-0.3365,-0.3868,-0.4372,-0.4878,-0.4878,-0.5214,-0.6053,-0.6053,-0.6376,-0.6867,-0.804,-0.7861,-0.6836,-0.9193,-1.071,-1.0377,-1.0544,-1.1042,-1.1374,-1.3211,-1.388,-1.4383,-1.5216,-1.6048,-1.6048,-1.6048,-1.6048,-1.6048,-1.6048,-1.6048,-1.6048,-1.6048,-1.6048,-1.6048,-1.6048,-1.6048,-1.6048,-1.6048,-1.6048,-1.6048,-1.6056,-1.6064,-1.6089,-1.6186,-1.6243,-1.6276,-1.6389,-1.6462,-1.6397,-1.6219,-1.6089,-1.6089,-1.6081,-1.6073,-1.6064,-1.6056,-1.6056,-1.6048,-1.6048,-1.6048,-1.6048,-1.6048,-1.6048,-1.6048,-1.6048,-1.6048,-1.6048,-1.6048,-1.6048,-1.6048,-1.6048,-1.6048,-1.6048,-1.6048,-1.6048,-1.6048,-1.6048,-1.6048,-1.6048,-1.6048,-1.6048,-1.6048,-1.6048,-1.6048,-1.6048,-1.6056,-1.6048,-1.6105,-1.6178,-1.6292,-1.6405,-1.6527,-1.6641,-1.6763,-1.6893,-1.695,-1.699,-1.7063,-1.7104,-1.7814,-1.8339,-1.8864,-1.9214,-1.9728,-1.9737,-1.9572,-1.9737,-1.9892,-2.0076,-2.026,-2.0598,-2.1455,-2.2654,-2.3675,-0.2692,-0.2692,-0.3365,-0.4038,-0.471,-0.471,-0.5046,-0.5384,-0.5384,-0.5379,-0.5541,-0.6382,-0.6205,-0.5524,-0.7372,-0.8219,-0.8382,-0.9049,-0.9383,-1.0044,-1.205,-1.3383,-1.3714,-1.5043,-1.6048,-1.6048,-1.6048,-1.6048,-1.6048,-1.6048,-1.6048,-1.6048,-1.6048,-1.6048,-1.6048,-1.6048,-1.6048,-1.6048,-1.6048,-1.6048,-1.6048,-1.6129,-1.6227,-1.6284,-1.6381,-1.6438,-1.6446,-1.6511,-1.6568,-1.6535,-1.6405,-1.63,-1.6292,-1.6292,-1.6251,-1.6178,-1.6162,-1.6113,-1.6081,-1.6048,-1.6048,-1.6048,-1.6048,-1.6048,-1.6048,-1.6048,-1.6048,-1.6048,-1.6048,-1.6048,-1.6048,-1.6048,-1.6048,-1.6048,-1.6048,-1.6048,-1.6048,-1.6048,-1.6048,-1.6048,-1.6048,-1.6048,-1.6048,-1.6048,-1.6056,-1.6056,-1.6178,-1.6186,-1.6243,-1.6324,-1.6487,-1.6609,-1.6738,-1.6852,-1.6942,-1.7023,-1.7055,-1.7071,-1.7088,-1.7112,-1.7463,-1.7814,-1.8339,-1.8689,-1.9214,-1.9214,-1.9039,-1.9388,-1.9563,-1.9737,-1.9737,-1.9737,-2.026,-2.1118,-2.2136,-0.2692,-0.2692,-0.3197,-0.3703,-0.4374,-0.4542,-0.471,-0.5216,-0.5216,-0.5216,-0.5384,-0.5384,-0.5549,-0.5552,-0.5549,-0.5552,-0.5885,-0.6717,-0.755,-0.8052,-1.0549,-1.205,-1.288,-1.4383,-1.5711,-1.5883,-1.6048,-1.6048,-1.6048,-1.6048,-1.6048,-1.6048,-1.6048,-1.6048,-1.6048,-1.6048,-1.6048,-1.6048,-1.6089,-1.6113,-1.6137,-1.6259,-1.6414,-1.6503,-1.66,-1.6625,-1.6633,-1.6674,-1.669,-1.6665,-1.6665,-1.6665,-1.6649,-1.6584,-1.6527,-1.6349,-1.6349,-1.63,-1.6211,-1.6137,-1.6105,-1.6081,-1.6048,-1.6048,-1.6048,-1.6048,-1.6048,-1.6048,-1.6048,-1.6048,-1.6048,-1.6048,-1.6048,-1.6048,-1.6048,-1.6048,-1.6048,-1.6048,-1.6048,-1.6048,-1.6048,-1.6048,-1.6048,-1.6048,-1.6064,-1.6105,-1.6227,-1.6332,-1.6389,-1.6487,-1.6641,-1.6755,-1.6868,-1.6942,-1.7039,-1.7063,-1.7104,-1.7112,-1.7112,-1.7112,-1.7112,-1.7463,-1.7814,-1.8164,-1.8514,-1.8514,-1.8689,-1.8864,-1.9039,-1.9204,-1.9388,-1.9563,-1.9737,-1.9921,-2.0771,-0.2692,-0.2692,-0.2861,-0.3197,-0.3535,-0.3701,-0.4038,-0.471,-0.4878,-0.5046,-0.5384,-0.5384,-0.5384,-0.5384,-0.5384,-0.5384,-0.5552,-0.5885,-0.5885,-0.6218,-0.8386,-0.9883,-1.1208,-1.288,-1.4375,-1.5711,-1.5875,-1.5711,-1.6048,-1.6048,-1.6048,-1.6048,-1.6048,-1.6048,-1.6048,-1.6048,-1.6073,-1.6105,-1.6194,-1.6259,-1.63,-1.6438,-1.656,-1.6641,-1.6747,-1.6803,-1.6844,-1.6942,-1.7023,-1.7023,-1.7023,-1.7015,-1.6942,-1.6747,-1.6609,-1.6552,-1.6535,-1.6503,-1.643,-1.6332,-1.6276,-1.6227,-1.6162,-1.6081,-1.6073,-1.6056,-1.6064,-1.6048,-1.6048,-1.6048,-1.6048,-1.6048,-1.6048,-1.6048,-1.6048,-1.6048,-1.6048,-1.6064,-1.6073,-1.6081,-1.6073,-1.6064,-1.6089,-1.6121,-1.617,-1.6243,-1.6365,-1.6479,-1.6552,-1.6657,-1.6803,-1.6901,-1.6974,-1.7039,-1.7104,-1.7096,-1.7112,-1.7112,-1.7112,-1.7112,-1.7112,-1.7112,-1.7463,-1.7814,-1.8164,-1.8339,-1.8514,-1.8514,-1.8514,-1.8689,-1.9039,-1.9388,-1.9563,-1.9737,-1.9921,-0.2692,-0.2692,-0.2692,-0.3029,-0.3365,-0.3365,-0.3701,-0.4204,-0.4372,-0.471,-0.5046,-0.4878,-0.471,-0.471,-0.4878,-0.5046,-0.5048,-0.471,-0.471,-0.5043,-0.6714,-0.8048,-0.9216,-1.0887,-1.2714,-1.4045,-1.421,-1.4878,-1.5875,-1.6048,-1.6056,-1.6048,-1.6048,-1.6048,-1.6073,-1.6137,-1.617,-1.6219,-1.6349,-1.6446,-1.6462,-1.6625,-1.6738,-1.686,-1.6917,-1.6982,-1.7006,-1.7047,-1.7104,-1.7104,-1.7104,-1.7112,-1.7055,-1.6966,-1.6812,-1.6747,-1.6722,-1.6674,-1.66,-1.6487,-1.6454,-1.6438,-1.6357,-1.6332,-1.6292,-1.6251,-1.6154,-1.6081,-1.6048,-1.6048,-1.6048,-1.6056,-1.6048,-1.6048,-1.6056,-1.6064,-1.6073,-1.6129,-1.6162,-1.617,-1.6121,-1.6129,-1.6194,-1.6235,-1.6284,-1.6381,-1.6511,-1.6609,-1.6706,-1.6828,-1.695,-1.699,-1.7047,-1.7071,-1.7112,-1.7112,-1.7112,-1.7112,-1.7112,-1.7112,-1.7112,-1.7112,-1.7112,-1.7463,-1.7639,-1.7989,-1.7814,-1.7814,-1.7989,-1.8173,-1.8689,-1.9039,-1.9204,-1.9563,-1.9737,-0.2702,-0.2702,-0.2709,-0.2879,-0.322,-0.322,-0.3558,-0.3895,-0.3897,-0.4409,-0.4912,-0.4405,-0.3897,-0.3895,-0.4236,-0.4574,-0.4572,-0.4236,-0.407,-0.4409,-0.5761,-0.6761,-0.7765,-0.8764,-1.0634,-1.3017,-1.2836,-1.3424,-1.5562,-1.594,-1.594,-1.6137,-1.6129,-1.6154,-1.6211,-1.6308,-1.6349,-1.6414,-1.6535,-1.6641,-1.6722,-1.6828,-1.6966,-1.7088,-1.7112,-1.7104,-1.7096,-1.7104,-1.7112,-1.7112,-1.7112,-1.7112,-1.7112,-1.7112,-1.7047,-1.6933,-1.6909,-1.682,-1.6738,-1.6649,-1.6633,-1.6633,-1.6592,-1.6576,-1.6544,-1.6414,-1.6308,-1.6186,-1.617,-1.6186,-1.6211,-1.617,-1.617,-1.6178,-1.6186,-1.617,-1.6227,-1.6284,-1.6349,-1.6308,-1.6211,-1.6243,-1.6357,-1.6389,-1.6446,-1.656,-1.669,-1.6779,-1.6877,-1.6966,-1.7063,-1.7071,-1.7096,-1.7096,-1.7112,-1.7112,-1.7112,-1.7112,-1.7112,-1.7112,-1.7112,-1.7112,-1.7112,-1.7112,-1.7288,-1.7463,-1.7288,-1.7288,-1.7463,-1.7814,-1.8514,-1.8689,-1.8689,-1.903,-1.9563,-0.2733,-0.2735,-0.2761,-0.2773,-0.2943,-0.2942,-0.3118,-0.3462,-0.3459,-0.3812,-0.4144,-0.3979,-0.363,-0.3281,-0.3801,-0.4152,-0.415,-0.3971,-0.3966,-0.3964,-0.4482,-0.5512,-0.655,-0.6901,-0.927,-1.1487,-1.2021,-1.3775,-1.5355,-1.5735,-1.5941,-1.6133,-1.6229,-1.6503,-1.6277,-1.6511,-1.6544,-1.6584,-1.673,-1.6885,-1.6998,-1.7047,-1.708,-1.7104,-1.7112,-1.7112,-1.7112,-1.7112,-1.7112,-1.7112,-1.7112,-1.7112,-1.7112,-1.7112,-1.7104,-1.7088,-1.708,-1.7071,-1.6998,-1.6893,-1.682,-1.6795,-1.6706,-1.6609,-1.6592,-1.6592,-1.6527,-1.6535,-1.6495,-1.647,-1.6454,-1.6487,-1.6503,-1.6479,-1.6438,-1.6454,-1.6495,-1.6479,-1.6535,-1.6568,-1.6503,-1.6519,-1.6584,-1.6584,-1.6609,-1.6738,-1.6852,-1.6942,-1.7015,-1.708,-1.7112,-1.7112,-1.7112,-1.7112,-1.7112,-1.7112,-1.7112,-1.7112,-1.7112,-1.7112,-1.7112,-1.7112,-1.7112,-1.7112,-1.7112,-1.7112,-1.7112,-1.7288,-1.7288,-1.7463,-1.7989,-1.7989,-1.7998,-1.8514,-1.9214,-0.278,-0.2937,-0.2777,-0.2784,-0.2784,-0.2784,-0.2958,-0.3132,-0.3132,-0.3132,-0.3304,-0.3304,-0.3304,-0.3133,-0.3478,-0.3478,-0.3651,-0.3481,-0.3304,-0.3481,-0.3655,-0.4175,-0.4687,-0.5207,-0.6932,-0.9702,-1.072,-1.2228,-1.4189,-1.5401,-1.5617,-1.5801,-1.6026,-1.622,-1.6283,-1.6518,-1.6722,-1.6787,-1.6901,-1.7031,-1.7096,-1.7112,-1.7112,-1.7112,-1.7112,-1.7112,-1.7112,-1.7112,-1.7112,-1.7112,-1.7112,-1.7112,-1.7112,-1.7112,-1.7112,-1.7112,-1.7112,-1.7104,-1.7088,-1.7031,-1.6998,-1.699,-1.6909,-1.686,-1.6771,-1.673,-1.6682,-1.6576,-1.6576,-1.6592,-1.66,-1.6584,-1.6584,-1.6592,-1.6633,-1.6617,-1.6649,-1.6722,-1.6738,-1.6771,-1.6803,-1.6803,-1.6787,-1.6771,-1.6795,-1.6901,-1.6974,-1.7023,-1.7063,-1.7096,-1.7112,-1.7112,-1.7112,-1.7112,-1.7112,-1.7112,-1.7112,-1.7112,-1.7112,-1.7112,-1.7112,-1.7112,-1.7112,-1.7112,-1.7112,-1.7112,-1.7112,-1.7112,-1.7112,-1.7288,-1.7471,-1.7647,-1.7647,-1.8164,-1.8864,-0.2826,-0.2981,-0.2806,-0.2806,-0.2806,-0.2806,-0.2807,-0.2807,-0.2808,-0.2807,-0.2806,-0.2808,-0.2984,-0.3158,-0.2985,-0.3164,-0.3335,-0.2981,-0.2806,-0.2982,-0.3158,-0.3336,-0.3515,-0.3687,-0.5258,-0.8722,-0.8931,-1.0657,-1.3089,-1.465,-1.4995,-1.5287,-1.5699,-1.5871,-1.5894,-1.6144,-1.6396,-1.6752,-1.6856,-1.692,-1.7112,-1.7112,-1.7112,-1.7112,-1.7112,-1.7112,-1.7112,-1.7112,-1.7112,-1.7112,-1.7112,-1.7112,-1.7112,-1.7112,-1.7112,-1.7112,-1.7112,-1.7112,-1.7112,-1.7096,-1.7112,-1.7112,-1.7104,-1.7015,-1.6942,-1.6917,-1.6885,-1.6763,-1.6755,-1.6747,-1.6722,-1.6738,-1.6755,-1.6771,-1.6755,-1.6722,-1.6722,-1.6828,-1.6901,-1.6933,-1.6966,-1.7023,-1.6998,-1.6958,-1.699,-1.7071,-1.7112,-1.7112,-1.7112,-1.7112,-1.7112,-1.7112,-1.7112,-1.7112,-1.7112,-1.7112,-1.7112,-1.7112,-1.7112,-1.7112,-1.7112,-1.7112,-1.7112,-1.7112,-1.7112,-1.7112,-1.7112,-1.7112,-1.7112,-1.7288,-1.7288,-1.7471,-1.7647,-1.8164,-1.8514,-0.287,-0.2868,-0.2867,-0.2866,-0.2864,-0.2868,-0.2866,-0.286,-0.2863,-0.2861,-0.2859,-0.2864,-0.286,-0.2861,-0.3036,-0.2859,-0.3043,-0.2867,-0.286,-0.286,-0.2867,-0.3037,-0.3034,-0.339,-0.4107,-0.6237,-0.7644,-0.9773,-1.1748,-1.4008,-1.4667,-1.53,-1.5533,-1.563,-1.5813,-1.5798,-1.6171,-1.6354,-1.6393,-1.6753,-1.6928,-1.7112,-1.7112,-1.7112,-1.7112,-1.7112,-1.7112,-1.7112,-1.7112,-1.7112,-1.7112,-1.7112,-1.7112,-1.7112,-1.7112,-1.7112,-1.7112,-1.7112,-1.7112,-1.7112,-1.7112,-1.7112,-1.7104,-1.7096,-1.7055,-1.708,-1.7063,-1.7015,-1.6974,-1.7006,-1.7031,-1.7063,-1.6982,-1.6966,-1.6933,-1.6942,-1.6942,-1.6982,-1.7055,-1.7088,-1.7104,-1.7112,-1.7112,-1.7047,-1.7031,-1.7104,-1.7112,-1.7112,-1.7112,-1.7112,-1.7112,-1.7112,-1.7112,-1.7112,-1.7112,-1.7112,-1.7112,-1.7112,-1.7112,-1.7112,-1.7112,-1.7112,-1.7112,-1.7112,-1.7112,-1.7112,-1.7112,-1.7112,-1.7112,-1.7112,-1.7112,-1.7288,-1.7463,-1.7639,-1.8164,-0.2874,-0.2874,-0.2874,-0.2874,-0.2874,-0.2874,-0.2874,-0.2874,-0.2874,-0.2874,-0.2874,-0.2874,-0.2874,-0.2874,-0.2874,-0.2874,-0.2874,-0.2874,-0.2874,-0.2874,-0.2874,-0.2874,-0.2874,-0.3233,-0.3947,-0.5733,-0.7695,-0.9482,-1.1433,-1.3046,-1.4102,-1.478,-1.497,-1.5161,-1.5352,-1.5528,-1.5704,-1.5881,-1.6057,-1.6225,-1.6577,-1.6753,-1.6753,-1.6753,-1.6753,-1.6753,-1.6753,-1.6577,-1.6753,-1.7112,-1.7112,-1.7112,-1.7112,-1.7112,-1.7112,-1.7112,-1.7112,-1.7112,-1.7112,-1.7112,-1.7112,-1.7112,-1.7112,-1.7112,-1.7112,-1.7112,-1.7112,-1.7104,-1.7112,-1.7112,-1.7104,-1.7104,-1.7088,-1.7104,-1.7112,-1.7112,-1.7112,-1.7112,-1.7112,-1.7104,-1.7104,-1.7112,-1.7112,-1.7104,-1.7104,-1.7112,-1.7112,-1.7112,-1.7112,-1.7112,-1.7112,-1.7112,-1.7112,-1.7112,-1.7112,-1.7112,-1.7112,-1.7112,-1.7112,-1.7112,-1.7112,-1.7112,-1.7112,-1.7112,-1.7112,-1.7112,-1.7112,-1.7112,-1.7112,-1.7112,-1.7112,-1.7112,-1.7288,-1.7288,-1.7814,-0.2874,-0.2874,-0.2874,-0.2874,-0.2874,-0.2874,-0.2874,-0.2874,-0.2874,-0.2874,-0.2874,-0.2874,-0.2874,-0.2874,-0.2874,-0.2874,-0.2874,-0.2874,-0.2874,-0.2874,-0.2874,-0.2874,-0.2874,-0.3053,-0.359,-0.5199,-0.6806,-0.8409,-0.9299,-1.2154,-1.304,-1.3571,-1.4292,-1.4646,-1.4822,-1.4999,-1.5352,-1.5528,-1.5528,-1.5704,-1.6049,-1.6225,-1.6225,-1.6225,-1.6233,-1.6401,-1.6401,-1.6401,-1.6753,-1.6936,-1.7112,-1.7112,-1.7112,-1.7112,-1.7112,-1.7112,-1.7112,-1.7112,-1.7112,-1.7112,-1.7112,-1.7112,-1.7112,-1.7112,-1.7112,-1.7112,-1.7112,-1.7112,-1.7112,-1.7112,-1.7112,-1.7112,-1.7112,-1.7112,-1.7112,-1.7112,-1.7112,-1.7112,-1.7112,-1.7112,-1.7112,-1.7112,-1.7112,-1.7112,-1.7112,-1.7112,-1.7112,-1.7112,-1.7112,-1.7112,-1.7112,-1.7112,-1.7112,-1.7112,-1.7112,-1.7112,-1.7112,-1.7112,-1.7112,-1.7112,-1.7112,-1.7112,-1.7112,-1.7112,-1.7112,-1.7112,-1.7112,-1.7112,-1.7112,-1.7112,-1.7112,-1.7112,-1.7112,-1.7288,-1.7471,-0.2874,-0.2874,-0.2874,-0.2874,-0.2874,-0.2874,-0.2874,-0.2874,-0.2874,-0.2874,-0.2874,-0.2874,-0.2874,-0.2874,-0.2874,-0.2874,-0.2874,-0.2874,-0.2874,-0.2874,-0.2874,-0.2874,-0.2874,-0.3053,-0.3053,-0.3412,-0.502,-0.6448,-0.6445,-1.0189,-1.1616,-1.2331,-1.3584,-1.4476,-1.4299,-1.4299,-1.4646,-1.4992,-1.4992,-1.5344,-1.5528,-1.5704,-1.5704,-1.5704,-1.5704,-1.5873,-1.6049,-1.6225,-1.6401,-1.6928,-1.7112,-1.7112,-1.7112,-1.7112,-1.7112,-1.7112,-1.7112,-1.7112,-1.7112,-1.7112,-1.7112,-1.7112,-1.7112,-1.7112,-1.7112,-1.7112,-1.7112,-1.7112,-1.7112,-1.7112,-1.7112,-1.7112,-1.7112,-1.7112,-1.7112,-1.7112,-1.7112,-1.7112,-1.7112,-1.7112,-1.7112,-1.7112,-1.7112,-1.7112,-1.7112,-1.7112,-1.7112,-1.7112,-1.7112,-1.7112,-1.7112,-1.7112,-1.7112,-1.7112,-1.7112,-1.7112,-1.7112,-1.7112,-1.7112,-1.7112,-1.7112,-1.7112,-1.7112,-1.7112,-1.7112,-1.7112,-1.7112,-1.7112,-1.7112,-1.7112,-1.7112,-1.7112,-1.7112,-1.7112,-1.7288,-0.2874,-0.2874,-0.2874,-0.2874,-0.2874,-0.2874,-0.2874,-0.2874,-0.2874,-0.2874,-0.2874,-0.2874,-0.2874,-0.2874,-0.2874,-0.2874,-0.2874,-0.2874,-0.2874,-0.2874,-0.2874,-0.2874,-0.2874,-0.2874,-0.2874,-0.3411,-0.4662,-0.5554,-0.5912,-0.9121,-1.0905,-1.1976,-1.3224,-1.4122,-1.4299,-1.4299,-1.4476,-1.4469,-1.4646,-1.4822,-1.5175,-1.5175,-1.5175,-1.5168,-1.5168,-1.5344,-1.5521,-1.5873,-1.6225,-1.6577,-1.6928,-1.7112,-1.7112,-1.7112,-1.7112,-1.7112,-1.7112,-1.7112,-1.7112,-1.7112,-1.7112,-1.7112,-1.7112,-1.7112,-1.7112,-1.7112,-1.7112,-1.7112,-1.7112,-1.7112,-1.7112,-1.7112,-1.7112,-1.7112,-1.7112,-1.7112,-1.7112,-1.7112,-1.7112,-1.7112,-1.7112,-1.7112,-1.7112,-1.7112,-1.7112,-1.7112,-1.7112,-1.7112,-1.7112,-1.7112,-1.7112,-1.7112,-1.7112,-1.7112,-1.7112,-1.7112,-1.7112,-1.7112,-1.7112,-1.7112,-1.7112,-1.7112,-1.7112,-1.7112,-1.7112,-1.7112,-1.7112,-1.7112,-1.7112,-1.7112,-1.7112,-1.7112,-1.7112,-1.7112,-1.7112,-0.2874,-0.2874,-0.2874,-0.2874,-0.2874,-0.2874,-0.2874,-0.2874,-0.2874,-0.2874,-0.2874,-0.2874,-0.2874,-0.2874,-0.2874,-0.2874,-0.2874,-0.2874,-0.2874,-0.2874,-0.2874,-0.2874,-0.2874,-0.2874,-0.2874,-0.3233,-0.3947,-0.4662,-0.4662,-0.7874,-0.9833,-1.1438,-1.3224,-1.4122,-1.4299,-1.4299,-1.4299,-1.4299,-1.4476,-1.4476,-1.4646,-1.4822,-1.4822,-1.4822,-1.4822,-1.4822,-1.4992,-1.5344,-1.5697,-1.6225,-1.6577,-1.6936,-1.6936,-1.7112,-1.7112,-1.7112,-1.7112,-1.7112,-1.7112,-1.7112,-1.7112,-1.7112,-1.7112,-1.7112,-1.7112,-1.7112,-1.7112,-1.7112,-1.7112,-1.7112,-1.7112,-1.7112,-1.7112,-1.7112,-1.7112,-1.7112,-1.7112,-1.7112,-1.7112,-1.7112,-1.7112,-1.7112,-1.7112,-1.7112,-1.7112,-1.7112,-1.7112,-1.7112,-1.7112,-1.7112,-1.7112,-1.7112,-1.7112,-1.7112,-1.7112,-1.7112,-1.7112,-1.7112,-1.7112,-1.7112,-1.7112,-1.7112,-1.7112,-1.7112,-1.7112,-1.7112,-1.7112,-1.7112,-1.7112,-1.7112,-1.7112,-1.7112,-1.7112,-1.7112,-1.7112,-0.2874,-0.2874,-0.2874,-0.2874,-0.2874,-0.2874,-0.2874,-0.2874,-0.2874,-0.2874,-0.2874,-0.2874,-0.2874,-0.2874,-0.2874,-0.2874,-0.2874,-0.2874,-0.2874,-0.2874,-0.2874,-0.2874,-0.2874,-0.2874,-0.2874,-0.2874,-0.3233,-0.359,-0.3231,-0.5733,-0.823,-1.1083,-1.2869,-1.3761,-1.4122,-1.4299,-1.4299,-1.4299,-1.4299,-1.4299,-1.4476,-1.4476,-1.4476,-1.4476,-1.4476,-1.4646,-1.4822,-1.4999,-1.5521,-1.6049,-1.6401,-1.6577,-1.6936,-1.7112,-1.7112,-1.7112,-1.7112,-1.7112,-1.7112,-1.7112,-1.7112,-1.7112,-1.7112,-1.7112,-1.7112,-1.7112,-1.7112,-1.7112,-1.7112,-1.7112,-1.7112,-1.7112,-1.7112,-1.7112,-1.7112,-1.7112,-1.7112,-1.7112,-1.7112,-1.7112,-1.7112,-1.7112,-1.7112,-1.7112,-1.7112,-1.7112,-1.7112,-1.7112,-1.7112,-1.7112,-1.7112,-1.7112,-1.7112,-1.7112,-1.7112,-1.7112,-1.7112,-1.7112,-1.7112,-1.7112,-1.7112,-1.7112,-1.7112,-1.7112,-1.7112,-1.7112,-1.7112,-1.7112,-1.7112,-1.7112,-1.7112,-1.7112,-1.7112,-1.7112,-1.7112,-0.2874,-0.2874,-0.2874,-0.2874,-0.2874,-0.2874,-0.2874,-0.2874,-0.2874,-0.2874,-0.2874,-0.2874,-0.2874,-0.2874,-0.2874,-0.2874,-0.2874,-0.2874,-0.2874,-0.2874,-0.2874,-0.2874,-0.2874,-0.2874,-0.2874,-0.2874,-0.2874,-0.2874,-0.3412,-0.4841,-0.7695,-1.1083,-1.1976,-1.2869,-1.3761,-1.4299,-1.4299,-1.4299,-1.4299,-1.4299,-1.4299,-1.4299,-1.4299,-1.4299,-1.4299,-1.4476,-1.4476,-1.4822,-1.5168,-1.5344,-1.5704,-1.6057,-1.6057,-1.6401,-1.6753,-1.7112,-1.7112,-1.7112,-1.7112,-1.7112,-1.7112,-1.7112,-1.7112,-1.7112,-1.7112,-1.7112,-1.7112,-1.7112,-1.7112,-1.7112,-1.7112,-1.7112,-1.7112,-1.7112,-1.7112,-1.7112,-1.7112,-1.7112,-1.7112,-1.7112,-1.7112,-1.7112,-1.7112,-1.7112,-1.7112,-1.7112,-1.7112,-1.7112,-1.7112,-1.7112,-1.7112,-1.7112,-1.7112,-1.7112,-1.7112,-1.7112,-1.7112,-1.7112,-1.7112,-1.7112,-1.7112,-1.7112,-1.7112,-1.7112,-1.7112,-1.7112,-1.7112,-1.7112,-1.7112,-1.7112,-1.7112,-1.7112,-1.7112,-1.7112,-1.7112,-0.2874,-0.2874,-0.2874,-0.2874,-0.2874,-0.2874,-0.2874,-0.2874,-0.2874,-0.2874,-0.2874,-0.2874,-0.2874,-0.2874,-0.2874,-0.2874,-0.2874,-0.2874,-0.2874,-0.2874,-0.2874,-0.2874,-0.2874,-0.2874,-0.2874,-0.2874,-0.2874,-0.2874,-0.3412,-0.4843,-0.7338,-0.8765,-1.0189,-1.1976,-1.3046,-1.3761,-1.4299,-1.4299,-1.4299,-1.4299,-1.4299,-1.4299,-1.4299,-1.4299,-1.4299,-1.4299,-1.4299,-1.4646,-1.4822,-1.4999,-1.5352,-1.5528,-1.5704,-1.6057,-1.6401,-1.6761,-1.6753,-1.6928,-1.7112,-1.7112,-1.7112,-1.7112,-1.7112,-1.7112,-1.7112,-1.7112,-1.7112,-1.7112,-1.7112,-1.7112,-1.7112,-1.7112,-1.7112,-1.7112,-1.7112,-1.7112,-1.7112,-1.7112,-1.7112,-1.7112,-1.7112,-1.7112,-1.7112,-1.7112,-1.7112,-1.7112,-1.7112,-1.7112,-1.7112,-1.7112,-1.7112,-1.7112,-1.7112,-1.7112,-1.7112,-1.7112,-1.7112,-1.7112,-1.7112,-1.7112,-1.7112,-1.7112,-1.7112,-1.7112,-1.7112,-1.7112,-1.7112,-1.7112,-1.7112,-1.7112,-1.7112,-1.7112,-1.7112,-1.7112,-1.7112,-0.2874,-0.2874,-0.2874,-0.2874,-0.2874,-0.2874,-0.2874,-0.2874,-0.2874,-0.2874,-0.2874,-0.2874,-0.2874,-0.2874,-0.2874,-0.2874,-0.2874,-0.2874,-0.2874,-0.2874,-0.2874,-0.2874,-0.2874,-0.2874,-0.2874,-0.2874,-0.2874,-0.2874,-0.3412,-0.4305,-0.5378,-0.5912,-0.8765,-1.0728,-1.1799,-1.3046,-1.3761,-1.4299,-1.4299,-1.4299,-1.4299,-1.4299,-1.4299,-1.4299,-1.4299,-1.4299,-1.4299,-1.4476,-1.4476,-1.4822,-1.4999,-1.5175,-1.5528,-1.5704,-1.5873,-1.6225,-1.6401,-1.6753,-1.6936,-1.7112,-1.7112,-1.7112,-1.7112,-1.7112,-1.7112,-1.7112,-1.7112,-1.7112,-1.7112,-1.7112,-1.7112,-1.7112,-1.7112,-1.7112,-1.7112,-1.7112,-1.7112,-1.7112,-1.7112,-1.7112,-1.7112,-1.7112,-1.7112,-1.7112,-1.7112,-1.7112,-1.7112,-1.7112,-1.7112,-1.7112,-1.7112,-1.7112,-1.7112,-1.7112,-1.7112,-1.7112,-1.7112,-1.7112,-1.7112,-1.7112,-1.7112,-1.7112,-1.7112,-1.7112,-1.7112,-1.7112,-1.7112,-1.7112,-1.7112,-1.7112,-1.7112,-1.7112,-1.7112,-1.7112,-1.7112,-0.2874,-0.2874,-0.2874,-0.2874,-0.2874,-0.2874,-0.2874,-0.2874,-0.2874,-0.2874,-0.2874,-0.2874,-0.2874,-0.2874,-0.2874,-0.2874,-0.2874,-0.2874,-0.2874,-0.2874,-0.2874,-0.2874,-0.2874,-0.2874,-0.2874,-0.2874,-0.2874,-0.2874,-0.3053,-0.359,-0.4485,-0.5554,-0.7517,-0.8587,-1.0728,-1.1976,-1.2869,-1.3761,-1.4299,-1.4299,-1.4299,-1.4299,-1.4299,-1.4299,-1.4299,-1.4299,-1.4299,-1.4299,-1.4299,-1.4476,-1.4476,-1.4653,-1.5175,-1.5175,-1.5521,-1.6225,-1.6401,-1.6577,-1.6936,-1.7112,-1.7112,-1.7112,-1.7112,-1.7112,-1.7112,-1.7112,-1.7112,-1.7112,-1.7112,-1.7112,-1.7112,-1.7112,-1.7112,-1.7112,-1.7112,-1.7112,-1.7112,-1.7112,-1.7112,-1.7112,-1.7112,-1.7112,-1.7112,-1.7112,-1.7112,-1.7112,-1.7112,-1.7112,-1.7112,-1.7112,-1.7112,-1.7112,-1.7112,-1.7112,-1.7112,-1.7112,-1.7112,-1.7112,-1.7112,-1.7112,-1.7112,-1.7112,-1.7112,-1.7112,-1.7112,-1.7112,-1.7112,-1.7112,-1.7112,-1.7112,-1.7112,-1.7112,-1.7112,-1.7112,-1.7112,-0.2874,-0.2874,-0.2874,-0.2874,-0.2874,-0.2874,-0.2874,-0.2874,-0.2874,-0.2874,-0.2874,-0.2874,-0.2874,-0.2874,-0.2874,-0.2874,-0.2874,-0.2874,-0.2874,-0.2874,-0.2874,-0.2874,-0.2874,-0.2874,-0.2874,-0.2874,-0.2874,-0.2874,-0.2874,-0.3053,-0.3768,-0.4662,-0.5199,-0.6806,-0.9299,-1.0189,-1.1799,-1.2869,-1.3761,-1.4299,-1.4299,-1.4299,-1.4299,-1.4299,-1.4299,-1.4299,-1.4299,-1.4299,-1.4299,-1.4299,-1.4299,-1.4476,-1.4646,-1.4646,-1.4992,-1.5521,-1.5873,-1.6233,-1.6761,-1.6936,-1.7112,-1.7112,-1.7112,-1.7112,-1.7112,-1.7112,-1.7112,-1.7112,-1.7112,-1.7112,-1.7112,-1.7112,-1.7112,-1.7112,-1.7112,-1.7112,-1.7112,-1.7112,-1.7112,-1.7112,-1.7112,-1.7112,-1.7112,-1.7112,-1.7112,-1.7112,-1.7112,-1.7112,-1.7112,-1.7112,-1.7112,-1.7112,-1.7112,-1.7112,-1.7112,-1.7112,-1.7112,-1.7112,-1.7112,-1.7112,-1.7112,-1.7112,-1.7112,-1.7112,-1.7112,-1.7112,-1.7112,-1.7112,-1.7112,-1.7112,-1.7112,-1.7112,-1.7112,-1.7112,-1.7112,-0.2874,-0.2874,-0.2874,-0.2874,-0.2874,-0.2874,-0.2874,-0.2874,-0.2874,-0.2874,-0.2874,-0.2874,-0.2874,-0.2874,-0.2874,-0.2874,-0.2874,-0.2874,-0.2874,-0.2874,-0.2874,-0.2874,-0.2874,-0.2874,-0.2874,-0.2874,-0.2874,-0.2874,-0.2874,-0.2874,-0.3053,-0.3231,-0.4305,-0.5557,-0.6624,-0.8765,-1.1261,-1.2154,-1.3046,-1.4122,-1.4299,-1.4299,-1.4299,-1.4299,-1.4299,-1.4299,-1.4299,-1.4299,-1.4299,-1.4299,-1.4299,-1.4299,-1.4299,-1.4476,-1.4646,-1.5175,-1.5521,-1.5873,-1.6225,-1.6753,-1.6928,-1.6928,-1.7112,-1.7112,-1.7112,-1.7112,-1.7112,-1.7112,-1.7112,-1.7112,-1.7112,-1.7112,-1.7112,-1.7112,-1.7112,-1.7112,-1.7112,-1.7112,-1.7112,-1.7112,-1.7112,-1.7112,-1.7112,-1.7112,-1.7112,-1.7112,-1.7112,-1.7112,-1.7112,-1.7112,-1.7112,-1.7112,-1.7112,-1.7112,-1.7112,-1.7112,-1.7112,-1.7112,-1.7112,-1.7112,-1.7112,-1.7112,-1.7112,-1.7112,-1.7112,-1.7112,-1.7112,-1.7112,-1.7112,-1.7112,-1.7112,-1.7112,-1.7112,-1.7112,-1.7112,-0.2874,-0.2874,-0.2874,-0.2874,-0.2874,-0.2874,-0.2874,-0.2874,-0.2874,-0.2874,-0.2874,-0.2874,-0.2874,-0.2874,-0.2874,-0.2874,-0.2874,-0.2874,-0.2874,-0.2874,-0.2874,-0.2874,-0.2874,-0.2874,-0.2874,-0.2874,-0.2874,-0.2874,-0.2874,-0.2874,-0.2874,-0.3053,-0.3053,-0.4305,-0.5912,-0.8052,-0.9833,-1.1083,-1.2692,-1.4122,-1.4299,-1.4299,-1.4299,-1.4299,-1.4299,-1.4299,-1.4299,-1.4299,-1.4299,-1.4299,-1.4299,-1.4299,-1.4299,-1.4299,-1.4469,-1.4822,-1.5175,-1.5352,-1.5881,-1.6225,-1.6401,-1.6577,-1.6753,-1.6928,-1.6936,-1.7112,-1.7112,-1.7112,-1.7112,-1.7112,-1.7112,-1.7112,-1.7112,-1.7112,-1.7112,-1.7112,-1.7112,-1.7112,-1.7112,-1.7112,-1.7112,-1.7112,-1.7112,-1.7112,-1.7112,-1.7112,-1.7112,-1.7112,-1.7112,-1.7112,-1.7112,-1.7112,-1.7112,-1.7112,-1.7112,-1.7112,-1.7112,-1.7112,-1.7112,-1.7112,-1.7112,-1.7112,-1.7112,-1.7112,-1.7112,-1.7112,-1.7112,-1.7112,-1.7112,-1.7112,-1.7112,-1.7112,-1.7112,-1.7112,-1.7112]}]]